GFSMW_850_thetae_000.txt.gz
Theta_e
318 317 318 318 319 319 320 322 324 326 329 329 329 329 328 328 327 327 327 329 330 331 331 331 330 330 330 330 330 329 328 328 327 326 326 326 326 326 326 325 324 324 323
318 318 318 318 318 319 319 319 319 321 322 326 329 329 328 328 328 329 330 331 330 330 330 330 331 330 330 330 330 330 330 330 329 328 325 323 324 325 326 325 322 319 319
319 318 317 317 317 318 318 318 319 319 321 324 326 329 329 328 329 331 331 329 329 329 329 330 330 330 330 330 330 330 330 329 328 327 326 325 324 325 326 326 324 324 323
319 318 318 318 317 317 317 317 318 319 321 322 324 325 328 328 326 325 324 325 325 325 326 326 327 327 328 329 329 329 329 329 328 328 327 327 326 325 325 325 326 325 325
318 318 317 317 317 317 317 317 316 317 317 317 317 318 318 317 316 316 317 319 321 324 325 325 326 327 327 327 328 329 330 330 328 328 329 328 328 327 325 325 325 324 325
318 317 318 317 317 317 316 316 316 315 315 315 315 315 315 315 315 315 315 315 314 314 313 314 316 318 319 319 322 324 325 326 327 328 328 329 328 327 327 326 325 325 325
317 317 317 317 317 316 316 315 315 315 315 315 315 314 314 314 315 315 315 315 315 315 314 314 313 313 313 313 313 314 316 318 320 322 324 326 327 328 328 327 327 327 327
317 317 317 317 316 316 315 315 315 315 314 314 313 312 312 312 313 314 314 314 313 312 310 309 308 307 307 307 309 311 312 312 313 313 314 314 317 320 323 325 326 326 326
318 317 316 316 316 315 315 315 315 314 314 311 308 309 309 309 309 310 310 310 310 309 308 307 306 306 305 305 304 304 305 307 309 311 312 312 314 315 315 316 319 322 323
317 317 316 315 315 315 314 314 314 313 311 307 307 308 308 308 308 308 308 308 307 307 306 305 304 304 304 304 304 304 304 305 305 309 313 313 314 316 316 317 318 319 321
317 316 316 315 315 315 314 314 314 312 309 306 307 307 307 308 308 308 307 307 307 306 304 303 302 302 303 303 303 305 305 306 308 310 309 309 310 312 313 314 314 315 316
316 316 315 314 314 314 313 312 311 309 306 306 307 306 305 305 306 306 305 304 303 301 300 300 300 300 300 301 303 303 305 306 305 305 306 308 309 309 310 310 311 312 313
316 315 314 313 312 312 311 310 309 306 306 306 306 305 305 304 303 301 300 299 297 296 295 296 296 297 299 300 300 304 304 301 302 304 306 306 305 306 304 305 308 309 310
315 314 312 311 311 310 309 308 306 306 306 305 304 303 301 299 297 295 293 292 291 291 291 291 291 293 296 296 298 298 299 300 301 302 301 301 299 297 298 304 305 307 310
313 312 311 310 309 308 307 305 306 306 304 302 300 298 296 293 291 291 291 290 290 290 290 290 290 291 292 292 295 295 296 297 299 297 297 296 295 294 300 295 296 300 305
311 310 310 309 308 305 305 307 306 304 301 298 295 292 291 291 290 290 290 289 289 289 289 289 289 289 289 290 291 291 295 297 295 295 294 293 292 294 292 291 293 296 302
310 310 309 307 304 306 306 305 303 300 296 292 290 290 290 290 289 289 288 288 288 288 288 288 288 288 288 289 291 293 295 292 291 292 292 290 292 297 293 291 291 293 297
309 308 306 305 306 306 304 302 298 294 290 290 290 289 289 288 288 288 288 288 287 287 287 287 287 287 287 288 291 292 291 290 288 289 288 288 295 294 292 291 292 293 297
308 306 305 305 305 303 302 298 293 290 290 290 289 288 288 288 287 287 287 287 287 286 286 286 286 287 288 289 289 288 287 287 288 289 289 292 293 293 293 293 293 295 298
306 306 305 305 304 301 298 293 290 289 289 288 288 287 287 287 287 286 286 286 286 286 286 286 286 286 287 287 287 288 289 289 289 290 291 291 292 292 292 292 294 296 297
307 306 305 305 305 301 293 290 289 288 288 287 287 287 287 286 286 286 286 285 285 285 285 285 285 286 286 287 288 288 289 289 290 290 290 289 289 290 291 293 295 295 294
306 305 304 305 303 293 289 288 287 287 287 287 287 286 286 286 285 285 285 285 285 285 284 285 285 286 286 287 287 288 289 290 289 289 288 289 289 290 292 293 293 292 293
304 304 303 301 296 289 288 287 287 287 287 286 286 286 286 285 285 284 284 284 284 284 284 285 285 286 286 286 287 288 289 288 288 288 288 288 289 290 290 290 291 291 292
302 301 300 294 288 288 287 287 286 286 286 286 286 285 285 284 284 284 284 283 284 284 284 285 286 286 286 286 286 288 287 287 287 287 286 287 287 287 287 288 289 289 290
300 297 292 288 288 287 287 286 286 286 285 285 285 285 284 284 283 283 283 283 283 284 285 285 285 285 286 286 287 287 287 287 287 286 285 285 284 284 285 287 288 288 289
295 292 288 288 287 286 286 286 286 285 285 285 284 284 284 283 283 283 283 283 283 284 284 284 285 285 285 286 286 286 286 286 285 284 284 283 283 284 285 286 287 287 288

GFSMW_850_thetae_003.txt.gz
Theta_e
317 318 318 319 319 319 319 320 321 321 322 325 327 328 328 328 328 328 328 329 330 331 332 331 331 330 330 330 330 330 330 330 330 328 326 326 326 325 325 325 325 325 325
317 317 318 318 318 318 318 319 319 320 322 323 326 327 328 328 328 329 330 330 331 330 329 329 328 329 329 329 328 329 330 330 329 327 326 324 325 325 324 324 325 325 326
317 317 317 317 317 317 317 317 318 320 321 323 326 328 328 328 328 327 325 324 324 324 324 324 325 325 326 326 327 328 329 328 328 329 328 326 325 325 325 324 324 325 325
318 317 317 317 317 316 316 316 317 317 317 318 320 321 322 320 318 316 316 317 318 319 319 319 319 321 323 323 325 325 326 327 327 327 327 328 328 326 326 326 326 325 325
317 317 317 317 316 316 315 315 315 315 315 315 315 315 315 315 315 315 315 314 314 314 313 313 313 313 313 313 315 317 318 321 323 326 327 327 327 326 325 324 324 324 326
317 317 317 316 316 315 315 315 315 315 315 315 315 314 314 314 314 313 313 312 312 312 312 311 311 310 310 309 308 309 311 312 313 314 316 318 318 321 322 325 325 325 326
316 316 316 316 316 316 315 315 315 315 314 314 314 313 312 311 311 310 309 309 309 309 309 309 309 308 307 306 305 305 305 304 305 307 309 311 312 313 313 316 318 320 319
316 316 316 316 316 315 315 315 314 314 314 311 309 309 309 309 308 308 307 307 307 307 307 307 307 306 305 304 304 304 304 304 304 304 304 306 309 312 313 314 316 318 318
316 315 315 315 315 315 314 314 314 313 313 309 307 307 307 307 307 307 307 307 306 306 306 305 304 304 303 302 302 302 302 303 304 305 306 308 309 309 308 309 311 314 317
315 315 315 315 314 314 314 314 313 313 310 306 306 307 306 306 305 305 305 305 304 303 302 301 300 299 298 298 299 300 301 302 305 305 304 304 304 305 306 307 308 309 311
315 315 315 314 314 314 313 313 312 310 307 306 306 306 306 305 304 303 302 300 298 297 295 294 293 293 293 294 296 297 299 304 303 300 300 302 304 304 303 304 304 304 305
315 315 314 314 313 314 313 311 309 308 305 306 305 305 304 304 301 299 296 294 293 292 292 291 291 291 291 291 292 293 298 298 295 296 298 300 299 297 296 296 298 298 301
315 314 314 313 313 312 310 309 308 305 306 306 306 305 302 299 296 293 292 292 292 292 291 291 290 290 290 290 290 290 293 293 291 293 298 299 294 294 293 293 300 300 293
315 314 313 312 311 310 309 306 304 306 307 306 304 301 297 293 291 291 291 291 291 290 290 290 290 290 290 289 289 288 289 290 292 294 296 293 292 292 290 294 300 297 292
313 312 312 311 310 308 304 304 306 306 304 303 299 295 291 291 291 290 290 290 290 290 290 290 290 289 289 289 288 288 289 293 294 293 291 290 290 291 291 295 294 295 294
313 311 310 309 307 304 305 306 305 304 301 297 293 290 290 290 290 289 290 290 290 289 289 288 288 288 288 288 287 288 291 292 290 289 289 288 288 288 291 290 291 294 295
312 310 309 307 303 304 305 305 304 302 297 291 290 290 289 289 289 289 288 288 288 288 288 287 287 287 287 287 287 289 290 289 288 287 288 287 288 288 290 291 292 293 293
311 308 307 304 304 305 305 303 302 296 291 289 289 289 288 288 288 288 288 287 287 287 286 286 286 286 286 286 286 287 288 288 288 288 288 289 289 289 290 290 291 291 290
309 308 305 304 305 306 305 303 296 290 289 289 289 288 288 288 288 287 287 286 286 286 286 285 285 285 285 285 286 288 288 288 288 288 289 289 289 289 290 290 290 289 290
308 306 305 305 305 304 301 295 291 290 289 288 288 288 287 287 287 286 286 285 285 285 285 285 284 284 284 285 286 287 287 288 288 289 289 288 288 288 289 289 289 292 293
307 307 305 304 302 301 298 292 292 289 288 288 287 287 286 286 286 286 285 285 284 284 284 284 284 284 284 285 286 287 287 288 288 288 287 287 287 288 288 289 289 290 290
306 304 303 302 301 299 295 291 288 288 287 287 287 286 286 286 285 285 285 284 284 283 283 283 284 284 284 285 285 286 287 288 288 287 287 287 287 286 287 287 287 288 289
305 303 302 301 298 294 290 288 287 287 287 286 286 286 286 285 285 284 284 283 283 282 283 283 284 284 284 284 284 285 286 287 286 286 287 286 285 285 284 284 286 286 287
303 302 300 299 293 289 288 287 286 286 286 286 286 285 285 285 284 284 283 282 282 282 283 284 284 284 284 284 284 286 286 286 285 287 285 284 283 283 283 283 283 285 285
302 300 296 291 288 288 287 286 286 286 286 285 285 285 285 284 283 283 282 282 282 283 284 284 284 284 284 284 285 285 285 285 287 285 283 282 282 282 281 282 282 283 284
299 295 291 287 288 287 287 286 285 285 285 285 285 284 283 283 283 282 282 282 282 283 283 283 283 283 283 284 285 285 285 285 285 283 282 281 282 281 281 281 282 283 284

GFSMW_850_thetae_006.txt.gz
Theta_e
317 318 318 318 318 318 319 318 318 319 319 321 324 326 327 327 328 328 329 329 330 330 330 330 328 327 327 326 327 326 327 327 327 328 327 327 326 326 325 324 324 323 324
317 317 317 317 317 317 317 318 318 319 320 322 325 326 327 327 328 327 327 325 324 324 323 323 323 323 323 324 325 325 326 327 327 326 326 325 326 325 325 326 325 325 324
316 316 316 316 316 317 317 317 317 317 317 318 321 325 327 325 322 319 317 317 318 318 318 317 316 315 314 315 316 317 316 319 322 326 324 325 325 325 324 325 324 324 325
316 316 316 316 316 315 315 315 315 315 315 315 315 316 316 315 314 314 314 314 314 314 314 314 313 312 311 310 309 309 309 310 310 313 317 321 321 323 323 323 323 323 323
316 316 316 316 315 315 315 315 315 315 314 314 314 314 314 314 314 313 312 311 310 310 309 309 309 309 309 308 307 307 306 305 304 304 305 308 309 312 317 318 318 317 318
316 316 315 315 315 315 315 315 315 315 314 314 313 313 312 311 310 309 309 308 308 308 307 307 307 306 306 305 305 304 304 304 304 304 304 305 306 308 310 312 313 315 315
316 316 315 315 315 315 315 315 315 314 313 311 309 309 309 308 308 307 307 307 308 308 307 306 305 304 303 302 302 301 301 301 302 302 303 304 305 306 306 306 309 311 311
316 316 315 315 315 315 315 315 314 313 312 311 307 307 307 307 306 306 306 306 305 304 303 302 300 299 298 296 296 296 297 298 299 301 304 304 304 303 303 305 307 309 309
315 315 315 315 315 314 314 314 314 313 311 308 306 307 307 307 307 307 306 305 302 299 297 295 294 293 293 293 292 292 292 294 298 303 303 299 299 300 303 305 303 302 305
315 315 314 314 314 314 314 313 313 311 308 306 306 307 307 308 307 305 302 299 295 293 293 293 293 292 292 292 292 291 291 291 296 296 294 293 295 299 300 296 295 294 300
315 315 314 314 313 313 313 313 311 309 306 306 307 307 307 305 302 299 296 293 293 292 292 292 292 292 292 292 291 290 290 289 290 290 290 293 298 300 296 294 295 292 295
315 315 314 313 313 313 312 311 309 306 305 307 307 307 304 301 297 294 292 292 292 292 292 292 292 291 291 291 290 289 288 288 289 290 292 294 293 293 292 292 291 291 299
314 314 313 312 312 311 310 309 306 305 306 307 307 305 301 296 292 292 292 292 291 291 291 291 291 291 290 290 289 289 288 288 289 292 292 291 290 290 289 289 290 293 296
314 313 312 312 311 310 309 306 305 306 307 307 303 298 294 292 291 290 291 291 291 290 290 290 290 290 290 289 288 288 288 288 289 291 290 288 288 288 288 289 291 293 293
313 312 312 311 310 309 306 304 306 307 306 303 297 294 293 291 290 290 290 290 290 290 289 289 289 289 288 288 287 287 287 287 288 288 288 287 287 288 289 290 290 291 291
312 312 311 311 309 306 304 306 306 305 303 299 296 293 291 290 290 289 290 289 289 289 289 289 288 288 287 286 286 286 288 287 288 287 287 287 287 288 289 289 290 290 290
313 311 310 309 307 303 305 305 305 303 300 300 295 291 289 289 289 289 289 289 289 288 288 288 287 286 286 285 285 286 287 287 287 287 287 287 288 289 288 288 289 289 289
313 310 309 307 304 304 305 305 302 301 299 295 291 289 289 289 288 288 288 288 288 287 287 286 285 285 285 284 284 286 287 287 286 286 287 288 288 287 288 288 289 288 287
311 309 308 305 304 305 303 302 301 297 293 290 288 289 288 288 287 288 288 287 286 286 285 285 284 284 284 284 285 286 286 286 286 286 287 288 287 287 288 288 288 287 287
308 308 305 304 304 303 303 301 298 295 289 288 288 288 287 287 287 286 286 286 285 285 284 284 284 283 283 284 285 286 286 286 286 287 287 286 286 287 288 286 286 286 285
307 305 304 303 303 303 301 300 293 289 289 288 288 287 287 286 286 286 285 285 284 284 284 284 284 283 283 284 285 285 285 286 286 287 286 285 286 287 285 285 285 284 285
306 304 303 303 303 301 298 290 288 288 288 288 287 287 286 286 286 285 285 285 284 284 283 283 283 283 283 283 284 285 285 286 286 285 285 285 286 284 284 284 284 284 285
305 303 302 302 300 296 291 288 287 288 287 287 287 287 286 286 286 285 284 284 283 282 282 282 283 283 283 283 283 284 285 285 285 285 286 285 283 282 282 282 282 282 282
303 302 301 299 295 291 288 287 287 287 287 287 286 286 286 286 285 285 284 283 282 282 282 283 283 283 283 283 283 284 284 284 284 285 285 283 282 281 281 281 280 281 281
302 301 299 296 292 289 288 287 287 287 286 286 286 286 286 285 285 284 282 282 282 282 283 283 283 283 283 283 284 284 284 284 285 284 283 281 281 280 280 280 280 280 281
300 299 297 296 289 288 288 287 286 286 285 285 286 285 285 284 283 282 282 281 281 282 282 282 283 283 283 283 284 284 284 284 282 281 281 281 280 280 280 280 279 280 281

GFSMW_850_thetae_009.txt.gz
Theta_e
317 317 318 318 318 318 318 318 319 320 321 322 324 325 326 327 327 328 328 327 326 324 323 322 322 321 321 320 319 319 319 319 318 320 321 322 321 323 323 324 325 324 323
316 316 316 316 317 317 317 317 317 317 318 319 323 326 327 326 325 322 321 319 317 317 316 315 314 313 312 312 311 310 309 309 309 315 316 320 319 321 322 321 320 321 323
316 315 316 316 316 316 316 316 316 316 316 316 318 321 321 318 315 314 314 314 314 314 313 312 311 309 308 308 308 307 306 305 306 305 309 315 316 314 313 316 317 319 322
315 315 315 315 315 315 315 315 315 315 315 314 315 315 314 314 314 314 313 311 309 308 308 307 307 307 307 306 306 306 305 304 303 304 305 304 306 309 310 309 311 311 315
316 315 315 315 315 315 315 315 315 315 314 314 314 313 313 311 310 308 308 308 308 308 308 308 307 305 304 302 301 301 300 300 300 300 301 302 304 307 308 309 308 308 309
315 315 315 315 315 314 315 314 314 314 312 312 310 310 309 308 308 308 308 309 309 309 308 307 304 301 298 296 295 294 294 294 294 296 299 304 305 306 305 305 305 305 306
315 315 314 314 314 314 314 314 314 313 312 310 308 307 307 307 308 309 309 309 309 308 305 301 298 296 294 294 294 294 293 293 292 293 297 301 302 300 301 301 303 305 306
315 314 314 314 314 314 314 314 313 312 310 308 307 307 307 308 308 309 308 306 303 300 297 295 294 294 294 294 293 293 293 292 291 291 292 292 291 292 297 299 301 303 302
315 314 314 314 313 313 313 313 312 311 309 307 306 307 308 309 309 307 305 302 298 296 294 293 293 293 293 292 292 292 292 292 291 290 290 289 290 293 297 299 300 298 300
315 314 313 313 313 313 313 312 311 310 308 306 307 308 308 307 306 304 301 298 294 293 292 292 292 292 292 292 292 292 291 291 290 290 289 290 292 293 295 295 295 296 295
314 314 313 312 312 312 312 311 310 307 306 306 308 307 307 305 302 299 296 293 292 291 291 291 291 291 291 291 291 291 290 289 288 288 289 292 292 290 289 291 291 290 290
314 314 313 312 312 311 311 310 308 305 306 307 307 307 305 303 299 295 292 291 291 290 290 291 291 291 291 290 290 289 288 287 287 289 290 290 288 288 288 288 289 289 290
314 313 312 312 311 311 310 308 306 305 307 308 306 304 302 299 295 292 291 290 290 290 290 290 290 290 290 289 289 287 287 287 287 288 289 288 288 288 288 289 289 290 290
313 313 312 311 311 310 309 306 305 306 307 306 305 303 300 295 292 290 290 290 290 290 290 290 289 289 289 288 287 286 286 286 287 287 287 287 287 287 288 289 289 290 289
312 312 312 311 310 309 307 304 305 306 306 306 302 300 295 292 290 289 289 289 289 289 289 289 289 288 288 287 285 285 286 286 286 287 287 287 287 287 288 289 289 289 289
312 312 311 311 310 308 304 305 306 306 306 302 298 294 291 289 289 289 289 289 289 289 290 289 288 287 286 285 285 285 286 287 287 286 286 286 286 287 288 288 288 289 289
313 312 312 311 309 306 304 305 306 305 302 298 295 292 289 288 289 289 289 289 289 289 288 287 286 286 285 284 284 286 286 286 286 286 286 286 287 287 287 287 288 288 287
313 311 310 309 307 303 304 305 304 303 299 296 292 289 288 288 288 288 289 289 289 288 287 286 285 285 284 283 284 285 286 285 285 285 286 286 287 287 287 287 288 286 285
312 310 309 308 305 303 304 304 302 300 296 292 289 288 288 288 288 288 289 288 287 287 286 285 284 284 283 283 284 285 285 285 285 285 286 286 286 286 287 287 285 285 285
310 309 307 305 303 303 303 303 300 297 292 289 288 288 287 287 288 288 288 287 286 285 285 284 283 283 283 283 284 285 285 285 285 286 286 285 285 286 286 286 284 284 283
308 306 305 303 302 302 302 300 296 293 289 288 288 287 287 287 288 287 287 286 285 285 284 283 282 282 283 283 284 284 285 285 285 285 285 284 285 286 285 284 283 283 284
306 305 303 302 302 302 300 295 291 289 288 288 287 287 287 287 287 287 286 285 284 283 283 282 282 282 283 283 283 284 284 285 285 285 284 285 286 285 283 282 282 283 283
305 303 302 301 301 300 295 291 290 288 287 287 287 287 287 287 287 286 285 284 283 282 282 282 282 282 282 282 283 283 284 284 284 284 284 284 283 283 282 281 281 281 280
303 302 301 300 300 295 294 290 288 287 287 287 287 287 287 287 286 285 284 283 282 281 282 282 282 282 282 282 282 284 283 284 284 284 282 281 281 282 281 280 280 280 280
302 301 301 299 296 296 289 287 287 287 287 286 287 288 287 286 284 283 282 281 281 282 282 282 282 282 283 283 284 283 284 284 284 282 281 280 281 280 279 279 280 280 280
302 301 299 297 295 289 287 287 287 286 286 287 287 287 285 284 283 282 281 281 281 282 282 282 282 282 283 283 283 283 283 283 282 280 279 279 280 279 279 279 279 279 280

GFSMW_850_thetae_012.txt.gz
Theta_e
317 318 318 319 319 319 319 320 321 322 323 325 326 327 327 327 326 325 324 322 320 318 316 314 313 313 312 311 309 308 308 310 311 310 312 313 316 319 317 322 323 319 320
317 316 317 317 317 316 316 316 317 318 320 324 325 326 325 323 321 318 315 314 314 313 312 310 309 308 308 308 307 306 306 308 308 309 309 311 311 313 314 311 311 314 313
317 316 316 316 315 315 315 316 316 315 316 318 319 319 317 315 314 314 313 312 309 308 308 309 309 308 307 305 303 301 301 304 304 305 306 308 309 307 307 308 309 310 312
316 316 315 315 315 315 315 315 315 315 315 314 314 314 314 313 312 309 308 308 309 309 309 308 306 304 301 299 297 296 296 299 302 302 303 304 304 305 306 306 306 306 308
316 316 315 314 315 315 315 315 315 315 314 314 313 312 310 308 307 308 309 309 310 308 306 304 301 299 297 295 294 294 294 297 299 299 301 302 303 303 303 304 302 302 302
316 315 314 314 314 314 314 314 314 313 312 311 310 308 308 308 308 309 310 308 307 305 304 301 298 295 295 294 294 294 294 294 294 295 299 301 300 300 299 298 298 299 299
315 314 314 314 314 314 314 314 313 313 311 309 308 308 308 309 310 309 308 307 306 304 302 299 296 294 294 293 293 293 293 294 293 295 298 298 296 295 295 295 298 298 299
316 315 314 314 314 314 313 313 312 311 309 308 308 308 309 309 308 308 307 305 303 300 297 294 293 293 293 293 293 292 292 293 293 293 293 295 293 294 295 297 298 299 299
315 315 314 314 313 313 313 312 311 310 308 307 307 308 309 309 309 307 304 303 299 296 293 293 292 292 292 292 292 292 292 291 292 291 293 293 293 294 295 295 294 294 295
315 314 313 313 312 312 312 311 310 308 307 307 307 308 309 308 306 304 302 298 294 293 292 292 291 291 291 291 291 291 290 290 290 291 291 292 292 293 292 291 290 291 292
315 313 312 312 312 312 311 310 308 307 306 306 308 308 307 305 303 301 298 294 292 291 291 291 291 290 291 291 290 289 289 289 290 290 290 290 291 291 290 290 289 290 290
315 313 312 311 312 311 310 309 307 305 306 307 307 306 304 303 300 297 295 292 291 290 290 290 290 290 290 290 289 288 288 289 289 289 289 289 289 289 289 289 289 289 290
314 312 311 310 310 310 309 308 306 305 306 307 306 304 302 300 297 294 291 290 290 289 289 289 290 290 289 288 288 287 288 288 289 289 289 289 289 288 288 288 288 289 290
313 312 311 309 308 308 308 307 305 305 306 306 304 301 299 298 294 290 289 289 289 289 290 290 289 289 288 287 286 286 287 288 288 288 288 288 288 288 288 288 288 289 289
313 312 311 309 307 308 307 305 304 306 305 304 301 299 297 293 291 289 289 289 289 289 289 289 288 288 287 286 286 285 287 287 288 288 287 287 287 287 287 288 288 288 288
312 311 311 309 306 306 306 304 305 305 304 302 300 298 294 291 289 289 288 289 289 289 289 288 287 287 286 286 285 285 287 287 287 287 287 287 287 287 287 288 288 288 289
312 311 310 308 306 307 305 304 305 304 303 300 298 295 291 289 288 288 288 289 289 289 288 287 286 286 285 284 284 285 286 287 287 286 286 286 286 287 287 287 287 287 288
312 311 310 308 308 307 304 304 304 303 301 298 295 292 289 288 288 288 288 289 289 288 286 286 285 284 284 284 284 285 286 286 286 286 286 286 286 287 286 286 287 288 287
311 311 310 309 308 305 303 303 303 301 298 295 292 289 288 288 288 288 289 289 287 286 285 285 284 284 283 283 284 285 285 285 286 286 286 286 286 286 286 287 287 286 285
310 310 309 308 305 303 302 302 301 298 296 293 289 288 288 287 288 288 288 287 286 285 284 284 283 283 283 284 284 285 285 285 285 285 286 286 286 286 286 286 285 285 283
308 308 307 305 303 302 302 301 298 296 294 290 288 288 287 287 287 288 287 286 285 284 284 283 283 283 284 284 284 284 285 285 285 285 285 285 285 286 285 284 284 284 283
307 306 304 303 302 302 301 299 296 293 290 288 288 287 287 287 288 287 286 285 284 283 283 283 283 284 284 284 284 284 285 285 285 285 284 285 285 283 283 283 283 283 283
306 305 303 302 301 301 300 295 292 290 288 288 287 287 287 288 286 285 285 284 283 283 283 283 284 284 284 284 284 284 284 284 284 284 284 284 283 282 282 282 282 282 281
305 304 303 302 301 300 295 293 290 288 288 288 287 287 287 287 286 284 283 283 283 283 283 284 284 284 284 284 283 283 284 284 283 284 283 282 282 281 281 281 280 280 281
304 303 302 300 299 295 292 291 288 288 287 287 286 287 286 285 284 283 283 282 282 282 283 283 283 283 283 283 283 284 284 284 284 283 281 281 281 280 280 280 280 280 280
302 301 300 298 294 292 290 288 288 287 286 286 287 286 285 284 283 283 282 282 282 282 282 282 282 282 283 283 283 283 283 283 283 281 281 280 280 279 279 279 279 280 280

GFSMW_850_thetae_015.txt.gz
Theta_e
320 320 320 321 322 325 328 329 329 330 331 332 331 327 323 322 325 324 321 316 314 313 311 309 309 309 309 309 308 307 307 306 308 306 307 305 311 311 311 315 317 314 312
319 319 319 319 319 321 323 327 328 330 330 326 324 322 321 320 317 314 314 312 309 309 309 310 310 309 308 306 304 302 301 302 301 304 303 306 305 307 305 304 305 306 309
319 319 319 318 318 317 317 317 317 318 319 320 319 318 315 314 313 311 309 308 309 310 310 308 306 305 303 302 299 298 297 300 300 301 302 303 304 303 303 303 305 307 305
319 318 318 318 317 315 315 315 315 315 315 316 317 316 314 312 309 308 309 310 310 309 307 306 305 303 300 297 296 296 295 297 300 299 299 300 301 303 303 302 301 301 301
318 318 318 317 316 315 315 315 315 315 314 314 313 312 310 309 309 309 310 308 308 308 307 304 302 299 297 295 294 294 294 294 297 297 297 298 300 300 299 299 298 297 297
318 318 317 316 315 314 314 314 314 313 312 311 310 309 309 309 310 309 309 308 306 305 304 302 298 295 294 294 294 294 293 293 296 295 295 297 297 297 297 296 296 296 297
318 317 316 316 315 314 313 312 312 312 311 310 309 309 309 310 309 309 309 308 306 304 303 300 296 294 293 293 293 293 293 293 294 293 295 293 294 296 295 294 295 296 297
318 317 317 316 315 313 312 312 312 311 309 309 309 309 309 309 309 309 308 306 304 302 300 297 295 293 293 292 292 292 292 292 292 292 293 292 293 293 293 294 295 296 295
318 317 317 316 314 313 311 312 311 310 309 308 308 308 309 309 308 307 306 304 302 300 297 294 293 292 291 291 291 291 291 291 291 291 291 291 292 292 292 292 294 293 292
318 317 316 315 313 311 311 311 310 309 308 307 307 308 308 307 306 305 303 301 298 296 293 292 291 291 291 291 291 291 290 290 290 290 290 291 291 291 291 291 292 291 291
318 317 316 314 312 310 311 311 310 308 306 306 307 307 307 306 304 303 300 297 294 292 291 291 291 291 292 291 290 289 289 289 289 289 290 290 290 290 290 290 290 290 290
318 316 315 313 310 310 309 309 308 306 305 307 307 307 306 304 302 299 296 293 291 291 290 290 291 291 290 289 289 288 288 288 288 289 289 289 289 289 289 289 289 289 289
317 316 315 312 310 309 307 306 305 304 305 306 306 305 303 301 299 297 293 291 291 290 290 291 291 290 289 288 288 288 287 287 288 288 289 289 289 289 288 288 288 288 288
317 315 314 312 310 308 306 304 302 303 306 306 305 303 302 300 296 293 291 290 290 290 291 291 290 289 288 287 287 287 286 287 287 288 288 288 288 288 287 287 288 288 288
316 315 314 313 310 307 305 302 301 304 305 305 304 302 300 296 293 290 289 289 290 291 290 289 288 288 287 287 286 286 286 286 287 287 288 288 287 287 288 288 288 288 288
316 315 314 313 310 307 304 301 302 304 304 304 302 300 297 293 290 289 289 290 290 290 289 288 288 287 287 286 286 286 286 286 286 287 287 287 287 287 287 287 287 288 288
316 315 314 313 310 306 303 300 301 304 304 302 300 297 294 291 289 289 289 289 289 288 288 287 287 286 286 286 286 286 285 286 286 286 286 286 286 287 286 287 287 287 287
315 314 313 312 308 304 301 299 301 303 302 300 297 294 291 289 289 289 289 288 288 288 287 287 286 286 285 285 285 285 285 286 286 286 286 286 286 286 287 287 286 287 285
313 313 312 308 304 302 300 301 302 302 300 297 294 291 289 289 289 288 288 289 288 287 287 286 285 285 285 285 285 285 285 285 285 285 285 286 286 286 287 287 286 284 284
311 310 308 305 304 300 301 301 301 301 297 295 292 290 289 289 288 288 289 288 287 286 286 285 285 285 284 285 285 286 285 285 285 285 285 285 286 286 286 285 284 284 283
308 308 307 304 300 301 301 300 301 299 295 293 291 289 288 288 288 289 288 288 287 286 285 284 284 284 285 285 285 285 285 285 285 285 285 285 285 286 285 284 283 283 284
307 306 303 301 301 301 301 301 299 295 294 293 289 288 288 287 288 288 288 287 285 285 284 284 284 285 285 285 285 285 285 285 285 285 284 284 285 284 283 283 283 283 283
305 304 302 301 301 301 301 299 297 295 294 289 288 288 287 288 288 288 286 285 284 284 284 284 284 284 284 284 284 284 284 285 284 284 284 284 283 282 282 281 282 282 281
304 303 301 300 301 301 300 297 297 295 289 288 287 287 288 289 288 286 285 284 284 284 283 283 284 284 283 283 283 283 284 284 283 284 284 282 282 281 281 281 280 280 281
303 303 301 298 299 300 298 296 295 289 288 287 287 288 289 287 286 285 284 284 283 283 283 283 283 283 283 283 284 284 283 283 283 284 282 281 280 280 280 280 280 280 280
303 302 301 300 299 298 296 293 288 288 287 287 288 288 287 286 285 284 284 284 284 284 283 283 283 283 283 283 283 283 283 283 283 282 280 280 280 280 279 279 279 280 280

GFSMW_850_thetae_018.txt.gz
Theta_e
321 320 321 323 327 328 329 329 329 330 331 331 331 331 330 326 324 322 318 314 312 310 309 310 310 309 307 306 305 304 303 302 300 300 300 301 303 303 304 307 303 302 303
320 320 320 321 325 329 330 331 332 332 332 331 329 325 323 321 317 314 312 310 309 310 310 309 308 307 306 305 303 300 298 298 297 299 298 300 300 305 299 300 299 305 306
320 319 319 319 321 325 327 330 330 329 328 326 323 320 316 314 312 310 309 309 310 310 309 309 308 306 304 302 299 297 296 296 296 296 297 300 300 298 299 298 300 302 298
319 319 319 318 318 318 318 318 319 318 318 317 316 315 314 311 309 309 310 310 310 310 308 307 306 304 301 299 297 296 295 294 294 295 295 294 295 298 298 299 296 296 295
319 319 318 318 316 316 316 316 316 316 317 317 316 313 310 309 309 310 309 309 308 309 308 306 304 302 300 297 296 295 294 293 293 294 294 293 294 294 294 295 296 294 294
319 318 318 317 316 315 314 314 314 314 313 312 311 310 309 310 310 309 309 308 308 308 307 305 303 300 297 295 294 293 293 293 293 293 293 292 294 293 293 295 294 293 293
318 318 317 317 315 314 313 312 312 311 310 310 309 309 310 309 309 309 309 308 307 307 306 303 300 297 295 294 293 293 293 292 292 292 291 292 292 291 292 293 292 293 293
318 317 317 316 314 313 312 311 311 310 309 309 309 309 309 309 310 309 308 308 306 305 303 300 297 294 293 293 292 292 293 292 291 291 290 290 290 291 291 291 292 292 291
318 317 316 316 314 312 311 311 310 309 309 309 309 309 309 309 309 308 308 306 304 302 298 295 294 293 292 292 292 292 291 290 290 290 289 289 289 290 290 290 290 291 291
318 317 317 316 314 312 311 310 309 309 309 308 308 308 308 308 308 307 306 304 301 298 294 293 293 292 292 292 292 291 290 289 289 289 288 288 289 289 289 290 290 290 290
317 317 317 315 313 312 311 309 309 309 308 307 308 308 308 307 306 305 303 301 297 294 292 292 291 292 292 292 291 290 289 288 288 288 287 288 288 289 289 289 289 289 289
318 317 316 314 312 311 309 309 308 307 307 307 307 307 307 305 304 303 300 297 294 292 291 291 292 292 292 291 290 289 288 287 287 286 286 287 288 288 288 289 288 288 288
318 317 315 314 312 310 309 308 306 306 306 306 306 306 305 304 302 300 297 294 291 291 291 292 292 292 291 290 288 287 287 287 286 286 286 286 287 288 288 288 287 287 288
317 316 315 313 311 309 308 306 305 305 305 305 305 305 304 302 301 298 294 291 291 291 291 291 291 290 289 288 287 287 287 287 286 286 285 286 287 287 287 287 288 288 288
317 316 315 313 311 309 307 305 304 304 304 305 305 304 302 301 299 295 291 290 290 290 291 291 290 289 288 287 287 287 287 286 286 285 286 286 286 287 287 288 288 288 287
317 316 315 313 311 309 306 304 303 303 303 304 304 303 301 299 295 292 290 290 290 290 291 290 288 287 287 286 287 287 287 286 285 285 286 286 286 286 287 286 287 287 288
317 316 315 313 311 308 306 304 302 302 302 303 303 301 299 296 293 290 289 289 290 290 290 289 287 286 286 285 286 286 286 286 285 285 285 285 285 285 285 286 287 287 286
316 316 315 314 311 308 305 303 301 301 302 302 301 299 297 293 290 289 289 289 290 290 288 287 286 285 285 285 286 286 286 286 285 285 285 285 285 285 286 287 287 286 285
315 315 314 313 310 307 304 302 300 301 301 301 298 296 292 290 289 289 289 290 290 289 287 286 285 285 285 285 285 286 286 286 285 285 285 285 285 285 286 286 286 285 284
313 313 312 311 308 304 302 301 301 301 301 298 296 294 290 289 289 289 290 290 289 287 286 286 285 284 284 284 285 286 286 286 285 285 285 285 285 285 286 285 284 284 283
311 310 309 307 305 303 301 300 300 300 298 296 295 290 289 289 288 290 290 289 287 286 286 285 284 284 284 284 285 285 285 285 285 285 284 284 284 285 285 284 283 283 284
306 306 306 304 302 300 300 300 300 298 296 295 291 289 288 288 290 289 288 288 287 286 285 284 284 284 283 284 284 284 285 285 285 284 283 283 285 284 283 283 282 283 282
304 304 304 303 301 300 300 300 299 296 295 291 289 288 289 290 289 288 288 287 286 284 284 283 284 284 283 283 283 283 284 284 284 283 283 284 283 282 281 281 281 281 280
304 303 303 302 301 300 300 299 296 295 291 289 288 289 289 289 289 289 287 285 285 284 284 284 284 284 283 283 283 284 284 283 283 283 284 282 281 280 280 279 279 279 280
302 302 301 300 300 300 299 296 295 292 289 288 288 289 289 289 289 287 286 284 284 284 284 284 284 283 283 283 284 284 283 283 283 283 282 280 279 279 279 279 279 279 279
302 300 298 298 298 298 297 295 292 289 288 288 288 289 289 289 288 286 285 284 283 283 283 283 283 283 283 284 284 283 283 283 282 281 279 279 279 279 279 279 279 279 279

GFSMW_850_thetae_021.txt.gz
Theta_e
322 321 320 322 325 326 326 328 326 329 332 335 335 334 333 331 330 329 322 315 311 309 310 310 309 309 308 307 306 305 303 302 300 300 301 301 300 301 304 302 300 298 300
321 320 321 325 328 329 329 329 330 332 333 334 333 332 331 327 323 317 312 309 310 310 310 309 309 308 307 305 303 301 299 298 296 296 297 298 299 301 297 298 296 298 300
320 321 321 325 329 329 330 331 331 330 330 330 330 327 322 317 313 310 309 310 310 310 309 309 309 307 305 303 300 298 296 296 296 295 296 296 296 293 296 295 298 297 294
320 320 320 323 327 330 330 330 331 331 330 326 323 320 315 313 310 309 310 310 310 310 309 309 308 306 303 300 298 296 295 294 294 294 293 293 293 293 295 295 292 292 293
320 319 319 319 323 324 328 328 326 324 320 317 315 314 311 309 309 309 309 310 310 309 309 308 306 304 301 298 296 295 294 293 293 293 293 293 292 291 293 292 291 291 292
319 318 318 318 318 318 318 318 317 317 317 316 314 311 310 310 310 309 309 309 308 308 307 306 303 300 297 295 294 293 293 293 293 292 292 291 290 291 291 290 291 291 291
318 318 318 317 316 316 316 316 316 316 315 313 310 309 309 309 309 309 308 308 308 308 306 302 299 296 294 293 293 293 293 293 292 291 290 290 290 289 289 290 290 290 290
318 318 318 316 315 314 313 313 313 312 311 310 309 309 309 309 309 308 308 308 307 306 303 299 296 294 293 292 292 293 293 292 291 290 290 289 289 288 288 289 290 290 289
318 318 317 316 314 313 312 312 311 310 309 309 309 309 309 309 308 308 307 306 305 303 300 297 294 293 292 292 292 292 292 291 290 289 288 288 287 287 287 288 288 289 289
317 317 317 315 313 312 311 310 310 310 309 308 308 308 308 308 308 307 306 306 304 300 297 294 292 292 292 292 292 291 290 289 289 288 288 287 286 286 286 288 288 288 288
317 317 316 315 313 311 311 310 309 309 308 307 308 308 308 307 307 306 306 304 301 297 293 292 292 292 292 292 291 290 289 288 288 287 287 286 286 285 286 287 287 288 288
317 316 316 315 313 312 311 311 309 308 307 307 307 307 307 307 306 305 304 301 296 293 291 291 291 292 292 290 289 288 288 287 287 287 287 286 285 286 286 287 287 287 287
317 316 316 315 313 312 311 310 308 306 306 305 306 306 306 306 305 304 301 297 293 292 291 291 292 291 290 289 288 287 287 287 287 287 286 285 285 286 286 286 287 287 287
317 316 315 314 313 312 310 308 307 305 305 305 305 305 305 304 303 301 297 294 292 291 291 291 291 290 289 288 287 287 287 287 287 286 286 285 285 285 286 286 287 287 287
316 316 315 314 313 311 309 307 306 305 303 303 304 304 304 303 301 299 295 292 291 290 291 291 290 289 288 287 286 287 287 287 287 286 285 285 285 285 286 286 286 286 286
315 315 315 314 313 311 308 306 304 303 302 303 303 303 302 301 300 297 292 291 290 291 291 290 288 288 287 286 286 287 287 286 286 286 285 285 285 285 285 285 286 287 287
316 316 315 314 313 310 308 306 304 302 302 302 302 302 300 299 296 292 290 290 290 291 290 289 288 287 286 285 286 286 286 286 286 286 285 285 285 285 285 285 286 286 286
317 316 315 314 312 310 308 305 303 301 301 302 302 300 298 297 293 290 289 290 291 290 289 288 287 285 285 284 285 286 286 286 286 285 285 285 285 284 285 285 285 286 285
317 316 315 314 311 309 306 304 302 301 301 301 300 298 297 294 290 289 290 290 290 289 288 287 286 284 284 284 285 286 286 285 285 285 285 285 284 284 285 285 286 284 283
316 315 314 313 311 307 305 304 301 300 300 300 298 297 294 290 289 289 291 290 289 288 287 286 285 284 284 283 284 285 285 285 284 284 284 284 284 284 285 285 284 282 282
314 314 312 311 308 305 303 301 300 300 299 297 296 294 290 289 289 290 290 289 288 287 286 285 284 284 284 283 284 284 284 284 285 284 284 283 283 284 284 283 282 282 283
311 311 310 307 304 303 302 301 300 299 297 296 294 290 288 289 290 290 290 289 287 285 285 284 284 284 284 283 283 284 284 285 285 284 283 283 284 283 282 281 281 282 282
308 307 306 304 301 300 299 300 300 298 296 293 289 288 289 290 290 290 288 287 285 284 284 284 284 284 283 283 283 284 284 284 284 283 283 282 282 280 280 280 281 280 279
304 303 303 301 299 298 299 299 298 296 293 289 288 289 290 290 290 289 287 286 285 283 284 284 283 283 283 283 283 284 284 283 283 283 282 281 280 279 279 279 279 279 279
302 301 301 300 300 299 299 297 295 293 289 288 288 289 290 290 289 287 286 285 283 283 283 283 283 283 283 283 284 284 283 283 283 282 281 279 278 278 279 279 279 279 279
301 300 300 299 299 298 297 295 293 288 288 288 289 289 289 289 288 286 286 284 283 282 282 282 283 283 283 283 283 283 283 282 281 280 278 278 278 278 278 278 279 279 279

GFSMW_850_thetae_024.txt.gz
Theta_e
321 321 321 321 320 321 322 323 324 324 329 333 335 335 332 331 331 330 329 326 318 311 310 310 309 309 308 308 306 304 302 301 300 300 301 301 300 300 302 302 298 297 297
320 321 321 320 321 322 324 324 323 322 329 333 335 335 332 330 330 330 322 311 309 310 310 309 309 309 308 306 304 302 300 298 296 295 297 296 297 299 298 296 295 295 295
321 321 321 321 324 325 327 327 327 330 332 334 335 333 332 330 327 316 310 310 309 310 309 309 309 309 306 303 301 298 297 296 295 293 294 294 294 292 294 293 294 294 292
321 321 322 324 326 327 328 330 331 332 333 333 333 332 330 325 314 310 310 310 310 310 309 309 308 306 302 300 297 295 294 294 293 293 292 292 292 291 291 292 292 291 291
321 321 321 324 328 328 329 330 330 330 330 330 327 325 320 313 310 309 310 310 309 309 309 308 306 302 299 297 295 294 293 292 292 292 292 291 291 290 291 290 290 289 290
320 321 323 326 329 329 330 329 330 330 328 322 318 314 313 310 310 310 309 309 309 309 308 306 302 299 296 295 294 293 292 292 292 292 291 290 289 289 289 288 288 288 288
319 320 322 323 325 327 329 328 327 324 318 315 314 312 310 310 310 309 309 309 308 307 306 303 299 297 295 293 292 292 292 292 292 291 290 289 289 288 288 287 286 288 287
318 319 319 320 321 321 323 320 318 316 316 315 312 309 309 309 309 309 309 308 307 306 303 299 296 294 292 292 292 292 292 292 291 290 289 288 288 287 287 286 286 287 287
317 318 318 318 318 318 317 317 316 316 315 312 309 308 309 308 309 308 308 307 306 304 301 297 294 292 292 292 292 292 291 290 289 289 288 288 287 287 286 285 285 287 287
316 317 317 316 316 315 315 314 314 313 311 309 308 308 308 308 308 307 307 306 304 301 298 295 293 292 292 292 292 291 290 289 289 288 287 287 287 286 285 285 286 287 287
316 317 316 315 314 313 312 311 310 309 308 307 308 308 308 307 307 306 306 305 302 298 295 293 292 292 292 291 290 289 288 288 287 287 287 287 286 285 285 285 286 286 286
316 317 316 314 312 312 310 309 308 308 307 307 307 307 307 306 306 305 305 302 299 295 293 292 291 292 291 290 289 288 287 287 287 287 287 286 286 285 285 285 285 286 286
316 317 315 313 312 311 310 309 308 306 306 306 306 306 306 305 305 304 303 300 296 293 291 291 292 291 290 289 288 287 287 287 287 287 286 286 285 285 285 285 285 286 286
316 316 315 314 312 311 310 308 307 305 304 304 304 305 305 304 304 303 301 297 293 291 291 292 291 290 289 288 287 286 286 287 287 286 286 286 285 285 285 286 286 286 285
315 315 315 314 313 311 310 308 306 304 303 303 303 304 304 303 302 300 297 293 291 290 291 291 290 289 288 287 286 286 287 287 286 286 286 286 285 285 286 286 286 285 286
314 315 315 315 313 312 310 307 305 304 303 302 303 303 303 302 300 298 294 291 290 291 291 290 288 288 287 286 286 286 286 286 286 286 286 285 284 284 285 285 285 286 286
315 315 316 315 314 312 310 307 305 304 302 301 302 302 301 299 298 295 291 290 291 291 290 289 288 287 286 286 285 286 286 286 285 285 284 284 284 284 283 284 285 285 285
315 315 316 315 313 312 309 307 304 303 302 301 301 301 299 298 296 291 289 290 291 290 289 288 287 286 285 285 284 285 285 285 284 284 283 284 284 283 284 284 285 285 283
316 316 316 315 313 311 308 306 303 302 301 300 300 299 298 296 291 289 290 291 291 289 288 287 286 285 285 284 283 285 284 284 284 284 284 284 283 283 285 286 284 283 282
316 316 315 314 313 309 307 304 302 301 300 300 299 298 296 292 289 290 291 290 289 288 287 287 285 284 284 283 283 285 284 284 284 284 284 284 283 284 285 284 283 282 281
316 315 314 313 311 307 305 302 301 300 300 299 297 296 291 289 290 291 291 290 288 287 287 286 285 284 283 283 283 284 285 284 285 284 284 283 283 284 283 282 281 281 283
314 313 313 309 306 304 303 302 300 299 299 297 296 291 289 289 291 291 290 288 287 287 286 284 284 283 282 283 283 284 285 285 284 284 283 283 283 282 281 281 281 282 281
311 309 309 305 302 301 301 301 300 299 298 296 291 289 289 290 290 289 289 288 287 285 284 283 283 282 282 282 283 284 284 283 284 283 283 282 281 280 280 280 280 280 280
308 307 306 303 300 299 298 300 299 297 296 291 289 289 289 289 289 289 288 287 285 284 283 283 282 282 282 282 283 283 283 283 283 282 282 281 280 279 279 280 280 280 279
303 303 302 301 300 298 299 299 297 295 290 288 288 289 289 289 289 289 287 285 284 282 283 282 282 282 282 282 283 283 283 283 282 282 280 279 279 279 280 280 280 279 279
301 301 300 300 299 298 298 296 294 290 288 288 288 288 289 289 288 287 287 284 283 282 281 281 282 282 282 282 282 283 283 282 281 280 279 278 278 278 279 279 279 279 279

GFSMW_850_thetae_027.txt.gz
Theta_e
324 323 322 322 322 321 321 326 330 334 333 335 335 336 333 333 333 332 330 329 327 323 310 309 310 309 309 309 308 305 303 301 300 300 301 300 300 299 299 301 300 297 296
324 323 321 321 321 321 321 322 325 329 331 333 334 334 333 331 330 330 330 327 315 309 309 309 309 310 309 307 304 302 300 298 296 296 296 295 296 299 299 296 296 295 295
322 323 321 321 321 321 321 322 323 324 325 332 334 334 332 331 329 328 327 316 309 309 309 310 310 309 306 302 301 299 297 296 294 293 294 293 293 292 294 293 294 293 293
322 322 321 321 321 322 323 324 324 322 325 333 334 333 332 331 328 326 316 310 309 310 310 310 309 306 302 300 299 297 295 294 293 293 292 291 290 290 290 291 292 291 291
322 322 321 321 322 324 325 327 327 327 330 333 333 334 333 331 327 316 310 309 310 309 309 309 306 303 301 299 297 295 294 293 293 292 291 291 290 289 289 289 289 290 290
322 321 321 322 324 326 327 329 331 332 332 332 332 331 330 327 318 310 309 309 309 309 308 307 305 302 299 296 295 293 293 293 292 291 290 289 288 288 288 287 287 287 287
319 320 320 324 325 326 328 329 330 330 330 329 326 325 322 315 310 309 309 309 309 308 307 305 302 299 296 294 293 293 292 292 291 290 289 289 288 287 287 287 287 286 286
318 319 321 324 325 327 328 329 329 330 328 324 319 315 311 309 309 309 309 308 308 307 306 303 299 295 293 293 292 292 292 291 290 289 289 288 287 287 287 286 285 285 286
316 318 321 324 326 327 328 328 328 328 324 316 313 311 309 308 308 308 308 307 307 306 303 299 295 293 292 292 292 292 291 290 289 289 288 287 287 287 286 286 285 285 285
316 318 321 323 325 326 326 325 324 322 316 314 311 308 308 307 307 307 307 306 306 303 299 296 293 292 292 292 292 291 290 289 289 288 287 287 287 286 286 285 285 285 285
315 316 318 321 321 321 321 319 317 316 314 312 308 308 307 307 307 306 306 306 304 300 297 294 292 292 292 292 291 290 289 288 288 287 287 287 286 286 286 285 285 285 285
313 315 318 318 317 317 316 315 314 313 311 308 307 306 306 306 306 306 305 303 301 297 294 292 292 292 292 291 290 289 288 288 287 287 287 286 286 286 285 285 285 285 285
313 315 316 316 315 314 313 312 311 309 307 306 306 306 306 305 305 305 303 301 298 294 292 291 291 292 291 290 289 288 287 287 287 286 286 286 286 286 285 285 285 285 286
314 315 315 314 313 311 310 309 307 306 305 305 305 305 305 304 304 303 301 299 295 292 291 291 292 291 290 289 288 287 287 286 286 286 286 286 285 285 285 285 285 286 285
314 315 314 313 311 310 308 307 306 304 304 304 304 304 304 303 302 301 299 296 293 291 291 292 291 290 289 288 287 286 286 286 286 286 285 285 284 284 285 285 285 284 285
313 315 315 313 311 310 308 306 305 304 303 303 303 303 303 302 301 299 297 294 291 290 291 291 290 289 288 287 286 285 286 285 285 284 284 283 283 284 284 284 284 285 285
315 315 315 314 312 310 309 307 305 304 302 302 302 301 301 300 299 297 295 291 290 292 292 290 289 289 287 286 285 284 286 284 284 284 283 283 284 284 283 283 284 286 284
314 315 315 314 312 311 309 307 305 303 302 301 301 300 300 299 297 296 291 290 292 292 291 289 288 288 286 285 284 284 284 284 284 284 284 284 284 283 284 285 286 283 283
315 316 315 315 314 312 309 307 304 303 301 300 300 300 299 298 295 290 289 291 292 291 290 289 287 286 285 284 283 284 284 284 284 284 285 284 283 283 285 285 283 282 282
315 315 315 314 313 311 309 306 304 302 300 299 299 299 297 295 291 289 291 291 291 291 289 288 286 284 284 283 283 284 284 284 284 285 284 283 283 284 284 283 282 282 281
315 315 314 314 312 310 307 304 302 300 299 299 298 296 295 291 289 290 291 291 290 289 288 286 285 284 283 283 282 284 284 284 285 284 283 282 283 284 283 282 281 281 283
314 313 313 312 310 308 305 302 301 299 298 298 296 295 291 289 290 291 290 290 289 288 286 284 284 283 283 282 282 283 284 284 284 283 282 282 283 282 281 281 281 282 281
312 312 312 310 306 303 302 302 300 299 298 296 295 290 288 289 290 290 290 290 288 286 284 283 283 282 282 282 282 283 283 283 283 283 283 282 281 280 280 281 280 280 280
311 309 308 305 301 300 300 300 299 298 296 294 290 288 289 289 289 289 289 288 286 284 283 282 282 282 282 282 282 283 283 283 283 282 282 280 280 280 280 281 281 280 279
307 306 306 304 301 299 298 298 297 296 294 290 288 288 289 289 289 289 287 286 284 283 282 282 281 281 281 282 283 283 283 283 282 281 280 280 280 279 280 281 280 280 280
304 303 302 301 298 297 298 297 295 293 289 288 288 288 288 288 289 288 287 284 283 282 282 281 281 281 281 282 282 283 282 282 280 280 279 279 279 279 279 280 280 281 281

GFSMW_850_thetae_030.txt.gz
Theta_e
322 324 324 323 323 322 322 322 323 325 330 334 336 337 337 333 333 333 331 330 328 328 325 311 309 309 310 310 307 304 302 302 301 301 301 300 299 299 298 299 300 299 297
321 323 324 324 322 322 322 321 321 326 331 334 336 336 336 333 333 332 331 328 327 324 310 309 309 310 310 308 305 303 301 300 298 297 296 295 297 298 299 296 296 295 295
321 321 322 323 322 321 321 321 321 326 332 335 336 336 334 331 331 329 329 326 320 311 309 309 310 310 308 307 304 301 299 297 295 294 294 293 292 292 294 294 294 293 292
319 321 321 322 322 321 321 321 321 323 328 333 335 335 334 331 329 327 325 322 311 309 309 310 310 309 308 305 301 299 297 295 294 293 293 291 290 289 290 291 292 291 291
316 319 321 322 322 321 321 321 322 323 324 329 333 334 333 330 327 325 324 313 309 309 309 309 309 308 305 302 299 296 294 294 293 293 292 291 290 289 289 288 290 291 290
320 320 321 322 322 321 322 323 323 324 323 327 332 332 332 329 327 324 315 309 309 309 309 308 308 306 303 299 296 295 294 293 293 292 290 289 288 288 287 287 287 286 287
318 320 320 321 321 321 323 325 326 326 326 330 330 330 330 329 328 322 310 309 309 309 308 307 306 303 300 296 294 293 293 293 292 291 290 289 288 288 287 287 287 286 286
318 319 320 321 321 322 324 326 329 330 330 328 328 328 328 326 317 309 308 308 308 307 306 305 303 300 297 294 293 293 293 292 291 290 289 289 288 287 287 286 286 285 285
313 317 318 319 321 323 324 326 329 330 330 328 327 324 319 312 308 308 308 307 307 306 305 303 300 297 295 293 293 293 292 291 290 289 288 288 287 287 287 286 286 285 284
314 315 317 319 323 325 326 328 329 329 328 325 320 314 310 308 307 307 307 306 306 305 303 301 298 295 293 292 292 292 291 290 289 288 288 288 287 286 286 286 285 285 285
314 316 317 319 324 326 327 327 327 327 324 317 312 309 307 307 306 306 306 306 305 303 301 299 295 293 292 292 292 291 290 290 289 288 287 287 286 286 286 285 285 285 285
314 315 316 319 323 325 325 326 324 324 318 312 310 307 306 306 306 305 305 305 303 302 300 296 293 292 292 292 291 291 290 289 288 287 287 286 286 286 285 285 285 285 285
312 313 314 319 321 322 322 321 319 317 313 310 307 305 305 305 305 305 305 303 302 300 297 294 292 292 293 292 291 290 289 288 287 286 286 286 285 285 284 284 284 285 285
312 310 313 318 320 319 319 316 314 313 310 307 305 305 304 305 304 304 303 302 300 298 294 292 292 293 292 291 290 289 288 287 286 286 285 284 284 283 284 285 285 285 284
310 310 313 315 315 314 313 311 310 308 306 304 304 304 304 304 303 303 302 300 298 295 291 291 292 292 291 290 289 287 286 286 285 285 284 284 283 283 285 285 285 284 284
310 309 312 313 313 312 310 308 307 305 304 303 303 303 303 303 302 301 300 297 295 291 291 292 292 291 290 289 288 286 285 285 285 284 284 284 284 284 284 284 284 285 286
311 311 313 313 312 310 309 307 305 303 302 302 302 302 302 301 300 299 297 295 291 291 292 292 291 290 289 288 286 285 284 284 284 284 284 284 284 283 283 283 284 285 284
311 312 313 312 310 308 307 306 304 303 302 301 301 301 300 300 298 297 295 292 291 292 292 291 290 290 288 286 285 284 284 284 284 284 284 284 283 283 284 284 285 284 283
314 315 314 313 311 309 308 306 304 302 301 300 300 300 299 298 296 294 292 290 292 292 291 291 290 288 286 285 284 283 284 284 284 284 284 283 283 283 284 285 284 283 282
315 315 314 313 312 309 308 306 304 301 300 299 299 298 297 295 294 292 290 291 291 291 291 290 287 285 285 284 283 283 284 284 284 284 284 283 283 283 284 283 283 282 281
314 314 314 314 312 310 307 305 302 300 299 298 297 296 295 294 292 290 291 291 291 291 290 288 286 285 284 283 282 283 284 284 284 284 283 283 282 284 283 282 281 281 283
312 313 313 312 310 308 306 303 301 299 298 297 296 295 294 292 289 290 290 290 290 289 288 286 285 284 283 282 282 283 284 284 283 283 283 282 283 282 281 281 280 282 281
312 311 312 310 308 306 304 302 300 297 296 296 295 294 291 289 290 290 290 290 289 288 286 284 283 283 282 282 282 282 283 283 283 283 282 282 281 280 280 280 280 281 281
310 309 309 307 304 301 301 301 298 296 296 295 294 290 288 289 289 289 289 289 288 285 284 283 282 282 281 281 282 282 282 283 282 282 282 280 280 280 280 281 281 281 281
307 307 306 303 300 298 298 297 297 296 296 294 290 288 289 289 289 289 289 288 285 283 282 281 281 281 281 281 282 283 283 283 282 281 280 280 280 280 280 281 281 281 281
304 303 302 300 298 297 297 296 296 294 292 289 288 288 288 288 289 289 288 285 283 282 282 281 281 281 281 281 282 282 282 282 280 280 279 279 279 279 280 281 281 281 282

GFSMW_850_thetae_033.txt.gz
Theta_e
318 320 323 324 324 324 324 323 323 323 323 324 329 335 335 337 335 334 332 332 329 328 327 325 314 309 309 310 308 306 304 302 302 301 300 299 299 298 298 298 298 296 296
316 317 320 323 323 324 323 322 322 323 324 325 328 334 335 335 334 332 332 331 329 326 324 316 310 309 310 309 308 305 303 301 299 298 297 296 297 298 298 297 296 295 295
313 315 317 319 321 323 323 322 322 322 323 325 330 335 336 333 332 330 329 329 327 323 314 309 310 310 310 309 307 305 301 299 297 296 295 294 294 293 295 295 295 294 294
311 311 315 318 320 322 322 321 321 321 323 328 332 334 336 333 331 330 329 328 324 314 309 309 310 310 309 308 305 302 299 297 296 295 294 293 292 290 291 291 292 292 292
312 311 312 317 320 321 322 321 321 321 323 329 333 335 334 332 330 328 326 322 318 311 308 309 309 309 307 305 303 300 297 296 295 294 293 293 292 290 289 289 291 291 291
312 314 314 315 319 321 321 321 321 322 323 329 333 334 334 332 328 324 322 318 315 308 308 309 309 307 306 304 301 298 296 295 294 293 292 291 290 289 288 287 288 288 289
313 314 317 318 318 321 321 321 321 323 323 326 331 332 332 331 327 323 322 318 310 308 308 308 307 306 304 301 298 296 294 294 293 292 291 290 289 289 288 287 287 287 287
311 315 317 318 319 321 321 321 322 324 323 325 328 330 329 326 323 321 315 310 308 308 308 307 306 304 302 299 296 294 294 293 292 291 291 290 289 288 288 287 286 286 287
312 313 312 318 319 320 321 321 323 324 323 324 328 327 325 323 319 313 308 307 308 308 307 306 305 303 300 296 294 294 293 292 291 291 290 289 288 288 287 286 286 286 286
311 312 313 317 318 320 321 323 325 326 326 327 325 325 324 315 312 308 307 307 307 307 306 305 303 300 297 295 293 293 293 292 291 289 289 288 287 287 286 286 286 286 285
314 311 313 315 317 319 323 326 327 328 327 325 324 322 315 309 306 306 306 307 307 306 304 303 300 297 294 293 293 293 292 291 290 289 288 287 287 286 286 285 285 285 285
314 311 313 315 317 320 324 326 326 327 325 323 319 313 309 306 305 306 306 306 306 304 302 300 297 294 293 293 293 292 291 290 289 288 287 286 286 285 284 284 284 284 284
313 313 313 315 317 321 324 325 325 324 321 315 311 307 305 305 305 305 306 305 303 302 300 298 294 293 293 293 292 291 290 289 288 287 286 285 284 284 284 284 284 284 285
311 311 311 313 316 320 322 323 322 318 315 308 306 305 304 305 305 305 304 302 301 300 298 294 293 293 293 292 291 290 289 288 287 286 285 284 284 284 284 284 285 285 285
308 308 309 312 316 318 320 319 317 312 308 306 305 304 304 304 304 303 302 300 299 297 294 293 293 293 292 292 291 289 287 286 285 285 284 284 284 284 285 285 285 285 285
308 307 308 312 315 317 317 315 312 308 306 305 304 303 303 303 302 301 300 299 297 294 293 292 293 292 292 291 289 287 286 285 284 284 284 284 284 284 284 284 284 285 285
308 307 309 312 314 315 315 312 309 307 304 303 303 303 302 302 301 299 298 296 294 292 292 292 292 291 291 289 287 286 284 284 284 284 284 284 284 283 283 283 284 285 285
309 309 310 311 311 311 309 308 306 304 302 302 302 301 301 300 299 297 296 294 292 292 292 292 291 291 289 287 286 284 284 284 283 284 284 284 283 283 283 284 285 284 283
311 311 311 311 310 308 307 306 303 302 301 301 301 300 299 298 297 296 294 292 291 292 292 291 291 289 287 285 284 284 283 283 284 284 284 283 283 283 284 285 284 283 282
313 313 311 310 309 306 305 303 301 300 300 299 299 298 297 296 296 295 292 291 291 291 291 290 289 286 285 284 284 283 283 284 284 284 284 283 283 283 284 284 283 282 281
313 312 311 309 307 305 303 302 300 299 299 298 298 297 296 295 294 292 290 291 291 290 290 289 287 285 284 283 283 282 284 284 284 284 283 283 283 284 283 283 282 281 283
312 312 310 308 306 304 302 301 299 298 298 297 297 296 295 294 291 290 290 290 290 290 289 287 286 285 284 283 282 282 283 284 283 283 283 282 283 282 281 281 280 281 281
310 310 310 307 304 302 302 301 299 298 297 296 296 296 294 290 289 290 289 289 290 288 286 284 284 284 283 282 282 282 283 283 283 283 282 282 281 280 280 280 281 281 282
308 308 308 305 302 301 300 301 298 296 297 297 296 293 289 289 289 289 289 289 288 285 284 283 283 282 282 281 282 282 282 282 283 282 282 281 280 280 280 281 282 282 281
306 306 306 304 300 298 298 297 297 296 296 295 292 289 289 289 288 289 289 287 285 283 282 282 281 281 281 281 282 282 282 283 282 282 280 280 280 280 281 281 282 282 282
304 304 302 300 297 297 297 296 295 294 295 291 289 288 288 288 288 289 287 284 283 283 282 281 281 281 280 281 281 282 282 282 280 280 279 279 279 279 280 281 281 282 283

GFSMW_850_thetae_036.txt.gz
Theta_e
318 318 320 321 322 321 321 324 324 324 323 324 331 334 334 335 336 335 335 334 331 330 327 326 325 317 309 309 310 310 309 307 304 302 300 299 299 297 297 298 298 296 296
315 316 318 320 322 322 323 324 324 324 323 324 327 329 332 334 334 335 334 333 331 330 327 326 319 310 309 311 311 310 308 306 303 299 299 300 299 298 297 297 296 295 295
312 313 315 318 320 322 322 324 324 323 322 323 328 327 331 334 334 334 333 331 330 328 325 319 309 309 310 311 310 309 306 303 301 298 297 298 300 296 296 296 295 294 294
312 312 313 315 318 321 322 323 323 323 323 324 325 326 330 334 334 332 331 330 327 326 314 310 309 309 310 310 309 307 305 301 298 296 296 295 294 294 295 295 294 293 293
312 312 313 313 316 319 319 321 322 322 322 323 324 329 332 333 333 330 329 326 326 320 310 309 309 309 310 309 308 306 302 299 297 295 294 294 293 292 292 293 294 293 292
312 312 313 314 314 317 318 320 321 321 321 323 326 330 332 333 333 329 326 326 322 315 308 309 309 309 309 308 306 303 300 297 295 294 294 292 292 292 291 291 292 291 292
311 312 314 315 316 317 317 320 321 321 321 323 328 330 332 333 332 329 328 326 320 312 309 308 308 308 308 306 304 300 297 295 294 293 292 292 291 290 290 290 290 291 290
313 312 314 316 317 317 315 320 321 321 322 324 328 330 332 331 330 327 326 322 314 311 308 308 307 307 306 304 300 297 295 294 294 293 292 291 290 290 289 289 289 289 290
312 313 312 315 318 319 317 319 321 322 322 324 327 330 329 330 327 324 319 314 309 308 307 307 306 305 303 301 297 295 294 294 293 292 291 290 289 289 288 288 288 288 289
312 314 313 314 316 319 319 320 321 321 322 323 325 328 327 327 322 317 313 308 307 307 306 306 304 302 300 297 295 294 294 293 292 292 290 289 289 288 288 288 288 288 288
314 314 314 315 318 319 319 320 320 321 321 322 324 327 324 318 317 312 306 305 306 306 305 304 302 300 297 295 294 294 293 293 292 290 289 289 288 287 287 287 287 287 287
314 315 314 316 317 317 316 317 319 321 321 322 324 322 319 317 313 305 304 305 306 305 303 302 299 298 295 294 294 293 293 292 291 289 288 287 287 286 286 286 286 286 286
313 312 311 313 314 313 313 316 319 321 322 324 321 320 316 307 304 304 304 305 304 303 302 300 298 296 294 294 293 293 292 291 289 288 287 286 286 286 286 286 286 286 287
312 311 311 311 311 311 310 315 321 322 323 321 319 315 308 304 304 304 304 304 302 301 300 298 295 294 293 293 293 292 291 289 288 287 286 286 285 286 286 286 286 286 286
310 309 308 309 308 306 312 320 321 319 319 317 310 305 303 303 304 304 303 302 300 299 298 295 294 293 293 293 292 290 288 288 287 286 286 286 285 284 285 286 286 286 285
311 308 306 306 302 308 315 319 317 316 312 308 305 304 303 303 303 302 301 299 298 297 295 293 293 293 292 292 290 289 287 287 286 286 286 285 285 285 285 285 285 285 285
309 306 305 301 302 311 317 315 314 309 305 304 303 303 302 302 301 300 299 297 296 295 293 293 293 292 291 291 289 287 286 286 286 286 285 285 285 285 285 284 285 285 285
308 305 302 301 306 311 311 313 307 305 304 302 302 301 301 301 299 298 296 295 294 293 292 292 292 291 291 289 287 285 285 285 286 285 285 285 285 285 285 285 285 285 285
306 304 306 307 306 308 308 306 303 301 301 301 301 300 300 299 298 296 295 294 292 292 292 291 291 291 289 287 285 284 284 286 285 285 285 285 285 284 285 285 285 284 284
304 305 307 306 308 306 305 304 302 301 300 300 300 299 298 297 296 295 293 292 291 291 291 291 290 288 286 285 284 284 284 285 285 285 285 285 285 284 284 285 284 283 283
310 308 308 308 307 305 304 302 300 300 300 299 299 298 296 296 294 293 291 291 291 290 290 290 288 286 285 284 283 283 283 285 285 285 284 284 284 284 284 283 283 282 282
308 309 308 306 304 303 301 300 300 299 299 298 297 296 296 294 292 290 290 290 290 290 289 288 286 285 284 283 282 282 282 284 284 284 284 284 284 283 282 281 281 281 282
306 306 306 303 300 299 301 301 299 298 297 297 296 294 293 292 290 290 289 289 289 289 287 285 285 284 283 283 282 282 283 284 284 284 283 284 283 281 281 280 281 281 281
305 304 304 302 299 299 299 300 298 297 296 295 294 293 291 289 289 289 289 289 288 286 285 284 283 283 283 283 282 283 283 283 283 283 283 282 281 280 280 280 280 280 280
303 303 302 301 299 298 298 298 296 295 295 295 293 290 289 289 288 289 289 288 285 284 283 282 282 282 282 282 282 282 283 283 283 282 281 280 280 280 280 280 280 280 280
303 302 301 300 297 297 297 295 294 294 295 293 289 288 288 288 289 289 286 285 284 283 282 282 281 281 281 281 281 282 282 282 281 280 280 279 279 279 279 279 280 281 282

GFSMW_850_thetae_039.txt.gz
Theta_e
320 320 320 321 322 322 324 325 325 325 325 328 332 336 337 336 337 336 335 332 331 330 329 328 327 325 321 310 310 311 310 310 309 307 303 302 301 300 300 299 298 298 297
316 317 319 319 320 322 324 324 324 325 326 329 331 335 336 335 336 335 333 333 332 331 330 328 327 325 312 310 311 311 310 310 308 303 301 302 301 301 299 299 298 297 296
315 315 315 317 319 320 321 323 324 325 326 328 332 335 336 335 336 334 332 333 332 331 330 328 326 318 309 310 311 311 310 308 306 302 299 300 302 300 299 298 297 296 296
314 314 314 314 315 318 321 322 324 325 327 328 331 330 327 330 331 331 332 333 332 330 329 327 325 309 309 310 310 310 310 307 303 300 298 297 296 296 296 297 296 296 295
314 314 314 314 314 315 319 322 324 326 329 327 330 328 327 325 327 330 331 331 329 328 328 325 313 309 309 310 310 310 309 306 301 298 296 295 295 294 294 295 295 295 294
313 313 313 314 314 314 316 322 324 327 329 328 325 325 325 324 327 330 329 329 327 327 324 318 308 308 309 309 309 308 307 303 300 297 296 295 294 294 293 293 293 292 293
313 312 312 313 314 314 315 321 324 327 327 324 324 325 326 325 327 331 329 328 327 324 316 309 308 307 308 308 308 306 304 301 297 296 295 294 293 292 292 291 291 291 291
312 313 313 313 316 315 316 320 324 325 324 323 325 326 325 324 328 330 329 326 325 322 313 307 307 307 308 307 306 304 301 298 296 295 294 294 293 292 291 291 290 290 290
312 313 313 314 314 317 318 321 324 324 323 324 325 325 323 325 327 328 327 323 320 314 309 307 307 307 307 306 304 302 298 296 295 294 294 293 292 291 291 290 289 289 290
312 313 314 316 314 317 319 321 323 323 322 323 322 319 321 326 327 328 323 321 311 307 307 305 306 306 305 304 302 298 296 295 294 294 293 292 291 290 289 289 289 289 289
313 314 315 316 315 317 321 322 323 321 320 318 317 319 323 326 326 323 318 314 307 305 304 305 305 304 303 302 299 296 295 295 294 292 292 291 290 289 288 288 288 287 287
311 315 315 317 317 320 322 322 321 319 317 313 314 321 323 322 321 315 314 308 306 304 304 304 303 302 301 299 296 295 294 294 293 292 291 290 289 288 287 287 287 287 287
312 315 314 316 319 321 321 319 317 314 311 311 315 321 318 318 314 314 309 304 304 303 303 303 302 300 298 296 295 294 294 293 292 291 290 289 288 287 287 287 287 287 287
314 314 314 314 316 317 317 314 311 308 308 312 316 315 314 314 313 306 303 303 303 302 302 301 300 298 296 295 294 294 293 292 291 290 289 288 287 287 287 286 286 287 286
314 314 313 313 314 314 312 307 304 304 308 312 312 312 310 308 305 302 301 302 302 302 301 300 298 296 294 294 293 292 291 290 289 288 288 287 287 286 286 286 286 286 286
315 312 311 312 311 307 303 301 301 304 310 313 311 307 306 303 301 301 302 301 301 301 299 298 296 294 293 293 292 292 290 288 287 288 287 287 286 286 286 286 286 286 286
313 310 309 307 302 301 302 298 301 307 311 311 305 304 302 300 300 301 301 300 300 299 298 295 293 293 292 292 291 290 288 286 287 287 287 286 286 286 286 285 286 285 285
309 308 305 301 299 300 298 299 305 307 307 303 302 301 302 301 300 302 300 300 299 297 294 293 292 292 291 291 289 287 286 285 286 287 286 286 286 286 286 285 285 285 284
308 303 299 297 297 299 299 300 301 302 302 302 302 301 301 302 300 300 299 298 296 294 292 292 291 291 290 289 286 286 285 285 286 286 286 286 286 285 286 286 285 284 284
304 299 298 298 300 297 298 301 301 303 303 300 298 299 299 299 299 298 297 295 295 292 291 291 291 290 288 286 286 285 283 284 285 285 285 285 285 286 286 285 285 284 283
302 302 301 301 301 303 303 300 298 295 296 298 298 298 298 298 297 297 298 292 291 291 290 290 289 287 286 286 284 283 283 284 285 284 284 284 285 285 285 285 284 283 283
300 299 297 297 296 296 297 297 299 298 299 299 299 298 297 298 298 294 291 291 290 290 290 289 287 286 285 284 284 283 284 284 285 284 284 284 284 284 284 283 282 282 283
302 300 301 298 297 299 303 302 300 299 299 298 299 299 298 295 293 291 290 290 290 290 288 286 285 285 284 284 284 284 284 284 284 284 284 284 284 283 282 281 282 282 281
301 301 301 301 300 299 299 301 300 299 300 299 296 295 294 292 290 289 289 290 289 286 285 285 284 283 283 283 283 282 283 283 283 283 283 283 282 281 281 281 281 281 281
298 298 300 300 299 299 299 298 298 297 297 296 295 293 290 289 289 289 290 288 285 285 284 283 282 282 282 282 282 282 282 282 283 283 281 281 280 280 280 280 281 281 282
298 298 298 299 298 297 297 296 295 295 296 295 292 290 289 289 289 289 286 286 285 284 283 282 281 281 281 281 281 282 282 282 281 281 280 280 280 280 280 280 281 282 283

GFSMW_850_thetae_042.txt.gz
Theta_e
320 320 320 321 320 321 323 326 326 326 325 328 334 337 338 337 336 335 333 333 333 331 329 328 328 327 326 323 312 310 312 312 311 310 308 305 304 302 301 300 300 299 298
318 318 319 320 320 321 321 322 325 326 325 325 327 333 336 337 335 335 335 334 333 331 329 328 328 327 326 320 310 310 312 311 311 309 307 303 302 302 302 300 299 298 297
315 316 316 317 319 320 321 322 322 324 325 325 325 330 336 336 336 335 335 334 334 331 330 329 329 328 326 315 310 311 311 311 310 308 305 301 301 301 299 299 298 298 297
314 314 314 315 316 317 319 319 321 323 324 325 327 330 334 336 336 335 334 334 332 331 330 329 328 327 325 313 310 310 310 310 309 307 303 300 298 297 297 297 297 297 296
315 314 314 314 314 314 316 318 319 321 324 325 327 331 333 333 331 332 334 332 329 330 327 328 328 326 319 310 310 310 310 309 308 305 301 299 297 296 296 296 296 296 295
314 314 314 313 313 314 314 314 319 320 323 326 328 332 331 331 331 333 332 331 328 328 325 326 325 323 312 309 309 310 309 309 306 303 300 298 296 295 294 294 294 293 294
313 313 312 312 313 313 314 314 315 322 323 327 330 332 331 330 327 327 328 329 326 324 323 323 321 317 309 309 308 308 308 307 305 302 298 297 296 295 293 292 292 292 293
312 312 312 313 313 314 314 314 314 324 325 328 330 331 329 327 324 324 324 327 326 324 323 321 315 309 308 308 308 307 307 305 303 299 297 296 295 294 293 292 291 291 290
312 312 313 313 314 315 315 315 314 323 326 328 329 328 324 325 325 324 326 327 325 323 321 316 309 308 307 307 306 306 305 303 299 297 296 296 295 294 293 291 290 289 289
312 312 313 314 313 315 315 317 316 321 326 327 326 325 326 326 324 324 327 323 322 318 316 308 307 306 306 306 305 304 302 298 297 296 295 294 294 293 291 290 289 289 288
311 312 313 313 313 315 315 318 319 323 325 324 324 325 326 324 322 324 323 321 317 311 308 306 304 304 304 305 304 302 299 297 295 295 294 294 292 291 290 289 288 287 287
311 311 315 314 313 317 317 320 321 322 323 323 324 324 323 320 322 321 318 315 309 310 304 303 302 304 304 303 301 299 297 295 295 294 293 292 291 290 289 288 287 287 287
311 312 314 314 316 319 320 321 322 321 322 322 322 320 317 319 317 315 311 307 308 307 305 304 306 304 302 300 299 296 295 294 294 293 292 291 290 289 288 287 287 286 286
311 311 314 314 315 319 320 320 319 318 318 318 315 314 314 312 311 308 307 306 305 303 302 303 303 302 299 298 296 295 294 294 293 291 290 289 288 288 287 287 287 287 286
312 312 314 314 315 318 316 315 315 313 313 311 310 309 308 309 308 305 304 306 302 301 302 302 301 299 299 296 294 293 293 292 291 289 288 288 288 287 287 287 287 287 287
313 314 313 313 314 315 312 311 310 309 308 306 303 303 304 304 304 303 301 300 301 301 301 302 299 297 296 294 293 293 292 291 289 287 287 287 287 286 287 287 287 287 286
314 312 311 312 310 307 307 306 304 301 301 299 300 301 303 302 301 302 304 303 300 301 300 298 296 295 294 293 292 292 290 288 287 286 286 286 286 286 285 286 286 286 286
313 310 309 308 307 305 304 303 300 298 297 296 297 299 300 301 301 298 297 297 297 299 299 297 295 293 292 292 292 289 287 287 285 285 285 286 286 286 286 286 286 286 285
306 306 305 304 301 299 297 296 295 295 295 296 299 300 301 300 299 301 298 297 298 298 297 294 292 292 291 291 289 287 286 285 284 284 285 285 285 285 286 286 286 285 285
302 300 298 296 295 294 294 294 294 296 297 299 300 300 302 302 299 298 298 297 298 297 293 292 291 291 290 288 286 286 285 284 283 284 284 284 285 285 286 285 285 285 284
296 296 295 295 294 294 295 297 299 302 303 303 303 303 299 296 297 297 300 298 293 291 291 291 290 288 286 286 286 284 284 284 285 284 284 284 284 285 285 285 285 284 283
300 299 298 297 297 299 301 303 303 304 303 300 295 295 297 298 300 297 293 291 290 290 291 289 287 286 286 285 284 284 285 285 284 284 284 283 284 284 284 284 283 283 283
296 296 296 296 296 302 304 300 296 295 295 296 297 297 297 296 293 291 290 290 290 291 288 286 286 285 284 283 283 283 283 282 283 283 283 283 283 282 282 281 282 282 281
296 296 296 295 295 296 297 298 297 296 296 297 298 295 295 292 290 290 290 290 290 287 286 285 284 283 283 282 282 282 282 282 282 283 283 282 281 281 281 281 282 282 282
295 299 300 299 298 297 296 295 296 297 299 297 295 294 292 290 289 290 290 289 286 286 285 284 283 282 282 282 282 282 282 283 283 283 281 281 280 280 281 282 282 283 283
298 298 298 298 296 296 296 295 296 296 297 297 293 291 290 289 290 290 287 286 285 284 283 283 283 282 282 282 281 282 282 282 281 281 280 280 280 280 281 282 283 283 284

GFSMW_850_thetae_045.txt.gz
Theta_e
320 320 320 320 320 319 320 321 324 328 334 335 335 337 339 338 336 335 334 334 332 331 332 330 328 327 326 326 324 321 310 311 312 312 310 308 306 304 302 301 301 300 299
317 318 319 320 320 320 320 320 322 326 329 335 334 332 335 337 337 335 334 333 333 332 332 330 328 327 326 326 324 313 310 312 312 312 311 306 305 304 302 301 299 299 298
316 316 317 317 318 319 320 320 321 322 326 327 329 332 332 335 335 335 334 334 333 332 332 330 328 328 327 326 324 311 311 312 312 311 310 305 304 302 300 300 299 299 298
314 315 315 315 315 316 317 318 320 321 322 325 325 325 331 334 335 334 334 334 334 333 331 331 328 327 327 325 321 310 310 311 311 311 309 307 303 301 299 298 298 298 297
315 314 314 314 314 314 314 315 316 318 319 321 325 325 325 329 331 333 333 333 331 332 331 330 328 327 326 323 314 310 310 311 311 310 307 305 301 299 298 298 298 297 296
314 314 314 314 313 314 314 314 314 316 318 318 322 325 325 325 329 331 330 331 331 331 330 329 327 324 324 320 312 310 310 310 310 308 306 302 299 298 296 295 296 295 296
313 313 313 312 312 312 313 313 313 314 315 319 318 324 325 326 327 328 328 328 330 331 330 327 325 324 322 314 309 309 309 309 308 306 304 300 298 296 295 294 294 293 294
313 312 312 312 312 312 313 313 314 313 313 317 320 322 325 328 330 328 328 329 329 329 327 326 323 320 313 309 307 308 308 308 306 304 301 298 297 295 294 293 292 292 291
312 311 312 312 313 313 312 313 314 314 314 315 324 324 327 329 328 328 329 329 327 327 326 324 322 314 309 307 306 307 307 306 303 301 299 297 296 295 294 293 291 290 289
311 312 312 313 313 312 311 312 314 315 315 322 325 326 329 329 327 328 327 324 325 324 324 320 314 311 305 305 305 306 305 304 301 299 297 295 294 294 293 292 291 289 288
311 311 311 311 311 311 310 314 314 316 316 323 325 326 329 326 326 326 323 322 323 321 319 316 309 305 302 303 303 303 302 300 298 296 295 294 294 293 292 291 289 288 288
310 310 312 313 313 312 312 315 316 317 320 323 324 326 327 326 325 323 322 322 319 317 314 311 303 301 301 304 305 301 301 298 297 295 294 293 292 291 290 289 288 288 287
312 310 312 312 311 313 316 319 319 320 321 322 325 322 323 323 323 322 320 317 316 313 306 304 304 303 306 307 301 298 297 296 295 294 293 292 291 289 289 288 287 287 287
312 312 311 312 311 313 319 320 319 320 322 323 322 321 321 319 318 317 313 310 309 307 303 301 303 304 299 297 298 295 294 294 294 293 291 289 288 288 288 287 287 287 287
312 313 312 312 313 315 318 319 319 320 321 321 320 319 316 313 311 309 305 303 304 301 301 303 305 304 296 295 296 295 294 293 292 291 289 288 287 287 287 287 287 287 287
312 313 313 313 315 315 316 315 315 313 314 315 314 312 308 306 305 300 300 299 299 301 304 302 296 297 300 294 294 293 293 292 290 289 288 287 286 286 286 286 286 287 287
312 312 312 312 312 312 312 309 308 307 307 307 304 302 300 299 298 299 299 301 301 299 299 301 298 294 293 293 293 292 291 290 288 287 286 286 285 285 285 285 286 286 286
310 309 308 306 304 305 306 304 303 302 302 300 297 296 296 298 298 299 299 299 301 301 298 295 296 293 293 292 292 291 289 288 287 286 285 284 284 284 285 286 286 286 286
305 303 302 301 302 302 301 302 300 299 297 294 296 296 296 298 301 301 301 303 302 299 291 292 293 291 291 291 290 289 288 286 285 284 284 284 284 284 286 286 286 285 284
301 303 303 300 298 295 296 298 295 295 296 297 297 299 301 301 301 303 301 296 292 292 294 291 291 291 289 288 287 286 285 285 284 284 284 283 284 285 285 286 286 285 284
297 296 296 297 296 295 296 296 297 299 299 299 300 300 300 301 300 298 293 296 297 291 290 290 290 288 287 287 285 284 285 285 284 284 283 283 283 284 285 285 284 284 284
295 296 295 297 297 298 299 299 298 299 300 300 300 300 297 294 292 299 296 290 290 290 290 289 287 287 286 285 283 283 283 284 283 283 283 283 284 283 283 282 282 283 283
298 299 299 298 298 298 300 300 300 300 300 299 296 294 295 300 293 290 290 290 290 291 288 286 286 284 284 283 283 282 282 282 283 283 283 283 282 281 281 281 282 282 283
300 299 300 300 299 300 300 300 298 297 295 293 295 297 294 290 289 290 290 290 288 286 286 285 284 284 283 283 283 283 282 282 283 282 283 282 281 281 281 282 283 283 283
298 299 298 298 297 297 295 294 294 294 296 297 293 291 290 289 289 290 289 287 286 286 285 284 283 283 283 283 282 282 282 283 282 282 282 281 281 282 283 283 284 284 284
296 296 296 296 294 294 295 294 294 295 296 294 291 289 289 289 289 286 286 285 285 284 283 283 282 282 282 282 282 282 282 282 281 281 280 280 282 283 283 283 284 284 284

GFSMW_850_thetae_048.txt.gz
Theta_e
318 318 319 319 319 319 320 320 320 321 331 334 334 333 334 334 336 337 336 336 335 333 330 330 330 329 328 326 326 325 324 317 310 311 311 310 307 305 304 303 301 300 300
316 317 318 318 319 319 319 319 319 319 320 329 332 333 331 332 332 333 335 334 334 333 331 330 330 330 328 326 326 325 323 310 311 312 311 309 307 305 303 303 301 300 299
314 314 315 317 317 317 318 319 320 320 319 321 329 332 333 332 332 332 333 335 334 333 330 330 331 331 329 327 326 325 321 310 311 312 311 310 308 305 304 301 300 299 299
314 314 314 314 315 316 316 317 318 319 320 321 326 331 333 332 330 330 330 332 334 333 330 329 331 331 329 327 326 324 317 310 311 311 311 310 309 305 302 300 299 299 298
314 314 314 314 314 314 314 314 315 317 317 319 320 328 333 332 329 327 329 329 332 332 330 328 329 330 329 327 326 324 315 309 310 311 311 309 307 305 302 300 299 298 297
314 314 314 314 314 314 313 313 313 314 315 315 317 320 323 331 332 329 328 327 329 330 329 328 329 331 328 326 325 323 311 309 309 310 309 308 305 303 300 298 298 297 297
312 312 312 313 313 313 313 313 313 313 314 314 314 317 319 320 325 328 327 327 328 328 328 327 327 328 326 326 323 319 312 308 309 308 308 306 304 301 298 297 295 295 295
311 311 311 311 312 312 312 312 312 312 312 313 313 313 316 319 321 325 326 326 326 326 326 326 327 326 324 323 321 314 307 306 306 306 305 303 300 298 297 295 294 294 293
312 311 310 312 312 312 312 312 312 311 311 312 313 313 313 318 319 323 325 326 326 326 326 326 325 322 319 321 315 307 309 303 305 305 305 302 298 297 295 295 293 292 290
313 313 313 313 313 311 311 312 312 310 310 313 313 314 313 318 322 323 326 326 325 325 326 325 324 318 316 311 307 306 306 301 303 301 302 298 296 295 294 293 292 291 290
313 312 310 310 312 311 311 311 310 310 311 314 315 315 318 324 326 324 325 325 324 325 325 324 320 313 309 306 304 302 301 301 302 299 298 295 295 294 293 292 291 290 289
312 312 312 311 312 311 311 311 310 310 314 314 316 317 327 326 325 326 324 324 325 323 322 318 312 306 304 304 300 300 299 299 300 296 295 294 294 293 292 290 290 289 288
312 312 311 312 312 311 311 311 311 317 316 316 318 323 325 324 325 324 322 322 319 318 314 308 306 304 301 304 301 302 303 302 294 295 294 293 293 291 290 289 288 288 287
313 312 312 312 312 312 312 311 312 318 319 320 322 323 322 323 322 321 319 317 315 312 308 305 302 300 299 303 304 300 295 294 296 297 295 293 290 289 288 288 287 287 287
312 312 311 311 312 313 314 314 316 318 318 318 319 320 318 315 316 315 311 309 306 305 302 300 301 303 303 298 299 298 299 297 295 294 291 289 288 287 287 287 287 287 286
310 312 312 312 313 312 312 312 314 312 310 309 311 313 309 310 310 307 304 302 301 300 299 301 302 301 297 297 301 298 293 294 292 290 288 287 287 286 286 286 286 286 287
310 311 311 310 311 309 308 309 308 307 304 305 304 303 307 307 303 300 299 300 300 300 300 299 299 300 303 301 297 297 292 290 288 287 287 286 285 285 284 284 284 285 286
302 305 305 304 305 305 305 305 304 305 304 303 300 299 300 299 297 297 299 299 299 299 301 300 300 297 295 294 291 290 289 288 287 286 285 284 284 284 284 285 286 285 285
300 300 301 302 304 305 304 302 301 301 300 299 297 296 297 297 299 300 300 299 300 300 300 297 294 295 290 290 289 288 287 287 285 285 284 284 284 283 285 285 286 286 285
297 299 300 300 300 299 300 301 299 298 298 296 298 300 300 300 299 299 300 299 299 295 295 294 290 290 289 288 287 286 285 285 285 285 284 283 283 284 285 286 285 284 283
296 296 296 296 296 296 296 297 296 298 299 300 299 298 298 300 300 300 300 299 297 293 289 290 290 289 287 286 285 285 285 284 284 283 283 283 283 284 285 284 283 283 284
295 295 295 294 294 294 295 296 299 299 299 298 299 300 300 300 299 299 297 291 289 289 289 289 288 287 286 285 284 283 283 282 283 283 283 283 283 283 282 282 281 282 283
299 298 298 297 296 297 299 300 299 299 300 299 299 299 298 297 292 290 289 289 289 290 288 286 285 285 284 283 283 283 283 282 283 283 283 283 282 281 281 281 283 283 283
301 301 300 299 299 300 300 301 300 299 299 298 296 297 292 290 289 289 289 290 289 287 286 286 285 284 283 283 283 283 282 283 283 282 282 282 281 281 282 283 284 284 284
302 302 301 300 300 300 300 299 297 295 294 294 293 291 290 289 289 290 290 288 287 287 286 284 283 283 283 283 283 282 282 283 282 282 281 281 281 283 284 284 284 284 284
302 302 301 302 301 299 295 294 294 295 296 293 291 290 289 290 291 289 287 287 285 284 283 283 282 282 282 282 281 281 282 281 280 280 280 282 283 283 283 284 284 284 285

GFSMW_850_thetae_051.txt.gz
Theta_e
318 318 318 318 318 319 318 321 322 320 320 320 332 336 335 334 336 336 335 333 334 333 332 329 326 326 327 327 327 327 325 325 324 314 310 310 309 308 305 304 303 302 301
317 317 318 318 318 318 319 318 319 319 319 319 320 331 333 333 332 332 331 329 332 334 332 331 329 328 328 328 328 327 326 324 323 311 310 309 308 308 306 304 303 302 300
313 313 314 315 316 316 318 318 319 319 319 319 319 324 334 334 333 332 331 331 330 331 330 329 330 329 329 329 328 327 326 324 322 310 310 310 310 307 306 304 303 301 300
312 313 314 314 314 313 314 316 317 317 318 318 318 319 320 327 331 331 330 329 331 331 330 328 330 330 329 330 329 327 326 324 320 310 310 311 310 308 306 304 302 301 300
311 312 313 314 314 314 314 314 315 315 316 317 317 320 323 325 331 331 331 329 329 329 331 330 328 329 328 328 329 328 325 324 319 309 310 310 309 309 306 304 302 300 299
310 311 312 313 314 314 314 314 314 313 313 314 315 316 317 322 327 333 330 331 329 327 328 329 328 327 327 328 329 326 323 322 318 309 309 309 309 309 306 304 301 299 297
312 312 311 311 312 313 314 314 314 314 314 313 313 313 314 316 319 322 328 330 330 328 327 327 328 327 327 327 327 323 323 319 313 310 308 307 306 307 304 301 299 297 297
313 313 313 312 310 311 312 312 312 313 313 312 313 313 313 313 314 318 319 323 328 329 328 327 327 327 327 326 324 321 317 317 307 307 306 305 307 302 301 300 298 296 295
314 313 312 312 313 312 312 312 312 312 311 311 311 311 311 312 313 313 317 320 323 326 328 327 325 325 325 323 321 317 314 310 310 304 308 307 303 299 297 296 296 295 293
314 313 313 312 311 311 312 311 311 312 312 312 311 310 310 313 313 313 314 319 322 324 327 327 326 325 323 321 317 312 309 304 305 307 304 304 302 297 296 295 295 294 292
315 313 312 312 312 312 312 311 311 311 310 310 310 310 312 313 314 314 317 321 324 325 325 325 324 322 321 316 311 309 305 304 303 305 298 296 297 295 294 294 293 292 290
314 312 313 313 312 311 312 311 311 311 311 311 311 313 314 315 316 319 321 322 324 324 324 322 322 320 314 308 307 303 303 303 302 300 299 300 294 294 294 293 291 290 289
312 313 313 313 312 312 311 312 311 311 311 311 316 316 317 318 323 321 321 320 321 320 320 320 317 310 307 304 302 301 301 302 302 302 300 294 297 299 292 290 289 288 288
310 311 312 312 311 312 311 312 313 313 313 313 316 318 319 320 320 320 318 318 319 319 319 313 307 304 301 300 301 300 302 303 300 296 299 302 298 292 289 288 288 287 287
309 309 312 311 312 312 312 313 313 313 314 315 315 315 316 316 316 316 316 316 313 313 311 305 301 300 300 300 301 303 301 298 299 299 295 290 289 288 288 287 287 287 287
304 310 309 309 310 310 309 309 310 309 308 311 311 309 310 310 309 310 308 309 305 301 300 300 300 300 300 302 302 303 301 300 297 291 289 288 287 287 286 285 285 285 286
298 302 304 305 306 307 305 307 307 306 306 305 303 301 301 300 301 299 300 300 299 299 299 299 301 301 301 300 300 299 296 291 288 288 287 287 287 285 285 285 284 285 285
298 299 299 301 303 303 304 306 305 306 308 306 305 302 300 298 298 299 298 298 299 299 300 300 300 300 299 299 295 291 290 288 287 287 287 285 285 284 284 284 285 285 285
298 298 298 298 299 300 301 303 303 305 304 303 302 300 299 299 299 300 301 300 299 300 300 300 300 298 292 289 288 288 287 287 286 285 285 284 284 283 284 285 285 285 285
297 298 298 297 297 297 297 298 297 297 297 296 295 295 295 297 299 299 299 300 299 298 298 295 289 288 288 287 286 286 286 286 285 284 284 283 283 283 285 285 285 284 283
296 296 296 297 297 296 296 297 295 295 296 296 297 297 298 300 300 299 299 300 299 295 290 289 289 288 287 286 285 285 285 284 283 283 283 283 283 284 285 284 283 282 283
295 295 295 295 295 295 295 296 298 297 298 298 299 298 299 299 299 299 296 290 289 288 288 288 287 286 286 285 284 283 283 283 283 283 283 283 283 283 282 281 281 282 282
298 297 296 295 294 296 298 299 298 299 299 299 299 298 298 296 291 289 289 289 289 289 288 287 286 285 284 283 283 283 283 283 283 283 283 282 282 281 281 281 283 283 283
300 300 300 299 299 298 299 300 299 299 299 299 298 294 291 290 289 289 290 289 288 286 286 285 284 284 283 283 283 283 283 282 282 282 282 281 280 281 282 283 283 284 284
301 301 300 300 300 299 299 299 298 297 297 296 293 291 290 289 289 289 288 286 286 286 285 284 284 284 283 283 282 282 282 282 282 282 281 280 281 283 283 284 284 284 284
302 301 300 300 300 300 297 296 296 296 295 293 290 289 289 289 289 287 286 286 286 285 284 284 283 282 282 282 281 281 281 281 280 280 280 281 282 283 283 284 284 285 285

GFSMW_850_thetae_054.txt.gz
Theta_e
318 318 318 318 317 318 318 318 318 319 320 320 320 322 328 334 335 334 333 335 335 333 331 331 327 327 326 324 326 327 327 326 324 321 321 312 309 309 308 306 304 303 302
315 315 315 315 316 317 317 318 318 318 318 318 319 320 321 323 330 333 333 331 332 334 332 331 330 328 326 325 326 327 327 326 323 321 320 309 308 310 309 306 305 303 303
310 311 311 312 312 313 315 316 318 318 318 318 318 318 319 321 325 333 332 331 331 331 332 330 330 329 327 326 327 327 327 326 325 323 318 309 310 310 308 306 304 303 303
310 310 311 313 313 313 313 313 315 317 317 317 317 318 318 319 319 321 329 331 331 330 330 330 329 328 329 327 327 328 327 326 325 324 322 312 310 309 307 306 305 303 302
312 312 310 311 312 313 313 313 313 314 316 316 316 317 317 318 319 321 324 330 332 332 330 328 328 328 328 328 328 328 327 327 326 325 323 313 309 309 308 307 306 304 302
314 313 312 311 311 312 313 313 313 314 314 314 314 314 315 316 317 320 323 325 330 331 330 329 328 327 327 328 328 328 327 326 326 324 319 310 309 309 308 307 305 305 302
314 314 313 313 312 311 311 312 313 313 313 313 313 313 313 314 315 316 318 323 325 328 330 330 328 327 327 327 327 327 327 325 324 322 316 309 308 308 307 306 304 303 300
314 314 313 312 312 313 311 312 312 312 312 312 312 312 312 312 313 314 317 317 319 322 327 328 329 328 326 327 327 327 325 322 321 316 311 310 309 302 304 305 303 300 298
314 315 314 313 312 312 311 312 312 312 312 312 311 311 311 311 311 311 312 314 317 319 321 327 329 329 327 326 326 325 323 321 316 312 307 305 302 305 307 301 298 296 295
314 315 314 312 312 314 312 311 311 311 311 312 312 312 311 311 310 310 312 313 313 316 321 324 325 326 328 326 325 323 320 317 311 306 304 305 305 302 303 299 295 294 293
314 314 313 313 313 313 312 311 312 311 310 310 310 310 310 310 311 312 313 313 314 315 321 325 325 325 325 324 322 319 314 307 304 303 303 303 303 302 296 296 295 298 298
312 312 312 312 312 313 312 311 311 311 311 311 310 310 310 312 313 314 316 316 317 319 321 322 322 322 321 319 315 309 304 302 301 301 303 302 299 300 300 301 301 298 291
309 310 311 311 311 311 311 312 311 311 311 311 311 312 313 316 316 317 319 319 319 318 320 320 319 320 318 314 309 304 302 301 302 302 301 301 301 301 301 299 294 290 288
306 308 310 311 311 311 312 312 312 312 312 313 313 314 314 316 316 317 317 316 315 316 317 316 316 314 309 304 301 301 301 300 300 300 302 301 300 300 292 289 288 287 287
304 309 307 307 309 310 310 310 311 311 311 311 312 312 312 313 313 313 314 313 314 314 314 311 305 302 301 301 302 300 300 301 301 301 300 300 297 291 288 287 287 286 286
299 304 301 304 305 305 305 307 308 306 306 308 309 309 308 310 310 309 308 306 306 304 303 301 301 300 300 300 300 300 301 300 300 300 295 288 287 287 287 285 285 284 284
299 299 299 303 304 304 304 305 304 304 303 302 302 302 303 305 304 304 302 302 302 300 299 299 299 300 300 300 300 300 300 296 291 290 288 286 286 286 285 285 284 284 284
299 298 298 301 304 303 303 304 302 302 301 300 301 301 301 302 302 301 299 298 298 298 299 300 299 299 300 299 299 298 293 290 289 287 286 286 285 285 284 284 284 285 285
298 298 298 299 301 301 301 301 301 300 299 299 299 299 300 298 300 299 298 298 299 299 299 299 298 298 299 295 291 289 288 287 287 286 285 284 284 284 283 285 285 285 285
297 297 297 297 298 299 299 298 297 297 297 297 297 297 298 298 298 298 298 297 298 299 298 299 297 291 288 287 288 287 287 286 285 284 283 283 283 283 285 285 284 284 283
296 296 296 296 296 296 296 296 296 296 296 295 296 297 298 298 298 298 298 298 299 298 291 290 289 289 288 287 286 285 284 283 283 283 283 283 283 284 284 283 282 282 283
296 295 295 295 295 295 296 299 298 297 298 298 298 298 297 297 297 298 293 289 289 289 289 288 287 286 286 285 284 283 282 283 283 283 283 283 282 282 281 281 281 282 283
300 297 295 294 295 298 298 299 297 298 298 298 298 297 296 292 289 289 289 289 289 288 287 286 286 285 284 283 283 283 283 282 283 282 282 282 281 281 281 283 283 284 284
301 300 298 299 299 299 299 299 298 298 298 298 295 291 290 289 289 289 289 288 287 286 286 285 284 284 284 283 283 283 282 282 282 282 281 280 281 282 283 283 284 284 284
301 301 301 301 300 299 299 299 299 298 296 292 290 289 289 289 289 288 287 287 286 285 284 284 283 283 282 282 282 282 282 282 281 281 281 281 282 283 284 284 284 284 284
302 301 300 299 298 298 298 296 296 295 293 291 290 289 289 289 288 287 286 285 284 283 283 283 282 282 281 281 281 281 281 281 281 281 281 282 283 283 284 284 285 285 285

GFSMW_850_thetae_057.txt.gz
Theta_e
315 316 317 317 317 317 318 317 317 317 320 321 322 324 324 327 331 329 332 332 333 334 334 333 328 322 322 327 327 325 326 326 326 324 322 321 320 312 308 308 307 305 303
311 312 313 313 314 315 316 316 317 317 317 318 319 320 322 323 323 326 330 331 331 331 331 332 331 329 323 325 328 325 325 326 326 324 322 318 316 315 309 308 307 305 303
310 310 311 312 312 312 313 314 316 317 317 318 317 317 319 319 320 321 323 325 328 331 331 329 331 331 330 326 327 326 325 326 326 325 322 318 319 313 310 308 307 305 304
312 312 311 311 311 312 313 313 313 315 316 317 317 317 317 318 318 319 320 320 325 329 331 331 330 329 329 330 328 327 325 325 327 325 324 321 319 313 310 309 308 306 305
313 313 312 312 311 311 312 312 313 313 313 314 315 317 317 317 317 318 319 320 321 324 330 332 330 329 328 328 328 328 326 325 326 326 325 323 319 315 316 309 308 307 306
315 314 313 313 312 311 311 312 312 312 313 313 314 315 315 316 316 317 317 319 319 320 324 330 331 331 328 327 327 328 328 326 326 326 325 325 324 321 316 307 307 307 306
315 315 314 314 314 313 312 311 312 312 312 312 312 312 312 313 313 314 316 320 319 321 322 323 325 329 329 328 327 327 328 326 325 325 323 322 322 319 312 308 306 305 302
315 315 315 313 313 313 313 312 311 311 312 312 312 312 312 312 312 312 312 313 316 318 322 324 325 325 327 328 328 326 326 326 325 323 321 320 316 310 308 307 308 303 302
314 314 314 313 313 313 313 314 311 312 311 311 311 311 311 311 311 311 310 311 311 313 316 321 324 327 328 328 328 325 326 325 324 322 320 318 310 307 306 308 302 304 308
314 314 313 313 313 313 313 313 312 311 311 311 311 311 311 311 311 311 311 310 310 311 313 316 320 323 326 326 327 326 325 322 323 320 317 310 304 305 303 302 304 303 297
312 311 311 311 311 311 312 312 311 311 311 310 310 310 310 310 310 310 310 310 311 312 313 315 319 322 323 324 324 324 324 322 318 314 308 303 301 301 302 300 300 299 298
309 310 310 310 311 310 310 311 311 311 311 311 311 310 310 310 311 313 313 314 315 315 316 316 318 321 322 322 321 321 320 315 311 304 299 299 301 301 300 299 300 299 299
309 310 310 309 310 310 311 311 311 312 312 312 312 312 311 311 311 313 316 316 317 316 315 316 317 318 319 318 318 315 312 306 301 299 299 300 300 300 300 300 299 299 298
305 305 305 307 308 308 309 310 310 311 311 311 312 312 312 311 311 312 315 315 316 316 316 316 316 315 316 313 308 303 301 300 299 299 301 301 300 301 300 299 298 293 289
303 302 305 307 307 306 308 308 309 309 308 309 308 309 310 310 311 313 312 311 311 310 311 311 308 306 305 303 302 300 300 301 302 302 300 300 299 299 299 289 287 287 286
300 304 303 305 305 304 307 308 308 309 308 305 305 303 304 306 305 303 305 304 305 304 304 303 301 297 298 299 301 301 302 301 300 299 298 297 292 288 286 285 285 285 285
301 301 301 302 303 305 305 307 307 306 305 304 302 299 299 300 300 300 301 301 300 298 298 298 300 301 301 300 300 300 300 299 299 297 293 287 286 286 285 285 285 284 284
300 300 300 300 301 302 302 303 303 303 303 302 301 300 298 300 299 298 299 298 298 298 298 298 299 299 299 298 298 299 299 295 289 287 286 286 286 285 284 284 284 285 285
298 298 299 299 299 300 299 299 299 300 300 300 299 298 298 298 297 297 296 296 297 297 297 297 298 299 298 298 296 290 288 287 287 286 285 285 284 284 284 285 285 285 285
297 297 297 298 298 298 296 296 297 298 298 297 298 297 297 297 297 297 297 297 298 298 297 297 297 292 290 289 288 287 287 286 284 284 284 284 284 284 285 285 284 283 282
297 296 297 297 297 297 295 297 297 298 297 297 297 297 297 297 297 298 297 297 297 295 290 289 289 287 287 286 286 285 284 284 284 284 283 283 283 284 283 283 282 282 283
297 295 296 296 296 297 298 299 298 297 297 297 297 298 298 298 297 295 291 289 289 289 288 287 287 286 285 284 283 283 283 283 283 283 283 282 282 281 281 281 282 283 284
298 296 296 296 298 299 299 299 297 296 297 298 298 297 294 290 289 290 290 289 288 287 287 286 285 285 284 284 284 283 283 282 282 282 282 281 281 281 282 283 284 284 284
300 298 298 299 299 299 299 298 297 297 298 297 292 290 289 289 290 289 288 287 287 286 285 285 284 284 283 283 283 282 282 282 282 281 281 281 281 283 283 284 284 284 284
301 302 302 301 300 300 300 299 299 298 294 291 290 289 289 289 288 287 287 286 286 285 284 284 283 283 282 282 282 282 282 281 281 281 281 281 283 283 284 284 284 284 285
301 301 301 300 300 299 298 298 296 293 291 290 289 289 289 288 287 287 286 285 284 284 283 283 282 282 281 281 281 281 281 280 281 281 281 283 283 284 284 285 285 285 285

GFSMW_850_thetae_060.txt.gz
Theta_e
315 315 316 316 317 317 317 317 316 317 318 330 324 331 337 334 330 330 328 332 333 333 333 333 333 332 328 327 327 327 327 323 325 326 326 324 322 321 320 312 308 308 307
311 311 313 315 315 316 316 317 317 317 317 319 327 321 329 333 333 329 327 328 332 331 331 331 332 331 331 327 326 326 328 326 325 326 319 316 316 321 321 316 309 308 307
312 312 311 311 311 312 312 313 314 316 317 317 320 329 330 329 324 322 324 325 326 327 331 330 331 331 330 330 326 323 326 328 325 326 323 319 320 315 318 318 313 308 307
313 313 312 311 311 312 312 312 312 313 315 316 316 322 328 328 320 319 320 321 321 323 326 329 329 331 331 329 329 328 324 328 327 325 326 323 318 316 311 312 310 307 307
314 314 313 312 312 311 312 312 312 312 312 313 314 316 326 326 326 328 322 318 318 319 321 322 328 328 331 330 329 328 327 326 328 326 326 325 323 320 317 310 312 309 309
315 315 314 313 313 313 312 311 312 312 312 312 312 313 314 321 327 324 324 319 320 319 319 322 323 327 328 329 329 329 328 327 328 327 325 325 325 323 321 316 313 313 308
315 315 314 314 314 314 314 313 312 311 312 311 311 312 313 314 323 326 327 325 324 318 318 320 323 324 325 327 329 328 328 328 328 327 327 325 325 324 323 320 318 313 310
315 315 314 314 314 314 314 314 314 312 311 311 311 311 311 311 311 311 312 313 315 315 314 317 321 325 327 327 326 326 328 327 327 327 327 325 324 323 322 322 314 307 305
314 314 313 313 313 313 313 313 314 314 312 311 311 311 311 311 311 311 311 311 310 311 311 312 313 318 324 326 326 327 328 327 327 327 325 325 323 321 319 314 304 304 303
313 311 310 311 312 311 312 312 312 312 312 311 311 311 310 311 311 311 311 311 311 311 310 310 311 313 317 321 324 325 327 326 326 324 322 322 312 312 308 304 303 303 303
310 309 309 310 310 310 310 311 311 311 311 311 311 311 310 310 310 311 311 311 311 310 311 312 313 316 318 320 324 324 325 324 323 321 318 317 315 303 301 300 301 302 302
307 308 309 309 310 310 310 311 311 311 312 312 311 311 311 311 311 311 311 311 312 313 312 314 315 317 319 320 320 321 321 320 318 317 316 309 306 300 300 301 302 303 302
306 305 304 306 309 309 309 309 310 310 311 311 312 312 312 312 311 310 311 312 313 314 314 315 316 316 316 317 318 318 318 316 313 309 303 299 299 301 301 302 302 301 300
304 305 304 307 306 306 308 309 309 309 308 309 309 310 310 309 310 310 310 311 312 312 313 314 314 315 315 315 315 313 309 307 304 301 300 301 301 301 301 300 299 298 297
303 302 303 304 301 302 306 306 306 306 307 308 309 308 308 309 308 307 309 309 307 306 306 307 307 308 307 306 306 305 302 300 301 302 301 300 301 300 299 299 295 291 288
300 300 301 302 301 302 306 306 306 306 306 307 307 305 305 304 305 305 305 304 305 302 301 301 300 298 298 297 297 299 299 299 300 301 300 299 299 297 293 290 289 287 286
301 299 300 301 302 303 305 303 303 303 304 305 305 303 303 301 302 302 301 302 302 300 298 298 298 297 297 298 299 299 300 300 300 299 298 296 291 288 287 287 286 285 284
300 299 298 299 300 301 301 300 300 302 302 302 302 302 301 300 299 299 299 298 297 296 297 297 297 298 298 298 299 298 298 298 295 290 288 287 286 285 285 284 284 285 285
298 299 299 300 299 300 300 298 300 300 300 300 300 299 298 298 298 298 297 297 298 297 297 297 297 297 297 298 295 293 289 288 287 286 285 285 284 284 284 285 285 286 285
298 298 298 298 298 299 297 298 299 298 298 298 298 298 297 297 297 297 297 297 298 297 297 297 296 292 289 287 287 287 286 285 285 284 284 284 284 283 285 285 285 284 284
299 298 298 298 297 297 297 298 298 298 298 298 297 297 297 297 297 297 297 297 295 290 289 288 288 287 287 286 285 284 284 284 284 284 283 283 283 283 283 283 283 282 283
300 298 298 296 296 299 299 298 298 298 298 297 296 297 297 297 295 292 290 290 289 288 287 287 286 285 284 284 283 283 283 283 283 283 283 283 283 282 282 282 282 283 285
300 298 297 296 298 299 299 299 297 297 298 298 297 296 291 290 289 290 289 288 287 286 286 285 284 284 284 283 283 283 283 283 283 282 282 282 281 282 282 284 285 285 285
301 298 297 299 299 299 299 298 298 297 297 296 291 290 290 290 289 288 287 287 287 286 285 285 284 284 283 283 283 283 282 282 282 282 281 281 282 283 284 285 285 285 285
302 301 301 300 300 300 300 298 297 297 294 291 290 290 290 289 288 288 287 287 286 285 285 284 283 283 282 283 282 282 282 282 281 281 281 282 283 284 284 285 285 285 285
304 302 301 301 301 300 300 299 297 293 291 290 290 290 289 288 287 287 286 286 285 285 284 284 283 282 282 282 282 281 281 281 281 281 281 283 284 284 284 285 285 285 285

GFSMW_850_thetae_063.txt.gz
Theta_e
317 317 316 315 316 317 317 318 319 319 320 324 331 336 328 323 330 333 334 338 337 336 335 334 334 332 331 331 330 331 330 326 323 321 318 318 323 324 323 321 316 313 310
316 314 312 312 314 314 315 316 318 318 319 318 322 330 328 322 322 326 330 332 332 334 334 334 333 333 332 332 331 330 330 327 324 322 319 318 318 323 323 321 319 315 311
314 314 314 313 313 313 313 314 315 316 318 318 319 322 331 333 335 330 329 333 332 332 335 334 334 334 333 332 331 331 330 328 325 325 323 321 321 320 317 319 318 315 311
315 314 314 314 314 312 311 312 312 312 313 315 317 318 323 329 332 332 333 332 329 326 325 331 335 334 335 333 332 331 330 328 325 324 325 323 321 320 315 314 314 312 309
316 316 315 315 314 311 311 312 312 311 312 312 312 314 316 321 327 330 329 330 331 332 323 321 323 327 335 334 332 332 330 329 326 324 325 325 323 320 317 315 314 311 310
317 317 316 316 316 314 313 312 311 313 312 311 312 312 313 319 325 327 328 329 330 330 330 325 322 321 323 329 328 331 329 328 327 324 324 325 325 324 322 320 317 315 312
317 317 316 316 316 316 315 314 314 313 312 312 312 311 312 313 318 323 326 328 328 327 326 321 323 322 324 330 329 330 328 326 326 326 324 324 324 322 323 322 318 314 313
317 316 316 316 316 315 315 314 314 314 314 312 311 312 312 311 311 312 315 322 324 325 325 325 316 314 316 320 327 327 328 328 327 326 324 323 324 323 322 322 314 308 308
316 315 314 313 314 312 312 313 313 313 312 312 312 312 312 311 312 312 313 314 316 318 321 323 325 317 318 324 328 327 328 326 325 322 322 322 323 322 321 319 316 315 310
315 313 312 312 310 310 311 311 311 311 311 311 311 311 311 310 310 311 311 311 311 312 313 312 312 311 312 315 323 324 324 322 321 321 321 321 321 320 319 316 317 316 307
313 312 311 309 308 308 309 309 309 310 311 311 311 311 311 311 311 310 311 311 312 312 312 312 312 312 312 313 318 319 319 319 320 321 320 319 319 318 313 313 311 310 301
311 310 308 307 307 307 307 309 309 309 310 310 310 311 311 311 311 310 310 310 311 311 312 313 314 314 315 316 317 317 317 318 317 317 316 316 314 311 311 307 305 303 304
309 308 307 306 305 305 306 307 309 309 309 309 309 310 311 311 311 311 310 310 310 310 310 312 313 313 313 313 314 315 315 316 315 313 311 310 308 306 303 304 304 303 303
308 307 306 305 304 304 306 306 308 308 309 309 308 309 309 310 309 308 308 308 310 311 311 311 311 311 311 311 312 313 310 310 308 305 303 303 302 302 302 302 302 301 300
306 304 305 304 304 304 305 304 305 307 307 307 306 304 306 307 308 308 309 309 307 308 307 308 308 305 304 303 304 304 303 301 301 299 299 300 301 301 301 300 298 298 296
304 302 302 302 303 303 303 303 302 304 305 305 302 303 303 306 306 305 305 304 304 304 302 301 300 301 299 298 298 298 298 298 299 299 300 299 299 298 298 297 294 289 287
303 302 301 301 301 301 302 301 300 302 304 303 303 303 303 304 303 303 303 301 301 300 299 298 299 299 298 297 297 298 298 298 298 298 298 298 296 291 289 287 286 285 285
302 300 300 299 299 299 299 299 300 302 302 302 302 302 301 302 300 299 299 298 298 298 298 298 298 298 297 297 296 297 298 298 297 292 288 287 287 287 286 285 285 285 285
301 299 298 300 299 298 298 299 299 300 300 301 300 300 300 299 298 298 298 298 298 297 297 297 297 297 298 298 296 291 288 287 287 287 286 286 285 285 285 285 286 286 286
299 298 298 299 299 298 297 297 299 300 299 299 300 299 298 298 297 296 297 297 297 297 296 296 292 290 288 287 287 286 286 286 285 285 285 285 284 284 284 285 286 285 284
299 298 297 299 298 297 298 298 299 299 298 298 298 298 298 297 297 297 296 294 291 289 289 288 288 288 287 286 286 285 285 285 284 284 284 283 284 283 283 283 283 284 283
299 298 298 298 298 299 298 299 299 299 298 297 298 297 296 296 292 290 289 289 288 288 287 287 286 285 285 285 285 284 284 284 283 283 283 283 283 282 282 282 282 283 285
299 298 299 298 299 300 299 299 298 299 299 298 297 294 290 290 290 289 288 288 287 287 286 286 285 285 285 284 284 283 283 283 282 282 282 282 282 282 282 283 285 285 285
300 298 299 299 301 299 299 298 298 298 298 296 291 290 290 290 289 288 288 287 286 286 285 285 285 284 284 284 284 284 283 283 283 282 282 282 282 283 284 285 285 285 285
301 297 299 301 301 300 298 298 298 298 295 291 290 290 290 289 288 288 288 287 286 286 285 285 284 284 284 284 283 282 282 282 282 281 282 282 283 284 284 284 285 285 286
303 301 301 301 301 301 300 299 297 295 291 290 290 291 290 289 288 288 287 286 286 286 286 285 285 284 284 283 282 282 282 281 281 281 281 282 283 284 284 284 285 285 286

GFSMW_850_thetae_066.txt.gz
Theta_e
317 317 317 317 318 318 319 320 320 321 321 326 332 336 336 331 331 327 334 335 335 335 333 334 333 334 333 331 330 330 331 329 328 325 323 319 317 318 321 322 322 321 319
316 316 315 315 315 314 315 316 317 318 319 319 320 325 329 332 328 326 324 327 332 335 335 334 333 331 332 332 331 331 331 329 329 326 322 318 316 318 321 322 322 321 321
315 314 314 313 313 312 313 315 316 316 318 318 319 319 320 325 332 327 322 320 323 329 331 334 335 335 333 333 332 331 331 330 329 328 324 319 320 321 321 322 322 319 319
314 314 314 314 313 312 312 312 312 313 314 317 318 318 319 321 331 331 328 327 327 327 326 330 331 335 334 333 333 332 331 330 329 328 325 323 322 321 319 319 317 316 314
315 315 315 315 315 312 311 312 312 312 312 312 312 313 316 318 321 326 330 332 332 329 330 330 329 329 330 332 332 331 330 331 330 328 327 325 323 320 319 319 317 312 310
317 316 316 316 316 315 314 313 312 313 312 312 311 311 312 312 314 318 324 327 328 329 330 329 329 331 329 328 330 329 330 330 329 329 327 327 325 323 321 315 317 315 311
317 317 316 316 317 316 315 314 314 314 314 312 312 312 312 311 312 317 322 324 326 327 328 327 327 328 327 330 331 327 326 327 327 327 328 326 324 322 323 322 317 316 312
317 316 316 315 315 315 315 314 314 314 314 314 313 313 314 313 312 311 313 318 324 325 324 324 325 326 326 326 327 325 325 325 325 325 325 325 324 323 321 321 320 316 313
316 315 314 313 313 313 312 312 312 312 312 312 313 313 312 312 312 312 312 312 313 315 319 321 323 323 324 321 321 322 321 322 322 323 324 323 322 322 321 319 318 316 312
315 313 312 312 311 310 310 310 310 310 311 311 311 311 311 311 310 310 310 311 311 311 312 312 312 313 314 315 314 322 319 319 320 322 321 321 320 320 320 319 316 314 312
314 312 312 310 309 309 309 309 309 309 310 310 311 311 311 311 311 311 310 310 310 311 311 311 312 312 312 312 313 315 316 315 316 317 317 318 318 318 317 315 312 311 310
312 311 309 308 307 308 308 308 308 308 309 309 309 310 310 310 311 311 310 310 310 310 310 310 310 310 310 310 312 314 313 314 315 315 315 315 314 313 310 309 308 306 306
310 309 308 307 306 306 306 307 307 308 308 308 309 309 310 310 310 309 308 309 309 309 310 310 310 309 310 310 310 310 312 312 312 312 315 310 308 307 306 305 302 305 303
310 308 307 306 305 305 306 306 307 308 307 307 308 308 308 309 309 308 308 308 308 309 309 308 309 310 311 310 310 310 309 309 308 306 311 305 303 301 301 300 301 300 302
308 306 306 305 304 304 305 305 306 307 307 306 306 306 306 307 308 307 307 307 306 306 305 305 305 305 306 304 304 303 303 302 301 300 300 299 299 298 299 299 299 299 298
307 304 303 303 304 304 305 305 306 306 305 305 304 304 304 304 304 303 302 303 303 304 303 304 302 302 301 299 298 298 298 298 298 299 299 300 298 298 298 295 292 293 289
305 303 302 302 302 303 304 305 305 304 304 303 302 302 301 301 301 300 300 301 301 301 301 300 299 299 298 297 298 298 298 299 298 297 297 297 297 297 294 288 287 286 285
304 303 301 301 302 302 302 303 303 303 302 302 301 301 299 300 299 299 300 300 299 299 299 298 298 298 298 297 298 298 298 298 298 296 292 288 287 286 285 285 285 286 286
303 301 300 300 300 300 300 300 301 301 301 300 299 299 298 299 299 300 299 299 298 298 298 298 297 297 294 291 289 288 288 287 286 286 285 285 285 285 285 284 285 286 286
302 301 300 300 300 300 298 299 299 300 300 299 299 298 299 299 299 299 298 297 297 295 292 290 290 289 288 287 286 286 286 285 285 285 285 284 284 284 284 284 284 285 285
301 299 299 299 300 299 299 299 299 299 299 299 299 299 299 299 298 296 293 290 289 289 288 288 287 287 286 286 285 285 285 284 284 284 284 284 284 283 283 283 283 283 283
302 300 300 299 299 299 300 300 299 298 297 297 298 298 298 294 291 291 290 289 288 288 287 287 286 286 285 285 285 284 284 284 283 283 283 283 282 282 282 282 283 283 285
303 301 301 301 299 300 300 300 299 298 296 298 298 295 291 291 290 290 289 288 287 287 286 286 286 285 285 285 285 284 284 284 284 283 283 282 282 282 283 284 285 285 285
303 301 301 300 300 300 300 300 299 299 298 297 292 290 291 290 289 289 288 288 287 287 286 286 286 285 285 285 284 283 283 283 283 282 282 282 282 283 284 285 285 285 285
303 301 301 301 301 301 301 300 299 298 297 292 291 291 290 290 289 289 288 288 287 286 286 286 286 285 285 284 284 283 283 283 282 282 282 282 283 284 285 285 285 285 285
304 302 302 302 301 301 300 300 299 298 295 291 291 291 290 289 289 288 288 287 287 286 286 286 286 285 285 284 283 283 283 282 282 282 282 283 284 285 285 285 285 285 286

GFSMW_850_thetae_069.txt.gz
Theta_e
317 317 317 317 317 317 319 319 322 322 322 322 325 333 335 332 333 334 333 334 334 333 334 335 334 334 334 333 332 330 330 331 330 329 327 327 325 320 319 318 318 319 321
315 316 316 316 317 317 317 318 319 320 320 320 320 321 325 327 329 329 330 332 330 330 332 334 336 334 333 332 333 332 331 331 330 330 328 325 323 323 320 318 318 319 318
314 314 314 315 315 315 315 314 316 316 317 319 319 319 319 319 321 323 327 328 327 324 327 329 329 330 331 332 329 329 330 330 330 329 328 323 322 322 322 321 319 319 318
314 314 314 314 314 313 313 313 313 314 315 316 317 318 318 319 319 323 331 330 328 326 327 327 328 330 329 331 332 330 330 331 330 330 329 327 325 322 321 322 321 318 317
314 314 314 313 313 312 311 312 312 312 311 312 313 315 317 317 318 319 321 327 331 331 329 328 325 326 327 328 329 330 330 329 328 328 329 328 326 324 321 321 321 320 317
315 316 315 316 316 315 314 313 312 313 312 312 312 311 312 312 312 313 316 319 324 327 328 329 328 327 327 329 328 328 327 327 327 328 328 326 327 325 322 320 318 318 316
317 316 316 316 316 316 315 314 314 314 313 313 312 311 312 311 311 312 312 317 322 325 326 326 326 327 326 327 327 325 325 325 325 326 326 327 326 326 324 321 318 316 316
317 317 316 315 315 315 315 314 314 314 314 314 313 313 312 312 313 312 311 312 316 320 324 324 323 323 324 325 325 326 321 322 322 323 322 323 323 324 324 323 321 317 315
316 316 314 314 313 313 312 312 312 312 312 312 312 312 313 312 312 312 312 312 312 313 314 319 322 322 322 323 319 321 317 319 319 320 320 321 321 321 322 321 319 319 315
315 314 313 313 312 311 311 310 310 311 311 311 311 311 311 312 311 311 310 310 310 310 311 311 312 312 313 314 316 316 315 312 316 317 316 316 318 320 321 320 319 316 313
314 313 312 312 310 310 310 309 309 309 310 310 310 310 310 310 311 311 310 310 310 310 310 310 311 311 311 310 310 310 311 312 313 313 314 315 316 315 316 316 313 312 310
314 312 311 310 309 308 308 308 308 308 309 309 309 309 309 310 310 310 310 310 310 310 310 309 309 309 309 309 309 309 309 311 311 312 313 313 314 313 313 314 310 307 306
313 311 309 308 307 307 307 307 307 308 308 308 309 309 309 309 309 309 308 308 308 309 309 309 310 310 309 310 310 310 310 310 310 311 312 311 310 309 307 310 305 303 302
312 309 308 307 306 306 306 306 307 307 308 308 308 308 308 308 308 308 308 306 307 307 308 309 308 308 308 307 307 307 308 309 309 309 308 307 304 301 303 304 302 301 300
310 308 307 306 305 305 305 306 306 307 307 306 306 306 306 306 307 308 307 307 306 307 306 304 304 305 305 303 304 304 304 305 304 304 303 302 300 300 301 301 299 298 298
309 307 306 305 304 304 304 305 306 305 305 305 305 305 305 305 306 305 305 305 304 302 301 302 303 303 301 299 300 300 301 301 300 300 300 300 299 300 299 299 299 298 295
310 308 305 304 304 304 304 305 304 304 303 304 304 304 304 303 304 303 302 301 299 300 300 301 301 301 300 299 299 299 299 299 299 299 298 298 298 297 296 292 288 286 286
309 306 304 302 302 303 304 304 303 303 303 304 304 303 302 301 300 299 299 299 299 299 300 300 299 299 299 298 296 294 295 295 293 292 289 288 287 287 286 286 286 286 286
306 304 303 302 301 302 302 302 302 302 303 303 302 301 300 300 299 299 299 298 298 299 299 298 292 290 289 288 288 288 287 287 286 286 286 286 285 285 285 284 285 285 285
306 304 302 301 300 301 301 301 301 301 301 301 301 300 300 299 299 299 298 298 295 291 290 290 289 288 287 286 286 286 285 285 285 285 285 284 284 284 284 283 283 284 284
305 303 301 301 300 300 300 299 300 301 300 300 299 299 298 298 298 296 291 290 289 289 288 288 287 287 286 286 286 285 285 285 284 284 284 284 283 283 283 283 283 283 283
305 303 301 301 300 300 299 299 300 300 300 300 299 298 298 296 292 290 290 289 288 288 287 287 287 286 286 286 286 285 285 284 284 284 283 283 283 283 283 283 283 284 285
304 302 302 302 301 300 301 301 300 299 299 299 298 297 294 291 290 289 289 289 288 287 287 287 287 286 286 286 285 284 284 284 284 283 283 283 282 282 283 284 285 285 285
305 305 303 301 301 301 302 301 301 299 299 299 298 292 291 291 290 289 289 288 287 287 287 287 286 286 286 285 285 284 284 284 283 283 283 283 283 283 284 285 285 285 285
306 304 303 302 302 303 302 301 300 300 299 297 292 291 291 291 290 289 288 288 287 287 287 287 286 286 285 285 285 284 284 284 283 283 283 283 283 284 285 285 285 285 285
307 305 303 303 303 303 302 301 299 299 298 294 291 291 291 290 289 289 288 288 287 287 287 287 286 286 285 285 284 284 284 283 283 283 283 283 284 285 285 285 285 285 285

GFSMW_850_thetae_072.txt.gz
Theta_e
319 318 317 317 317 317 319 322 323 323 324 325 325 329 336 337 337 337 337 337 337 335 336 335 335 335 335 333 333 333 332 330 331 331 330 328 328 327 327 326 323 320 319
315 316 316 317 317 317 317 317 319 319 320 321 322 324 323 324 329 332 333 333 333 332 332 331 332 333 333 333 332 333 332 331 331 330 330 329 328 327 326 326 325 322 320
315 315 315 316 316 316 316 316 317 318 318 318 319 319 319 320 320 321 324 325 328 333 332 328 327 329 329 330 331 330 330 329 328 329 329 327 326 326 326 325 325 323 319
314 314 314 315 315 315 315 315 314 314 315 316 316 317 318 318 318 319 319 319 320 322 325 326 325 327 328 328 329 329 329 329 329 327 328 329 328 325 323 324 324 322 319
314 314 314 314 314 313 312 312 312 312 312 313 314 315 315 316 317 317 318 319 321 325 326 328 328 327 323 326 326 327 328 328 328 328 327 326 326 327 326 322 323 323 322
314 314 314 314 314 313 312 312 312 312 312 312 311 311 311 312 313 314 314 315 316 318 325 327 327 326 325 327 326 326 326 327 327 326 326 326 327 325 325 324 323 322 322
315 315 315 315 315 315 315 314 314 313 313 313 312 312 311 311 311 311 311 312 313 317 322 325 326 326 326 325 325 325 324 324 323 323 324 324 324 324 323 323 320 320 321
316 316 315 316 315 315 315 314 314 314 313 313 313 313 313 313 312 312 312 311 311 313 317 321 323 324 323 321 323 322 322 319 320 319 321 321 322 321 320 321 321 320 318
316 316 316 315 314 314 313 312 312 312 312 312 312 313 313 313 313 312 312 312 312 312 312 312 314 317 321 322 322 322 321 316 316 315 316 319 318 318 319 319 320 316 316
316 316 315 314 313 312 311 311 310 310 311 311 311 311 311 311 311 311 311 310 310 310 310 311 311 311 312 312 313 313 314 315 315 314 312 312 314 315 315 317 317 317 315
315 315 314 313 312 311 310 310 309 309 309 310 310 310 310 310 310 310 310 310 310 310 310 309 309 310 310 310 310 309 309 309 309 310 311 312 312 313 314 314 313 313 313
315 314 313 312 311 310 309 309 309 308 308 308 308 308 309 309 309 309 309 309 309 309 309 309 309 309 309 309 309 310 310 309 309 309 310 310 311 311 311 311 310 309 309
314 313 312 311 309 308 308 308 308 308 308 308 308 308 309 309 309 309 309 308 307 308 309 309 309 309 310 310 310 310 310 309 309 309 310 310 310 310 309 308 307 305 304
314 313 311 309 308 307 307 307 307 307 307 307 307 307 307 307 308 308 308 308 308 308 308 308 308 308 308 307 307 306 308 308 309 308 307 308 307 306 305 304 303 302 301
313 312 311 309 307 307 306 306 306 306 307 307 307 306 306 307 307 307 308 307 306 306 306 305 305 305 305 304 304 304 305 305 304 304 303 303 302 302 302 301 300 299 300
313 311 309 308 307 306 306 305 306 306 306 306 305 305 305 305 306 306 306 305 304 304 304 304 303 302 302 301 301 301 301 301 301 300 301 301 300 299 299 298 298 298 297
312 310 309 307 306 305 305 305 305 305 305 304 304 304 304 305 305 304 303 303 302 302 302 302 301 301 300 300 300 300 300 300 300 300 300 299 298 297 295 292 288 287 286
312 310 308 306 304 303 304 304 304 304 303 303 303 304 303 303 303 302 301 301 301 300 300 299 299 298 296 292 290 290 290 290 290 289 288 288 287 287 287 286 286 286 286
312 310 307 305 303 302 302 303 303 303 303 303 303 303 302 301 301 300 300 300 299 299 298 292 289 289 289 288 288 288 287 287 287 287 287 286 286 285 285 285 285 285 285
311 308 305 303 302 301 302 302 302 302 302 302 302 301 301 300 300 299 299 298 294 290 290 289 288 288 287 287 287 287 287 286 286 286 285 285 285 284 284 284 283 283 284
309 306 304 302 301 301 301 301 301 301 301 301 301 300 300 299 299 298 293 290 289 289 288 288 287 287 287 287 286 286 286 285 285 285 284 284 284 283 283 283 283 283 283
307 304 303 302 301 300 300 300 299 300 301 300 299 299 300 299 296 291 290 289 289 288 288 287 287 287 287 287 286 286 285 285 284 284 284 283 283 283 283 283 283 284 285
307 304 303 302 301 301 300 300 300 301 301 299 298 299 299 295 291 290 290 289 288 288 287 287 287 287 287 287 286 285 285 285 284 284 284 283 283 283 283 284 285 285 285
308 306 304 304 303 303 301 301 301 300 299 299 299 298 295 291 291 290 289 289 288 288 287 287 287 287 287 287 286 286 285 285 284 284 283 283 283 283 284 285 285 285 285
308 307 306 305 304 303 302 302 300 300 299 299 298 295 291 291 290 289 289 288 288 287 287 287 287 287 287 287 286 286 285 285 284 284 284 283 283 284 285 285 285 285 285
308 308 306 303 303 303 304 302 301 301 300 300 298 292 291 291 290 289 289 288 288 287 287 287 287 287 287 286 286 285 285 284 284 284 284 283 283 284 285 285 285 285 285

GFSMW_850_thetae_075.txt.gz
Theta_e
319 318 317 318 320 321 325 327 330 332 335 338 339 339 339 338 338 338 337 337 338 338 337 337 336 336 335 335 335 334 333 333 332 331 331 330 330 329 328 327 327 327 326
318 318 318 317 317 317 318 321 322 323 324 326 327 329 329 330 331 334 336 336 335 333 332 332 332 332 332 332 333 333 333 332 332 331 330 330 328 327 327 328 327 327 326
317 316 316 316 316 316 316 316 317 318 319 319 320 321 322 323 324 323 323 325 330 333 334 334 333 333 329 327 329 331 331 332 332 331 329 328 327 327 326 326 326 325 325
315 315 315 315 315 315 315 315 315 316 316 316 316 317 317 318 318 319 319 319 319 319 320 324 327 325 324 327 327 327 328 330 330 331 329 329 328 327 326 326 325 324 324
314 314 314 314 314 315 315 315 314 314 314 313 313 313 314 315 315 316 316 317 318 318 318 319 322 324 325 327 326 324 325 326 327 327 327 326 326 325 326 322 323 322 322
314 313 314 314 314 314 314 313 312 312 312 312 312 312 311 312 312 313 313 314 314 315 316 319 323 327 324 325 324 323 325 325 325 324 324 324 323 322 323 322 321 321 320
313 314 314 314 314 314 313 313 312 312 312 312 312 312 311 311 311 311 311 311 311 312 313 317 320 325 327 327 327 326 324 325 324 322 322 321 323 324 324 321 321 319 321
313 314 314 315 314 315 315 314 314 313 313 313 313 313 313 313 312 312 312 312 311 311 312 314 319 322 324 324 324 324 324 323 321 322 318 320 320 320 319 319 318 317 316
314 315 315 315 315 315 314 313 313 312 312 312 312 313 313 313 312 312 312 312 312 312 312 312 312 313 315 318 321 322 323 323 322 320 315 316 316 316 316 316 315 315 316
315 315 316 315 314 313 312 312 311 311 311 311 311 311 311 311 311 311 311 311 311 310 310 310 310 310 311 311 312 312 312 312 312 312 312 313 313 311 311 313 313 314 315
316 316 315 314 313 312 312 311 310 310 310 309 310 310 310 310 309 309 309 309 310 310 310 309 309 309 309 309 309 309 309 309 309 309 309 309 310 310 310 311 311 311 311
316 315 314 314 313 312 311 310 310 309 309 308 308 308 308 309 309 309 309 309 309 309 309 309 309 309 309 309 309 309 309 309 309 309 308 308 309 309 309 309 309 309 308
315 314 313 313 312 311 310 309 308 308 308 308 308 308 308 308 308 308 308 308 308 307 307 308 308 308 309 309 309 309 310 309 309 309 308 308 308 309 308 308 306 306 306
314 314 313 312 311 309 308 307 307 307 307 307 307 307 307 307 307 307 307 308 308 307 307 307 307 307 308 307 307 307 308 308 308 307 305 305 306 306 305 304 303 304 303
314 314 313 312 310 308 308 307 306 306 306 306 306 306 306 306 306 306 307 307 307 306 305 305 305 305 304 304 304 304 304 304 304 304 303 303 302 301 300 301 301 301 300
314 313 313 311 310 309 307 306 306 306 306 306 305 305 305 305 306 306 306 305 305 304 304 304 303 302 303 303 302 301 301 302 302 301 301 300 300 300 299 299 299 299 299
312 313 313 312 310 308 307 306 305 305 305 305 305 304 304 304 305 304 304 303 303 303 302 302 301 302 301 300 298 298 297 297 297 298 297 296 295 294 292 289 288 288 287
311 313 313 311 308 307 305 304 304 304 304 304 304 303 303 304 303 303 302 301 301 301 300 300 299 296 291 290 289 289 289 288 288 288 288 288 287 287 287 286 286 286 285
312 313 312 311 308 305 304 303 303 303 303 303 303 303 303 302 301 301 301 300 300 300 297 291 290 289 289 288 288 288 287 287 287 287 287 287 286 285 285 285 285 285 285
312 313 310 308 305 304 303 302 302 302 302 302 301 301 302 300 300 300 299 299 298 293 290 289 289 288 288 288 288 287 287 287 287 287 286 286 285 284 284 284 284 284 284
312 310 308 306 304 303 302 301 301 301 301 300 300 300 300 300 300 299 299 294 290 290 289 288 288 288 288 288 287 287 287 287 287 287 286 285 284 284 284 284 284 284 284
310 309 308 305 304 302 301 301 301 300 300 300 299 300 299 299 299 298 292 290 290 289 288 288 288 288 288 288 287 287 287 286 286 286 285 285 284 284 284 284 284 285 286
310 311 307 305 304 303 301 301 301 299 299 298 298 298 298 298 297 292 290 290 289 288 288 288 288 287 287 287 287 287 286 286 286 286 285 285 284 284 284 284 285 285 286
310 309 307 306 304 303 302 301 299 298 299 298 297 297 298 297 292 291 290 289 289 288 288 288 287 287 287 287 287 286 286 286 286 286 285 285 285 284 284 285 285 286 286
309 308 308 306 304 303 302 301 300 301 299 298 299 299 298 294 291 291 290 289 289 288 288 288 287 287 287 287 287 286 286 286 286 286 285 285 284 284 284 285 285 285 285
308 308 307 306 304 303 302 301 302 302 302 301 300 299 297 292 291 291 290 289 289 288 288 287 287 287 287 287 287 286 286 286 286 286 285 284 284 284 284 284 285 285 285

GFSMW_850_thetae_078.txt.gz
Theta_e
318 318 321 324 326 331 336 337 338 338 339 339 338 338 338 338 338 338 337 337 337 336 336 337 336 336 336 335 334 334 333 333 332 332 331 330 329 329 329 328 328 328 328
318 318 317 318 319 321 324 330 334 335 335 334 335 336 337 337 337 336 335 336 335 335 335 334 334 332 331 331 331 331 331 332 332 332 329 328 327 327 326 326 326 326 327
316 317 317 317 317 317 318 320 323 324 324 325 329 331 329 329 328 327 328 328 330 332 333 333 333 334 334 333 333 329 327 328 330 330 330 327 326 325 326 326 326 326 326
316 315 315 317 316 316 316 316 316 317 318 318 318 318 318 318 319 321 323 324 323 321 320 320 321 321 327 330 326 325 326 325 325 327 327 326 326 325 324 323 324 324 323
316 315 314 314 315 315 315 315 315 315 315 315 315 314 314 314 315 316 317 317 317 317 317 317 318 320 324 326 327 328 326 325 325 326 325 327 324 323 325 324 322 321 321
316 315 313 313 314 314 314 314 314 314 313 313 312 312 312 312 312 312 313 313 314 314 315 315 316 318 320 325 328 325 326 324 326 325 325 322 321 321 321 321 320 319 319
315 314 313 313 314 314 314 313 313 312 312 312 312 312 312 311 311 311 311 311 311 311 311 312 312 314 316 321 325 326 326 326 324 325 323 320 321 318 319 319 318 318 318
313 313 313 314 314 314 314 313 313 313 313 313 313 312 312 312 312 312 312 312 312 311 311 311 312 316 320 324 325 326 327 325 323 322 322 321 321 316 319 317 319 316 316
311 312 314 314 314 314 314 314 313 313 313 312 312 312 312 312 312 312 312 312 312 312 312 312 312 312 312 314 317 320 321 321 320 320 321 321 317 316 316 316 315 315 312
311 313 314 315 315 314 314 313 312 312 311 311 311 311 311 311 311 311 311 311 311 311 311 311 310 310 310 310 311 312 313 315 315 314 313 311 311 312 312 310 310 311 311
312 314 315 315 314 313 313 312 312 311 311 310 310 310 310 310 309 309 309 309 309 309 309 309 310 309 309 309 309 309 309 309 309 309 309 309 309 309 309 309 309 309 309
314 315 315 315 314 313 312 311 311 311 310 309 309 309 308 308 308 308 308 309 308 308 308 308 308 308 308 308 308 308 308 309 309 309 308 308 307 307 307 307 308 308 308
314 315 314 314 313 312 311 310 310 310 309 309 308 308 308 308 308 308 307 308 308 308 308 307 307 308 308 308 308 309 309 309 309 308 308 307 307 307 307 307 306 304 305
315 314 314 313 312 312 310 310 309 308 308 308 307 307 307 307 307 306 307 307 307 307 307 307 307 307 307 307 307 307 307 308 307 307 306 304 305 306 305 304 303 303 302
314 314 314 313 312 311 310 309 308 308 307 307 306 306 306 306 306 306 306 306 306 306 305 305 304 304 304 305 305 305 305 305 305 304 304 303 303 302 301 301 300 300 300
314 314 313 313 312 311 310 308 307 306 306 306 306 306 306 305 305 305 304 305 305 304 304 303 303 303 303 302 302 302 303 303 302 302 301 301 300 299 298 297 296 294 292
313 313 313 313 313 311 309 308 307 305 305 305 305 304 304 304 304 304 303 303 302 302 302 302 301 301 301 299 298 296 294 293 292 292 291 290 289 288 288 288 287 287 287
312 313 312 312 312 310 308 306 305 304 304 304 304 304 303 303 302 302 302 301 301 301 300 300 299 294 290 289 289 289 289 289 289 289 288 288 288 288 287 287 286 286 286
311 310 311 312 312 310 308 306 304 304 303 303 303 302 302 302 301 301 301 300 300 299 299 293 290 289 289 289 289 289 289 288 288 288 287 287 287 286 286 286 286 285 285
310 311 312 312 311 309 306 304 303 303 302 302 302 301 300 300 301 300 300 299 298 297 290 289 288 288 289 289 288 288 288 288 288 288 287 287 287 286 285 285 285 285 285
311 311 313 311 308 306 304 303 302 302 302 301 301 299 298 298 298 299 299 298 295 290 289 288 288 288 288 288 288 288 288 288 288 288 287 287 286 286 285 285 285 285 285
311 312 310 309 307 305 303 302 302 301 301 300 300 297 297 297 299 298 298 294 290 289 289 288 288 288 288 288 288 288 288 288 288 287 287 286 286 286 286 285 285 285 286
311 310 309 307 306 305 303 302 301 301 300 299 297 297 296 297 298 298 294 290 289 289 288 288 288 288 288 288 288 288 288 288 287 287 286 286 286 286 286 286 285 286 286
310 308 308 307 305 304 304 302 301 300 299 299 297 297 297 298 298 296 291 289 289 289 288 288 288 288 288 288 288 288 287 287 287 287 286 286 286 286 286 285 286 286 286
309 308 308 307 305 304 304 303 301 300 299 298 297 296 297 298 298 292 290 290 289 289 288 288 288 288 288 288 288 287 287 286 286 287 286 286 286 286 285 285 285 285 286
313 310 308 307 306 305 304 303 302 301 301 300 298 299 299 299 296 291 290 290 289 289 289 288 288 288 288 288 287 287 287 287 287 287 286 286 286 285 285 284 284 284 284

GFSMW_850_thetae_081.txt.gz
Theta_e
319 317 323 333 334 334 335 337 337 338 339 339 338 338 337 338 337 337 337 337 337 337 336 335 335 336 335 335 335 334 333 331 330 332 329 328 328 328 326 326 327 325 326
319 317 317 321 331 333 331 332 335 336 337 337 337 337 336 335 334 336 337 337 336 335 334 333 333 333 333 332 331 331 331 331 331 330 330 328 326 325 324 325 326 326 326
318 317 317 317 319 323 324 326 329 334 335 333 332 331 331 330 331 332 331 330 330 331 330 330 330 331 331 331 332 333 333 332 327 325 329 326 326 325 324 324 323 324 324
318 317 316 317 317 317 318 319 321 325 326 325 326 326 325 325 323 321 321 323 325 327 326 324 322 320 320 321 322 329 330 327 326 325 323 324 327 327 324 323 322 322 321
316 317 317 316 316 316 316 316 317 318 318 318 317 317 316 316 315 315 316 317 318 318 319 318 317 317 317 319 322 326 327 328 327 325 323 323 324 323 321 322 321 319 319
317 317 317 315 314 315 315 315 315 315 315 315 314 314 314 313 312 312 312 313 313 314 314 314 315 315 316 317 320 325 329 328 326 325 324 326 325 322 322 319 319 318 317
316 315 316 315 314 314 314 314 314 314 314 314 313 312 312 311 311 311 311 311 311 311 311 311 311 312 312 313 315 319 327 328 327 325 324 323 322 322 322 322 318 318 315
312 314 315 315 314 314 314 314 314 314 313 312 312 312 312 312 312 312 312 311 311 311 311 311 311 311 312 314 318 322 325 324 323 324 323 322 322 321 320 317 316 316 315
311 312 313 313 313 313 313 313 313 313 313 313 312 312 312 312 312 312 312 312 312 312 312 312 312 312 312 312 314 317 321 322 320 319 318 318 317 318 318 315 316 316 312
310 310 311 313 313 314 314 314 313 313 312 312 311 311 311 311 311 311 311 311 310 310 311 311 311 310 310 310 311 312 313 314 317 317 317 316 315 312 310 311 311 309 309
309 310 312 314 314 314 314 313 312 312 312 311 311 311 310 310 310 309 309 309 308 308 308 309 309 309 309 309 309 309 309 309 310 309 309 309 309 309 309 308 308 308 308
310 311 313 314 314 314 313 312 312 311 311 311 310 310 309 309 308 308 308 308 308 308 308 308 308 308 308 308 308 308 308 308 308 308 309 308 307 307 306 306 306 307 307
311 313 314 314 314 314 312 312 311 311 310 310 309 309 308 308 308 308 308 307 307 308 308 308 308 307 307 307 308 308 308 308 309 309 308 307 307 306 306 306 306 306 306
312 314 314 314 314 313 312 311 310 310 309 309 308 308 307 307 307 307 307 307 307 307 307 308 307 307 307 307 307 307 307 307 308 308 307 305 304 305 306 305 305 304 304
313 314 314 314 314 313 312 311 310 309 308 308 307 306 306 306 306 306 306 306 307 306 306 306 305 305 305 305 306 306 306 306 306 306 305 305 304 304 304 303 302 301 301
313 314 315 314 314 313 313 311 309 308 307 307 306 306 305 305 305 305 305 305 305 306 305 304 303 302 303 304 304 303 303 303 303 303 303 303 302 299 295 294 291 289 289
313 314 315 314 313 313 312 311 309 307 306 306 305 305 305 304 304 304 303 303 303 303 303 302 302 302 302 301 302 301 299 297 295 293 291 290 290 290 289 288 288 288 287
311 314 314 313 313 312 311 310 308 307 306 305 305 304 304 304 303 303 302 302 302 301 300 300 300 299 294 290 290 290 290 289 289 289 289 289 289 289 288 288 287 287 287
312 313 312 312 312 312 311 310 308 306 305 304 304 304 304 303 302 300 300 300 300 300 299 298 292 289 289 289 289 289 289 288 289 289 289 289 288 288 287 287 287 287 286
309 311 312 310 311 312 311 309 307 305 304 303 303 302 302 301 299 299 299 299 299 298 295 289 289 289 288 288 288 288 288 288 288 288 289 288 287 287 287 287 287 286 286
308 310 310 311 312 311 309 307 305 304 303 302 302 301 300 298 298 298 299 299 298 295 289 288 288 288 288 288 288 288 288 288 288 288 288 287 287 287 287 287 287 286 286
309 311 311 312 311 309 307 305 304 303 302 301 301 300 298 297 297 297 298 298 297 291 289 288 288 288 288 288 288 288 288 288 288 288 288 287 287 287 287 287 287 287 287
310 311 311 310 309 307 306 304 303 301 301 300 300 299 297 297 296 297 298 297 292 290 289 288 288 288 288 288 288 288 288 288 288 288 288 288 287 287 287 287 287 287 287
309 309 309 309 308 307 306 304 302 301 300 300 299 297 297 296 296 297 298 294 290 289 288 288 288 288 288 288 288 288 288 288 288 288 288 287 287 287 286 286 286 286 286
310 309 309 308 309 307 306 304 303 301 300 300 299 297 296 296 297 298 297 291 289 289 288 288 287 288 288 288 288 287 287 287 288 287 287 287 287 286 286 285 285 285 285
311 312 310 309 307 307 306 304 303 302 301 300 299 297 296 296 298 298 294 290 289 289 289 288 288 287 288 287 287 287 287 287 287 288 287 287 286 286 286 285 285 285 284

GFSMW_850_thetae_084.txt.gz
Theta_e
322 320 317 332 335 333 333 335 337 338 339 339 339 338 338 338 338 337 337 337 337 337 336 336 336 335 335 335 335 335 335 333 331 331 330 331 330 329 328 328 328 326 326
322 320 317 317 331 333 333 331 332 335 336 338 338 338 337 337 337 336 335 336 336 337 336 335 335 334 334 334 333 333 332 332 332 332 332 329 325 325 327 325 325 324 325
322 320 318 316 317 330 331 330 329 330 331 332 334 336 335 333 333 332 331 333 334 333 332 332 332 330 331 332 333 332 332 334 333 331 329 327 325 326 326 325 323 323 322
322 320 318 316 317 317 324 326 328 328 329 331 336 336 335 334 331 329 328 327 325 325 325 326 327 327 326 323 323 325 328 332 333 329 325 325 325 325 324 323 323 321 322
321 317 320 317 317 317 316 318 320 323 328 331 330 328 326 323 320 319 317 316 316 317 318 319 321 321 320 319 319 320 324 328 329 328 327 326 325 324 323 323 323 319 319
320 317 317 317 317 317 316 316 316 318 320 320 318 317 316 315 315 314 314 313 313 313 314 315 316 316 315 315 316 318 321 327 328 329 327 326 325 322 322 320 321 318 320
318 318 315 315 317 317 315 315 315 315 315 315 314 314 314 314 313 312 312 311 311 311 311 312 312 312 312 312 312 313 314 324 325 326 326 326 324 322 322 321 319 318 317
315 317 320 315 315 316 316 315 314 314 314 314 314 313 312 312 311 311 311 311 311 311 311 311 311 311 311 311 311 313 316 321 323 324 324 324 324 321 321 319 317 316 315
312 313 314 313 313 314 313 313 313 313 313 313 313 312 312 312 312 312 312 312 312 312 312 312 312 312 312 312 312 312 315 321 321 321 321 321 320 317 317 315 315 314 313
310 311 311 312 312 313 313 313 313 313 313 313 312 312 312 312 312 311 311 311 311 311 311 311 311 311 311 311 311 311 312 314 315 318 320 317 317 316 316 314 311 311 311
310 310 310 311 311 313 313 313 314 313 313 312 312 312 311 311 311 311 310 310 310 309 309 309 308 309 309 309 310 310 310 310 311 312 314 314 312 309 309 309 309 309 308
310 310 310 311 312 313 314 314 313 312 312 311 311 311 311 310 310 309 309 308 308 308 308 308 308 308 308 308 308 308 308 309 308 308 308 308 308 308 307 307 307 307 307
310 311 311 312 313 314 314 314 313 312 311 311 310 310 310 309 309 308 308 308 307 307 307 307 308 308 307 307 307 307 308 308 308 308 308 309 308 307 306 306 306 306 306
311 312 312 312 313 314 314 313 312 311 311 311 310 309 309 308 307 307 307 307 307 306 307 307 307 307 307 307 307 307 307 308 308 308 308 307 307 306 306 306 306 305 304
312 312 312 313 314 314 314 312 312 311 310 309 309 308 308 307 306 306 306 306 306 306 306 306 306 306 306 306 306 306 306 307 307 307 306 306 305 305 305 304 303 303 302
313 312 312 312 314 314 313 312 312 311 310 309 308 308 307 306 306 306 306 305 305 304 306 305 304 304 303 304 305 305 306 305 305 305 304 304 303 302 301 297 294 291 290
311 312 313 313 314 314 314 313 312 311 309 308 308 307 306 306 305 305 305 304 302 303 304 303 302 302 302 303 302 302 302 302 302 302 299 295 292 290 290 290 290 290 289
310 311 312 313 314 314 313 312 312 310 309 308 307 306 305 305 305 304 303 302 301 300 301 301 301 301 301 300 298 296 293 291 291 290 290 290 289 289 289 289 289 288 288
310 310 311 314 314 314 313 312 311 310 308 307 306 305 304 304 304 303 301 300 300 299 300 300 299 296 291 289 288 289 289 289 289 289 289 289 289 289 289 289 288 288 288
309 309 311 313 314 313 312 311 310 309 307 306 305 304 303 303 303 301 299 299 298 298 299 298 293 289 288 288 288 288 289 289 289 289 289 288 288 288 288 288 288 288 287
308 308 311 312 312 311 311 311 310 309 307 305 304 303 302 302 301 299 298 298 297 298 297 292 289 288 288 288 288 288 288 288 288 289 288 288 288 289 288 287 288 288 287
308 308 310 310 310 311 311 310 309 307 305 304 303 302 301 301 299 298 297 296 296 297 293 289 288 288 288 288 288 288 288 288 288 288 288 288 288 288 288 288 288 287 288
309 308 309 311 311 311 309 307 306 305 304 303 302 301 300 299 297 297 296 295 296 297 291 289 288 288 288 288 288 288 288 287 287 287 288 288 288 288 287 287 287 287 287
309 310 310 310 309 308 307 306 305 304 303 302 301 301 300 298 297 296 295 296 297 297 290 289 288 288 288 288 288 288 288 287 287 287 287 288 288 287 287 287 287 286 287
309 309 308 308 308 308 307 306 305 304 303 302 301 300 299 297 297 296 296 298 297 292 290 289 288 288 288 288 287 287 288 287 287 287 287 287 288 287 287 286 286 286 286
310 312 312 310 308 309 309 307 304 304 303 302 301 300 299 297 297 296 297 297 294 290 289 288 288 288 288 288 288 287 287 287 286 287 287 287 287 287 286 286 286 286 286

GFSMW_850_thetae_087.txt.gz
Theta_e
324 323 324 325 328 338 340 341 339 339 339 339 339 338 339 340 339 340 341 340 340 338 337 337 337 336 336 336 336 335 335 334 334 333 331 332 331 331 329 328 328 328 328
324 323 323 319 323 332 334 337 335 335 337 340 340 339 339 339 338 338 338 338 338 337 337 337 336 336 335 334 334 335 334 333 333 333 332 330 327 324 324 327 327 327 325
323 324 321 318 317 323 332 333 333 334 336 338 339 337 335 335 338 338 337 337 335 336 336 335 335 335 335 332 332 334 336 334 334 331 330 329 326 325 325 326 325 323 323
324 324 322 319 317 316 326 332 332 332 331 330 328 328 330 334 334 336 334 326 327 329 327 326 326 327 328 329 328 330 334 334 331 329 327 328 328 327 325 324 323 323 322
323 324 322 320 318 316 317 322 329 330 328 329 329 327 326 331 331 327 328 322 319 317 316 316 317 318 320 322 323 322 322 324 329 327 330 329 329 326 324 323 321 321 322
320 323 321 319 320 317 317 317 317 321 324 327 328 330 332 329 325 319 316 315 314 314 314 313 313 314 316 316 316 316 316 321 327 326 327 326 325 326 324 323 321 320 320
319 320 320 319 318 319 317 317 316 316 317 320 323 323 319 316 315 314 314 313 312 312 311 311 311 312 312 312 312 312 313 313 321 322 324 325 323 325 324 321 321 320 319
319 319 320 319 317 317 316 316 315 316 315 315 315 315 314 314 313 313 312 311 311 311 311 311 311 311 311 311 311 311 312 313 318 324 326 324 322 323 322 322 320 319 317
314 316 319 319 316 317 315 315 315 315 314 314 313 313 313 313 312 312 312 312 312 312 312 312 312 312 312 312 312 312 312 313 317 318 321 321 320 320 321 318 316 315 314
313 313 314 319 317 316 315 314 314 314 314 313 313 313 313 312 312 312 312 312 312 312 311 311 311 311 311 311 311 311 311 312 314 318 320 321 319 320 317 316 314 314 312
312 312 312 312 314 314 314 314 314 314 313 313 313 313 312 312 311 311 311 311 311 310 310 310 309 309 308 308 309 309 310 310 311 313 314 315 317 316 315 311 309 309 310
313 312 313 313 312 312 312 313 313 313 313 313 312 312 312 312 311 311 311 310 309 309 309 308 308 308 308 308 308 308 308 308 309 309 310 310 309 308 308 308 308 307 307
313 313 312 312 312 311 312 313 313 313 313 312 312 312 312 311 311 310 310 309 309 308 308 307 307 307 308 308 308 307 307 307 307 307 307 308 308 308 307 307 307 306 306
314 314 313 312 312 312 312 313 313 313 312 312 311 311 311 311 310 310 309 308 308 308 307 307 307 307 308 307 307 307 307 307 307 307 308 308 308 307 307 306 306 306 306
314 314 314 313 313 312 311 312 312 312 312 311 311 310 310 309 309 308 308 307 307 307 307 306 306 307 306 306 306 306 306 306 306 307 307 306 306 306 306 306 305 304 303
312 314 314 314 313 312 311 313 313 312 312 311 310 310 309 309 308 307 306 306 306 306 306 306 305 305 305 304 305 305 304 304 305 305 305 305 305 304 304 304 302 298 295
312 312 314 314 314 313 312 312 312 312 312 311 310 309 309 308 307 306 306 305 305 305 303 303 304 303 303 303 303 303 303 303 303 303 303 302 300 296 292 291 290 289 290
312 312 313 314 314 313 312 311 312 312 312 311 310 309 308 306 306 305 305 305 304 301 301 302 302 301 301 301 301 301 301 300 300 298 294 291 290 290 290 290 290 290 289
311 312 311 313 314 313 312 312 312 312 311 310 309 307 306 305 305 305 304 304 302 300 299 299 300 300 300 300 295 292 291 290 290 290 290 290 289 289 289 289 289 289 289
310 311 311 312 313 313 312 313 312 312 311 310 309 307 305 305 304 304 303 302 300 300 299 298 298 297 293 289 288 288 289 289 289 289 289 289 289 289 289 289 289 288 289
309 309 309 313 313 311 313 313 312 312 310 309 308 306 305 304 303 302 301 299 299 299 297 297 295 292 289 289 288 288 288 288 288 289 289 289 289 289 289 288 288 289 288
307 308 308 310 311 312 312 312 311 311 310 308 307 305 304 303 302 301 299 299 298 297 296 297 295 290 289 288 288 288 288 288 288 288 289 289 289 289 288 289 289 288 287
307 307 308 310 311 310 310 311 311 309 308 306 305 304 303 302 301 300 298 298 297 297 296 296 291 289 288 288 288 288 288 287 288 288 288 289 288 288 288 288 288 288 288
308 308 308 308 309 310 310 309 308 307 306 304 303 303 302 301 300 299 298 298 297 296 296 296 290 289 289 288 288 288 288 288 288 288 288 288 288 288 288 288 287 287 287
308 308 308 308 308 308 307 307 306 305 305 304 302 302 302 301 299 298 298 297 296 295 297 297 290 289 288 288 288 288 288 288 288 287 288 288 288 288 288 287 287 287 287
309 309 309 308 308 308 308 309 308 305 304 303 302 302 302 300 299 298 297 296 295 296 297 293 290 289 288 288 288 287 287 287 287 287 288 288 287 287 287 287 287 287 287

GFSMW_850_thetae_090.txt.gz
Theta_e
324 325 325 327 333 337 339 337 339 339 339 338 338 339 338 337 336 337 337 339 338 338 337 336 338 336 336 336 336 335 335 336 334 333 333 331 328 328 326 328 329 326 327
323 325 324 324 329 332 337 339 337 336 337 338 337 336 335 337 336 336 337 337 336 338 337 337 338 337 337 337 336 335 336 334 334 334 333 330 327 326 324 324 328 327 327
322 324 324 324 325 329 332 335 336 336 334 336 338 335 334 334 335 334 335 335 336 336 335 337 336 336 339 339 338 339 335 332 331 331 331 330 328 326 325 323 323 324 324
321 322 324 323 323 327 329 332 333 333 333 334 334 333 332 331 330 330 331 329 327 330 329 330 331 331 329 328 331 334 336 331 330 329 330 328 328 327 326 323 324 324 323
320 321 322 322 321 320 324 330 332 332 332 333 331 332 329 330 328 327 325 323 326 324 319 318 317 317 317 317 318 320 324 329 331 327 327 325 324 325 325 324 323 322 322
320 321 322 321 319 318 317 319 328 331 331 331 330 328 327 329 325 326 329 326 321 316 315 314 314 313 313 313 314 315 316 316 320 323 323 323 325 323 323 323 322 322 321
319 320 322 321 320 318 317 317 316 318 322 327 329 326 329 330 331 329 323 316 314 314 314 312 311 311 311 311 312 312 312 312 312 316 320 322 321 324 325 322 323 322 321
318 320 322 321 320 319 318 318 316 316 316 318 320 323 325 323 321 317 314 314 313 313 312 311 311 311 311 311 311 311 311 312 312 314 318 320 321 320 320 321 323 320 320
315 319 319 320 319 319 319 317 315 315 315 315 316 317 317 315 314 314 313 312 312 312 311 311 311 311 311 312 312 312 312 312 312 314 317 320 321 318 319 320 317 320 317
314 315 318 318 318 319 317 317 315 315 315 314 314 314 314 314 314 313 312 312 312 311 311 311 311 311 311 311 310 310 310 310 311 311 319 314 318 317 316 317 319 316 315
312 313 313 313 316 316 316 318 318 314 315 314 313 314 314 313 312 312 312 311 311 311 311 311 310 310 309 309 308 308 308 309 309 310 312 316 314 313 315 317 316 315 312
313 313 312 312 313 315 317 319 320 317 314 314 319 314 312 312 312 312 312 311 311 311 310 310 309 309 308 308 308 308 307 307 308 308 309 310 311 312 312 310 308 308 308
313 313 313 313 312 313 314 315 315 315 313 313 313 313 312 312 312 311 311 311 310 310 309 309 308 308 307 307 307 307 307 307 307 307 307 308 308 308 308 308 307 307 307
314 314 313 313 312 312 312 312 313 312 312 313 313 312 311 311 311 311 311 310 310 309 308 308 307 307 307 307 307 307 307 306 306 306 307 307 307 307 307 307 306 306 306
312 313 314 313 312 312 312 312 312 312 312 312 311 311 311 310 310 311 310 309 308 308 307 307 306 306 306 307 307 306 306 305 304 304 306 306 306 306 306 306 306 306 305
312 312 314 314 313 312 312 311 312 312 312 311 311 311 310 310 310 310 309 308 308 307 306 306 306 306 306 306 306 305 303 303 302 303 304 305 305 305 304 304 304 302 302
312 312 312 313 314 313 312 311 312 313 312 311 311 311 310 310 310 309 308 307 307 306 305 305 305 305 304 304 304 304 302 301 301 303 304 303 303 303 302 301 297 292 291
311 311 312 313 313 314 313 312 312 313 312 311 311 310 310 309 309 308 307 306 306 305 305 303 303 303 302 302 302 302 302 301 301 301 301 301 296 292 291 291 290 290 290
311 310 311 312 313 314 313 312 312 313 312 312 312 311 310 309 308 307 306 305 305 304 302 300 299 302 301 300 300 300 300 299 297 295 291 290 290 290 290 290 290 290 290
309 310 311 311 312 314 313 313 312 313 313 312 311 310 309 308 307 306 305 304 303 302 300 299 299 299 299 299 294 290 289 289 289 289 289 289 289 289 289 289 289 290 290
308 309 310 311 312 314 313 313 312 312 312 310 310 309 308 307 306 305 303 303 302 299 299 299 298 298 296 291 289 288 288 288 288 288 289 288 288 288 288 288 289 290 290
307 308 309 311 313 313 313 312 311 310 310 310 309 308 306 305 304 303 302 302 300 299 299 298 297 296 293 291 289 288 288 288 288 288 288 289 288 288 288 288 288 289 289
306 307 308 310 312 312 311 311 310 309 309 308 307 306 305 304 303 302 301 300 298 298 298 297 297 296 291 289 288 288 288 287 288 288 288 289 289 288 288 288 289 289 289
307 307 307 308 309 309 309 309 308 308 308 307 306 305 304 303 302 301 300 299 297 297 297 296 297 296 289 288 288 288 288 288 287 288 288 288 288 288 288 289 289 289 288
307 307 307 308 308 308 308 308 307 306 306 306 305 305 304 303 302 301 299 298 298 297 297 296 296 294 290 289 288 288 288 288 288 288 288 288 288 288 289 289 289 289 288
308 308 307 308 308 308 307 307 307 308 307 306 306 304 304 304 302 300 299 298 297 296 295 294 296 295 289 289 288 288 287 287 287 288 288 288 288 288 288 288 288 288 288

GFSMW_850_thetae_093.txt.gz
Theta_e
324 324 324 329 338 338 338 339 339 338 339 339 341 338 336 336 336 336 337 336 336 334 334 333 334 335 336 335 335 335 334 333 333 334 334 333 332 330 323 325 327 330 325
322 325 324 324 331 338 339 338 339 337 337 337 336 339 336 336 336 336 335 334 336 335 337 338 336 335 336 335 335 336 334 333 332 331 331 328 328 325 326 324 324 328 327
321 323 324 324 325 328 334 336 336 337 337 337 337 337 336 337 335 334 334 334 333 333 333 333 334 338 338 335 334 334 333 332 331 329 329 328 328 326 326 325 325 325 324
321 321 324 324 324 324 326 332 333 334 335 335 336 335 333 333 333 333 333 332 331 331 327 321 322 322 328 335 336 335 332 332 329 328 328 327 328 328 326 325 324 324 324
320 320 322 323 323 323 325 331 334 335 333 335 333 333 334 333 332 330 330 328 325 322 322 322 320 326 322 318 317 318 321 327 328 326 327 327 327 327 325 325 324 323 322
319 319 320 320 322 320 322 327 332 334 335 332 332 332 331 332 331 328 328 328 324 323 321 322 318 315 314 313 313 313 314 315 317 319 326 326 325 323 324 324 323 323 322
319 320 320 320 321 319 318 321 324 330 332 332 332 332 331 330 329 326 327 327 328 328 320 316 314 312 311 311 311 311 311 311 312 312 314 318 323 324 325 324 323 323 322
318 319 320 321 320 319 318 318 318 319 324 329 329 330 330 328 327 329 329 327 320 315 314 313 312 311 311 311 311 311 311 311 311 311 312 312 317 320 320 321 321 322 321
315 318 320 321 322 320 318 317 317 316 316 317 321 326 328 327 327 324 321 317 314 313 312 312 312 311 311 311 311 311 311 311 312 312 312 313 314 316 320 319 319 318 320
315 317 319 320 320 320 320 319 318 316 315 315 316 317 317 316 315 315 313 313 313 313 312 312 311 311 311 311 311 311 310 310 310 310 310 312 313 318 315 318 319 316 317
312 313 314 317 318 319 318 318 316 315 315 314 314 314 314 313 313 313 313 313 312 312 312 311 311 311 311 310 309 309 308 308 308 308 309 310 314 314 315 315 315 315 315
312 312 312 312 313 316 317 317 317 317 316 319 319 315 312 312 313 312 312 312 312 311 311 310 311 310 310 309 308 308 308 307 307 307 308 308 309 311 312 311 313 314 313
313 312 312 312 312 313 315 316 316 316 316 316 318 318 315 314 317 318 318 315 312 310 310 310 310 309 309 308 308 307 307 307 307 307 307 307 308 308 309 309 308 307 307
313 313 312 312 312 312 314 315 315 316 316 317 318 317 316 314 312 312 311 311 310 310 310 310 309 308 308 307 307 307 307 307 306 306 306 306 306 306 306 306 306 306 306
313 312 312 312 312 312 312 313 313 313 313 313 313 312 311 310 310 311 310 310 310 309 309 308 308 307 307 306 306 306 306 306 305 304 303 304 305 305 306 306 306 305 305
312 312 312 312 312 313 312 311 312 312 312 312 312 311 310 310 310 310 310 310 309 308 307 307 307 307 306 306 306 306 305 303 302 302 302 302 304 305 305 305 304 305 304
311 312 312 312 312 312 313 312 312 312 312 312 311 310 310 310 310 310 310 309 308 307 306 306 305 305 305 305 305 304 301 301 300 301 301 301 303 303 303 304 303 303 302
310 310 311 311 312 313 313 313 312 312 311 311 311 310 310 310 309 309 308 308 306 306 305 305 305 304 304 304 302 301 299 300 300 300 301 301 301 300 299 298 295 292 290
310 310 310 310 312 313 313 313 312 311 311 311 311 310 310 310 309 309 308 307 306 305 305 304 301 300 301 301 301 301 301 299 299 299 299 298 295 291 290 290 290 290 290
309 309 309 310 311 312 313 313 313 312 311 311 310 310 309 309 308 307 307 305 304 304 303 300 299 298 298 299 299 299 298 297 295 292 290 289 289 289 289 289 289 289 290
309 308 309 310 311 311 313 313 313 312 312 310 309 309 309 308 307 306 305 304 303 302 300 299 299 298 298 297 296 291 288 288 288 288 289 289 289 288 289 288 289 289 289
307 307 308 309 310 311 313 313 313 312 311 309 309 309 308 307 307 305 304 303 302 301 298 298 298 298 297 295 291 289 288 287 288 288 288 288 289 288 288 288 289 289 289
306 307 308 310 312 313 313 313 312 311 310 309 309 308 308 306 305 304 303 302 301 300 298 298 298 298 297 294 290 288 288 287 287 288 288 288 288 288 288 288 288 288 288
307 306 307 309 311 311 311 310 310 310 309 308 308 307 306 305 305 304 303 301 300 298 297 298 298 297 297 294 289 288 288 288 288 287 287 288 288 288 288 288 288 288 288
307 307 308 307 308 308 309 308 308 308 308 307 306 305 305 304 304 303 302 301 300 298 297 297 297 296 297 293 288 288 288 288 288 287 287 287 288 288 288 288 288 288 288
307 307 307 307 307 307 306 306 306 306 306 305 305 304 304 304 303 302 302 301 300 298 297 296 295 296 296 291 288 288 288 287 287 287 288 288 288 288 288 288 288 288 288

GFSMW_850_thetae_096.txt.gz
Theta_e
324 324 330 335 337 338 338 340 339 339 339 340 339 339 337 336 336 336 336 334 334 334 333 332 333 335 334 334 334 334 333 333 332 331 330 330 329 328 327 324 324 328 328
324 324 325 331 332 335 337 338 338 337 338 338 338 339 339 337 336 336 335 336 336 335 333 333 335 334 334 334 334 333 333 333 332 331 328 328 327 326 326 324 323 324 327
322 322 323 324 330 329 330 334 336 337 337 337 336 337 338 338 336 335 336 336 334 334 334 333 331 331 332 328 331 332 332 331 331 329 329 327 327 326 325 325 325 325 324
321 321 321 322 324 330 332 331 331 332 334 336 336 335 335 335 336 336 335 334 334 333 333 331 330 330 327 321 323 322 332 331 330 328 326 326 328 328 326 324 325 324 323
320 320 320 321 323 324 329 335 336 336 335 336 335 334 333 334 335 336 335 333 333 333 330 330 326 322 322 325 322 325 326 323 322 324 324 325 325 324 326 326 325 324 323
320 320 320 321 322 323 324 332 333 335 336 336 335 334 332 333 332 333 333 333 332 330 327 322 324 321 321 323 320 315 314 314 314 315 318 321 323 325 325 326 326 325 323
318 320 319 319 320 321 321 322 325 332 332 331 330 331 331 332 332 332 331 330 329 328 325 326 324 321 317 315 313 312 311 311 311 311 312 313 314 324 324 322 323 324 324
317 319 319 319 319 319 320 320 320 324 330 331 330 331 330 330 330 330 330 329 328 327 327 326 318 314 312 313 311 311 311 311 311 311 311 311 312 315 319 323 321 323 321
316 317 318 319 319 319 321 322 319 319 320 325 329 329 330 329 329 329 328 327 325 322 321 316 313 312 312 312 311 311 311 311 311 311 311 311 312 313 315 320 320 319 321
314 317 318 318 319 321 321 319 317 316 316 316 319 322 326 327 327 326 325 324 322 318 313 313 313 312 312 312 311 311 311 310 310 310 310 310 310 313 314 314 317 317 317
313 316 318 319 319 320 319 318 317 316 316 316 315 316 318 319 318 317 317 314 313 312 312 312 312 312 311 311 311 310 309 309 309 308 308 308 309 311 311 315 314 316 317
312 312 313 314 316 318 318 318 317 317 317 315 315 314 314 314 314 313 312 312 312 313 312 313 312 311 311 311 310 309 309 308 308 307 307 307 308 308 310 310 311 312 312
312 311 311 311 312 312 314 317 317 316 315 314 315 315 315 315 316 314 315 315 315 314 315 316 315 311 311 310 309 309 308 307 307 307 307 306 307 307 307 308 310 310 310
312 312 312 311 311 312 312 313 316 316 315 315 315 315 315 315 316 318 317 317 314 311 310 311 311 310 309 308 308 307 307 306 306 306 306 306 305 306 306 307 307 307 307
312 312 312 312 311 311 311 312 313 315 315 315 315 315 316 317 318 317 315 311 309 309 310 310 309 309 307 307 306 306 306 306 306 306 304 303 303 303 305 305 305 306 306
311 312 312 312 312 312 311 312 312 313 314 314 314 314 313 312 311 310 310 309 309 310 309 308 307 307 306 306 306 306 306 305 303 301 302 302 301 300 302 304 305 305 304
311 311 311 311 312 311 311 312 312 311 312 312 312 311 311 310 310 310 309 309 309 308 307 307 306 306 306 306 305 305 305 302 301 301 301 300 301 301 302 303 303 303 303
310 310 310 310 311 311 312 312 312 312 311 311 311 311 310 310 310 309 309 309 308 308 307 306 306 305 304 303 304 303 300 299 300 300 300 300 301 301 301 302 302 302 301
310 310 310 310 310 310 311 312 313 312 311 311 311 311 310 310 310 309 308 308 307 307 306 305 304 303 300 299 301 301 299 299 299 299 300 300 299 299 298 295 291 290 290
308 308 308 309 310 310 311 312 313 312 311 311 311 311 309 309 308 308 307 307 306 305 304 303 303 300 299 298 298 300 299 298 298 298 298 297 293 290 289 289 289 289 289
309 308 308 308 310 310 310 312 313 313 312 311 311 310 309 308 308 307 307 306 305 304 303 302 300 299 298 298 297 297 296 292 291 290 289 289 288 288 288 288 288 288 289
307 307 307 308 310 310 311 311 312 313 312 311 310 310 309 308 308 307 306 305 304 303 302 300 298 299 298 297 296 292 290 288 288 288 288 288 288 288 288 288 287 288 289
307 306 308 309 309 309 310 312 313 312 311 310 309 309 308 307 306 306 305 304 303 303 301 298 298 298 298 297 296 291 289 288 287 287 288 288 287 288 288 288 287 287 288
308 307 307 309 310 311 312 312 311 311 310 309 308 308 307 307 306 304 304 303 303 302 300 298 298 298 297 297 296 293 289 288 288 287 287 287 288 288 288 287 287 287 288
308 307 307 307 308 309 310 310 310 309 309 308 307 307 306 305 304 304 303 303 302 301 300 299 298 297 297 297 296 291 288 288 288 287 287 287 287 288 288 288 287 288 288
308 308 307 306 307 307 307 307 307 307 306 306 306 305 305 304 303 302 303 303 303 302 300 298 297 297 297 296 295 289 288 287 287 287 288 288 288 288 288 288 287 287 288

GFSMW_850_thetae_099.txt.gz
Theta_e
324 330 335 338 337 338 339 337 337 337 339 340 339 338 338 337 337 336 335 335 334 334 333 334 333 331 330 332 332 333 333 332 331 330 329 329 328 327 327 326 324 325 325
324 324 327 331 332 336 338 338 338 337 337 337 338 340 338 338 337 336 335 335 335 334 334 333 331 332 332 332 332 332 332 331 331 331 330 328 328 326 325 325 324 323 323
323 323 324 324 327 330 334 335 337 338 338 338 338 338 338 338 338 337 336 335 334 334 335 333 332 331 333 330 329 329 323 321 323 330 329 328 327 326 325 325 324 323 324
322 322 322 322 323 324 324 327 332 332 334 337 337 337 337 337 336 336 335 335 336 335 334 333 332 331 327 328 329 322 322 323 324 321 329 327 325 325 325 325 325 323 323
321 322 322 321 321 322 323 327 328 327 332 332 334 334 336 335 334 333 334 333 334 334 334 333 333 330 330 329 325 324 324 322 319 323 324 323 324 324 325 325 326 324 323
319 320 321 320 320 320 322 325 330 332 331 331 331 332 333 333 333 333 333 333 333 334 333 332 332 330 325 323 323 321 322 320 316 314 314 315 320 319 322 322 323 323 323
318 318 319 320 319 320 321 323 326 330 333 332 333 333 333 331 332 332 332 331 331 331 331 331 329 323 324 323 321 318 314 312 311 311 311 312 313 318 321 318 322 323 322
315 317 318 318 320 319 320 322 322 322 325 327 328 328 328 329 331 331 331 330 330 330 329 328 325 325 325 322 315 312 311 311 311 311 311 311 311 313 314 320 320 321 322
314 315 317 317 319 319 319 319 319 320 321 322 325 328 329 329 329 330 330 329 329 329 327 327 325 324 319 318 313 312 312 311 311 311 311 311 311 311 312 313 319 319 320
315 316 317 317 318 319 319 319 319 318 319 320 321 321 325 328 329 329 330 329 328 327 325 323 321 320 315 312 312 312 311 311 310 310 310 310 310 309 309 313 317 317 317
313 315 317 317 316 317 318 319 320 318 317 317 316 316 316 319 324 326 327 327 325 323 320 315 313 313 313 313 312 312 311 310 310 309 309 308 308 308 308 310 314 314 314
312 313 315 318 318 318 319 319 319 317 317 315 316 315 315 316 318 320 320 318 316 313 312 312 314 315 314 315 316 315 311 310 310 309 308 307 307 307 307 308 309 310 311
311 311 311 312 314 317 319 319 319 318 317 317 316 315 315 315 314 313 313 313 313 312 315 317 316 315 314 313 311 310 310 309 309 308 307 307 306 306 306 306 307 308 308
311 311 311 311 311 311 311 312 314 317 317 316 315 314 314 314 313 313 312 315 316 317 317 317 316 312 309 309 309 309 309 308 307 306 306 306 305 305 305 305 305 307 307
312 312 312 312 312 311 311 311 312 314 315 315 315 315 315 315 314 313 314 317 317 317 315 311 310 309 309 308 308 309 307 307 306 306 305 304 303 302 301 302 304 305 305
312 312 312 311 312 312 312 311 311 312 313 314 315 315 314 313 314 316 316 315 313 311 310 310 309 308 308 308 308 307 307 306 305 304 302 302 301 301 300 300 301 303 304
312 312 312 311 311 311 311 311 311 311 312 313 314 314 314 314 315 314 311 310 309 310 310 309 308 307 306 306 306 306 306 305 303 301 300 300 300 300 300 300 302 303 304
311 310 310 310 311 311 311 311 311 312 312 312 312 312 312 311 311 310 309 309 309 309 308 308 307 306 305 305 304 304 303 300 299 300 300 300 300 300 300 300 301 301 302
309 309 309 310 309 309 309 310 311 312 312 311 311 311 311 310 310 309 309 308 308 308 307 306 306 305 304 302 299 298 299 299 299 299 299 299 299 299 300 299 298 298 299
308 308 308 308 309 310 310 309 310 312 312 312 311 311 310 310 309 308 308 308 307 307 307 306 304 303 302 300 299 297 300 299 298 298 298 298 299 297 295 291 290 290 289
308 308 308 308 308 308 309 309 310 312 312 312 311 311 310 309 308 308 308 307 306 306 305 304 302 301 299 299 298 297 297 298 298 297 296 293 290 289 288 288 288 288 288
308 307 307 307 308 310 310 310 310 312 312 312 311 310 309 308 308 308 307 307 306 305 304 303 302 300 298 299 298 298 298 293 290 288 288 288 288 288 288 288 287 287 288
308 307 307 308 308 309 309 310 311 311 312 311 310 309 308 308 307 307 307 306 305 304 303 303 301 299 298 298 298 298 297 292 290 288 287 287 287 287 288 288 287 286 287
308 307 306 308 310 311 311 310 311 311 311 311 310 309 308 307 307 307 306 305 304 304 303 302 301 299 298 298 298 297 296 293 289 288 287 287 287 287 287 287 287 287 287
307 307 307 307 308 309 310 311 311 310 310 309 308 308 307 307 306 305 304 303 303 303 303 303 301 299 298 298 297 297 296 293 288 288 287 286 286 287 287 287 287 287 287
307 308 307 306 306 307 308 309 309 308 308 307 307 306 306 305 305 304 303 303 303 304 304 301 301 299 298 297 297 296 296 290 288 288 288 288 287 287 287 287 287 287 287

GFSMW_850_thetae_102.txt.gz
Theta_e
331 332 334 335 335 335 333 332 332 328 330 336 336 335 330 336 337 337 336 335 335 334 334 333 333 333 332 330 330 330 330 332 332 330 329 328 328 327 326 325 324 323 322
324 328 332 333 335 334 335 335 335 335 333 333 329 332 331 335 337 336 336 335 335 334 334 334 334 332 330 329 331 331 332 331 331 329 327 326 325 325 325 324 323 323 322
320 323 325 331 333 335 335 335 335 335 335 334 333 331 334 336 337 337 337 336 335 335 334 334 334 332 330 332 333 333 329 328 326 325 325 326 326 326 325 324 323 323 324
320 321 323 324 327 328 330 333 334 335 337 335 334 334 334 334 334 336 334 335 335 336 335 335 334 334 332 329 330 328 328 326 324 325 323 323 324 327 327 323 324 323 323
320 319 322 322 322 323 324 328 333 333 334 335 333 333 333 335 336 334 334 335 336 335 334 333 333 332 332 331 328 328 329 323 323 324 324 321 319 320 323 324 325 323 323
319 319 320 322 322 322 321 322 325 330 331 329 330 332 332 334 333 333 333 333 333 334 334 333 333 333 332 332 329 326 324 323 322 318 314 313 315 316 317 321 321 323 322
319 318 318 319 321 320 319 320 321 323 329 331 332 332 331 330 330 332 332 332 332 331 332 332 332 331 331 326 324 323 321 316 312 312 311 311 311 312 312 317 320 321 318
315 314 316 318 319 320 319 319 320 322 323 325 327 329 328 330 330 331 330 330 330 330 330 330 330 330 325 324 325 318 313 312 311 312 311 311 311 311 311 313 314 316 318
314 314 315 316 317 318 319 319 320 322 323 322 322 324 324 326 327 327 328 328 330 329 329 329 328 326 324 324 322 319 316 313 312 311 311 311 311 310 311 311 311 311 315
315 315 315 315 317 317 318 319 319 320 320 319 320 321 322 324 326 327 328 329 329 330 329 328 327 326 324 322 319 314 313 312 312 311 311 310 309 309 309 309 309 310 314
313 315 316 316 316 317 318 318 319 319 319 319 319 319 318 318 317 318 323 327 328 328 328 326 323 320 315 313 313 314 312 314 314 312 310 309 309 308 308 308 308 308 312
312 313 315 317 317 316 316 317 318 319 319 318 317 316 316 316 316 319 323 325 326 325 322 319 313 312 314 316 315 315 314 312 311 309 309 308 308 308 307 307 307 308 310
311 311 311 312 317 318 318 318 318 318 317 317 317 316 316 315 315 317 319 319 318 315 312 312 314 316 317 316 316 313 310 310 309 309 308 307 307 306 306 306 306 305 306
311 311 311 311 311 311 312 314 316 317 318 317 317 316 315 314 314 314 313 312 312 311 312 315 317 317 316 316 315 310 309 309 308 307 307 306 306 305 305 304 304 304 304
311 311 311 311 311 312 311 311 311 311 313 316 316 315 314 314 314 313 312 312 312 316 317 316 314 312 312 310 310 309 308 307 307 307 305 305 304 302 301 301 301 301 302
312 311 312 311 311 311 311 311 311 311 311 312 315 314 314 314 314 314 312 312 314 316 315 311 309 310 310 309 308 308 307 307 306 306 305 304 301 301 301 301 300 299 302
312 311 311 311 311 311 311 311 311 311 311 311 313 314 314 314 314 313 312 314 315 311 309 309 310 309 308 308 307 306 306 306 305 305 303 301 301 301 301 301 300 300 301
311 311 311 310 310 310 310 311 311 311 311 311 312 313 314 313 313 313 314 313 309 309 309 309 309 308 307 306 305 304 304 304 302 300 300 300 300 300 300 300 300 300 301
310 310 309 309 309 309 309 309 309 310 311 311 312 312 313 313 312 312 310 309 308 308 309 308 308 307 306 304 303 302 300 301 299 299 299 299 299 299 300 300 299 299 300
309 310 309 309 309 308 308 309 309 309 309 311 312 311 312 311 310 309 308 308 308 308 308 308 307 306 305 303 302 300 299 298 297 297 298 297 298 299 299 297 295 294 291
308 308 308 308 308 308 308 308 309 310 309 311 312 311 311 310 309 308 308 308 307 307 307 307 306 305 304 302 300 299 298 298 297 297 296 296 295 293 290 289 289 288 288
308 308 307 307 307 308 309 310 309 309 309 311 311 311 310 310 309 308 307 307 307 307 307 306 305 304 302 299 298 299 299 298 297 293 289 288 288 288 288 288 288 287 287
308 307 306 307 308 308 309 309 309 309 311 311 311 310 309 309 308 307 307 307 307 306 305 305 305 304 302 299 299 299 298 297 297 291 288 288 287 287 287 288 287 286 287
308 307 306 307 309 310 309 309 310 310 311 311 311 310 309 308 308 307 306 306 306 305 304 304 305 303 303 301 299 299 298 298 296 293 289 287 287 287 287 287 287 287 287
307 307 306 306 308 309 309 310 310 310 310 310 310 309 308 307 307 306 306 305 304 304 304 304 304 303 302 300 299 298 298 297 296 292 289 288 287 287 288 287 287 287 287
306 306 306 306 306 307 308 309 308 308 308 309 309 308 307 306 306 306 305 304 303 303 303 303 304 302 302 300 298 298 298 297 296 293 289 288 288 288 288 287 287 287 287

GFSMW_850_thetae_105.txt.gz
Theta_e
332 333 331 331 330 328 328 329 327 326 328 332 334 333 334 333 332 331 330 333 334 334 333 333 333 333 333 332 331 330 331 331 331 331 329 327 326 324 323 320 322 321 322
330 331 331 334 330 329 328 328 328 328 328 329 332 333 333 333 334 334 334 332 333 334 334 333 334 333 332 331 332 331 332 332 331 326 326 327 326 325 324 323 322 322 322
319 325 331 331 333 332 331 328 330 330 328 328 327 328 327 331 334 330 334 333 334 335 334 334 333 333 334 332 331 330 331 330 328 326 325 325 326 324 325 324 324 322 321
320 320 321 330 331 331 333 333 334 333 330 329 330 329 328 327 329 330 327 333 333 333 334 334 334 334 334 334 331 330 330 328 327 326 324 324 325 326 325 323 322 324 324
321 320 320 322 326 330 330 332 333 333 332 327 333 334 331 330 331 328 330 332 332 334 334 335 335 335 333 332 332 329 328 325 325 327 324 323 323 320 322 325 321 322 322
321 320 320 320 322 323 325 329 331 331 332 332 332 333 332 332 332 330 330 332 332 333 334 334 333 332 332 331 332 331 328 324 325 324 322 318 314 312 313 317 318 321 320
318 318 319 320 321 321 321 322 322 324 328 329 331 330 331 331 331 330 330 331 332 331 332 331 332 331 331 331 331 330 325 324 322 320 312 311 311 311 311 312 315 316 318
316 317 319 319 320 322 321 321 319 319 321 324 328 330 330 329 330 330 330 330 330 330 330 330 330 330 331 331 329 325 324 322 314 311 311 312 311 311 311 311 312 314 315
313 315 316 318 319 320 321 320 319 319 320 322 325 326 326 327 325 326 326 327 327 327 330 329 329 329 328 324 324 324 317 314 313 313 312 311 311 311 310 310 311 311 313
314 314 314 315 315 318 319 319 319 319 320 322 322 322 323 324 324 324 325 326 327 327 328 329 329 328 325 324 323 321 320 315 312 312 313 314 313 311 310 309 309 309 311
314 316 315 314 313 315 317 318 318 319 319 320 319 319 320 321 322 322 322 323 326 329 329 329 328 327 326 324 320 315 313 313 313 315 315 312 310 310 309 308 308 308 308
312 315 316 316 315 315 316 316 318 319 319 318 319 319 319 318 317 317 318 321 325 326 327 327 326 323 319 312 312 314 315 315 315 313 311 310 309 308 308 307 307 307 308
310 311 311 316 317 316 315 316 317 318 318 319 318 317 316 316 316 316 318 322 325 325 325 324 318 312 312 315 316 316 315 312 311 310 309 309 308 307 307 306 306 306 306
311 311 311 310 311 313 316 317 317 317 317 317 316 316 316 316 315 315 317 320 321 319 316 312 311 314 316 316 315 313 311 310 310 309 308 307 307 306 306 305 304 303 303
311 311 311 311 311 311 311 311 311 312 314 316 316 316 316 315 314 314 314 314 313 311 311 312 315 316 314 313 311 310 309 309 309 308 307 306 306 305 304 303 301 300 300
312 312 311 311 311 311 311 311 311 311 311 312 314 315 315 314 314 313 312 312 311 311 315 316 315 312 310 310 310 309 308 308 307 306 306 306 304 301 301 301 300 300 300
311 312 311 311 311 311 311 311 311 311 311 311 312 314 314 314 313 313 313 311 311 313 315 313 309 309 309 309 309 308 308 307 306 306 305 302 300 300 300 300 301 300 300
311 311 311 310 310 310 310 310 310 311 311 311 311 312 313 313 313 313 313 312 311 314 312 309 308 308 308 308 308 307 307 306 305 304 300 299 300 300 300 300 300 300 300
310 310 310 310 309 309 309 309 309 309 310 310 311 311 312 313 313 313 312 312 313 311 308 308 308 307 307 307 307 306 305 303 302 300 299 299 300 300 300 300 300 299 299
309 309 309 309 309 309 309 309 309 310 309 309 310 311 311 312 312 312 312 312 309 307 308 308 307 307 306 305 305 304 302 300 298 298 298 299 299 299 299 299 298 296 295
308 308 308 308 308 307 308 308 308 308 309 309 309 311 311 311 312 311 310 308 307 307 307 307 307 306 305 305 304 304 301 299 299 298 298 297 297 297 297 295 290 289 289
309 309 308 308 307 307 307 307 308 309 308 308 309 311 311 311 310 309 308 307 307 307 307 306 306 305 306 305 304 302 300 299 299 298 295 291 289 289 288 288 288 288 288
308 308 308 306 307 308 309 308 309 309 308 308 310 311 310 310 309 308 307 307 306 306 306 306 305 306 305 304 303 301 300 299 299 298 293 290 288 287 287 288 288 287 287
307 307 307 306 307 309 309 308 309 309 309 310 311 311 310 309 309 308 306 306 306 306 306 305 305 304 304 304 303 301 300 299 298 298 295 291 288 287 287 287 287 287 287
306 306 306 306 307 308 308 309 309 309 309 310 310 310 309 309 308 307 306 306 305 305 305 304 304 304 304 303 302 300 300 299 298 297 295 293 289 288 287 288 287 287 287
306 306 306 306 306 306 308 308 308 308 308 309 308 308 308 307 307 306 305 305 305 304 303 303 304 304 304 303 302 300 299 299 298 297 297 295 290 288 288 288 287 287 287

GFSMW_850_thetae_108.txt.gz
Theta_e
331 330 332 332 332 329 329 333 330 332 335 336 336 335 333 331 328 323 323 325 326 329 330 331 331 332 332 332 332 331 330 330 331 330 329 329 326 327 325 323 322 322 319
330 329 331 332 331 331 330 329 329 328 329 330 332 335 335 335 333 332 327 326 327 331 333 333 333 333 333 332 332 332 330 331 330 330 325 327 329 328 325 324 324 323 321
330 330 333 331 329 330 329 328 328 328 327 327 329 331 332 332 333 333 334 334 333 333 334 334 334 334 333 333 333 333 331 330 330 327 326 328 328 327 326 325 324 324 323
323 329 332 331 325 326 329 329 328 328 328 327 326 327 328 327 328 328 331 331 329 332 332 331 332 333 333 334 334 333 331 330 329 326 327 326 325 328 328 326 322 322 321
320 323 328 331 331 329 326 329 330 328 328 327 326 327 327 327 328 328 328 328 329 327 327 327 330 331 334 334 333 332 331 329 328 323 324 326 324 325 327 325 323 320 318
321 320 321 323 328 330 330 331 332 329 331 331 330 326 326 326 328 327 327 327 327 326 328 327 330 332 332 333 332 332 331 330 325 323 324 325 324 323 322 322 321 321 320
320 319 319 319 319 322 329 331 330 332 331 331 332 329 328 330 328 329 327 327 329 329 330 330 331 330 331 332 332 331 332 330 329 326 325 323 317 311 311 312 313 318 318
318 320 319 318 319 320 322 324 327 330 331 331 332 331 331 331 331 331 330 330 329 330 330 330 330 330 331 330 329 331 331 327 325 324 322 313 311 312 311 311 312 317 317
317 320 319 317 318 319 321 321 321 320 321 327 329 329 329 329 329 329 329 330 330 329 329 329 329 329 329 331 330 330 328 324 323 316 312 312 311 311 312 312 311 311 314
314 319 320 317 318 319 319 320 321 319 319 320 322 327 329 329 330 329 328 328 328 328 328 329 329 329 329 330 328 324 324 319 314 314 312 311 313 315 313 311 310 310 310
315 315 314 314 314 317 315 318 319 319 319 319 321 323 324 325 326 325 325 326 327 327 328 329 329 329 329 325 324 322 319 318 314 312 312 314 314 312 310 309 309 309 308
313 315 315 314 313 313 313 316 318 318 319 320 321 320 319 320 321 322 322 323 324 325 327 327 328 328 326 324 322 320 314 312 313 315 314 312 311 310 310 309 308 308 307
310 312 316 316 314 314 314 316 317 317 318 319 318 319 319 319 318 317 317 318 319 322 325 327 326 326 325 322 314 312 314 316 315 312 311 310 309 309 309 308 307 306 306
310 310 310 313 316 316 315 316 316 317 318 318 319 319 317 316 316 316 316 318 321 323 326 326 324 321 315 311 314 316 315 314 312 310 309 309 308 308 307 306 305 304 303
311 310 310 310 311 311 314 316 316 317 317 317 317 316 317 317 316 316 316 318 322 324 324 323 318 312 312 315 316 313 310 309 309 309 308 308 308 307 306 305 303 303 301
311 311 310 310 311 311 311 311 311 312 314 316 316 317 316 316 315 315 315 317 318 318 315 311 311 314 316 314 311 310 309 309 308 308 307 307 306 305 304 302 301 301 300
311 311 311 310 310 310 311 311 311 311 311 311 312 314 315 315 315 314 314 313 313 311 310 312 315 315 313 310 309 309 309 308 307 306 306 305 304 302 301 301 300 301 300
310 310 310 309 309 309 309 310 310 311 311 311 310 311 313 314 314 313 313 312 311 310 312 314 314 312 309 309 309 309 307 306 305 305 304 303 301 301 301 300 301 300 301
308 309 309 309 309 309 309 309 309 309 310 310 311 311 312 313 313 313 312 312 311 310 311 313 311 308 308 308 308 307 305 304 303 303 302 300 300 300 300 300 300 300 300
307 308 308 309 309 309 309 309 308 309 309 309 309 311 311 312 313 312 312 312 311 311 312 310 307 307 307 307 306 305 304 303 302 301 300 299 299 299 299 299 299 299 298
308 307 308 308 308 308 308 308 307 308 308 308 308 309 311 311 312 312 312 311 311 311 307 306 306 306 306 306 305 305 303 303 301 300 299 298 298 298 298 298 297 294 291
307 307 307 307 307 307 307 307 307 307 308 308 308 308 310 311 311 311 311 311 309 307 306 306 306 306 305 305 305 304 303 301 300 299 299 297 293 293 293 291 289 289 288
307 307 307 307 307 308 309 309 308 308 309 309 307 308 310 310 311 311 310 308 306 306 306 306 306 305 305 305 305 304 302 301 300 299 299 297 291 289 288 288 288 288 288
306 307 307 307 307 308 309 309 308 308 308 307 307 309 310 310 310 309 308 307 306 306 306 306 305 305 305 305 304 303 302 301 300 299 299 298 294 290 288 287 287 288 288
305 306 306 306 306 307 308 308 308 308 308 308 309 310 310 310 309 309 308 307 306 305 306 305 304 304 304 304 304 303 302 300 300 299 298 298 296 291 289 287 288 288 287
305 306 306 306 305 305 306 307 308 308 308 308 309 309 308 308 307 307 307 305 305 305 305 304 305 304 304 304 303 303 302 299 299 299 298 298 296 293 289 288 287 287 287

GFSMW_850_thetae_111.txt.gz
Theta_e
332 330 330 329 330 333 335 338 338 336 335 332 329 327 326 329 334 334 334 335 336 332 332 334 335 334 334 334 334 333 331 331 332 332 330 332 332 332 332 330 327 327 321
331 330 330 329 328 328 329 337 336 335 337 336 333 329 330 329 328 329 330 332 334 333 334 338 336 335 334 334 334 333 332 332 331 329 330 327 327 330 329 328 325 325 322
330 330 330 330 329 328 328 329 329 335 336 336 337 336 335 335 334 334 331 326 326 326 331 334 334 334 334 334 334 333 332 331 330 329 329 325 328 329 328 326 326 324 322
329 325 324 330 330 326 326 327 324 329 329 333 332 332 334 333 331 332 332 332 332 332 332 332 333 334 333 333 332 332 333 332 329 329 328 325 325 327 328 328 327 325 322
330 329 326 331 330 325 323 325 325 328 329 329 328 330 328 329 328 327 328 329 330 330 328 328 331 331 330 330 331 332 332 332 327 329 327 326 325 326 325 326 326 323 322
323 326 330 332 330 328 323 328 325 328 328 328 328 328 327 326 325 326 326 327 327 327 327 327 327 327 326 326 328 330 331 332 330 328 327 323 325 326 325 324 322 321 322
322 321 323 326 331 329 327 327 326 324 328 326 326 326 327 325 325 325 326 325 323 325 326 326 327 327 326 327 330 330 330 330 331 329 327 324 325 324 323 316 314 316 316
322 321 320 321 324 327 327 328 327 326 327 329 327 326 326 326 327 326 324 323 325 326 324 326 329 327 328 329 330 330 331 330 332 330 328 325 325 322 312 312 312 314 317
316 321 320 319 319 319 325 329 327 329 329 329 330 330 330 329 328 329 327 326 326 325 327 328 329 330 330 330 330 329 328 332 331 329 326 324 319 312 312 311 311 312 316
316 318 316 317 319 319 320 321 323 327 329 329 330 329 330 329 330 329 331 330 330 330 329 329 329 330 330 330 329 331 331 328 327 324 322 313 312 312 312 314 313 312 312
316 316 315 316 316 317 318 319 320 321 322 323 323 328 327 329 329 329 328 329 328 328 328 328 329 329 329 328 330 329 328 326 324 318 314 313 312 312 313 312 311 310 311
314 315 315 314 314 314 317 316 318 320 320 321 320 322 325 327 329 328 328 329 328 327 327 328 328 328 328 329 330 326 323 320 318 316 312 312 314 313 311 310 309 309 309
312 314 315 315 313 313 313 314 316 318 319 319 320 322 324 324 324 324 324 324 325 326 326 327 327 328 328 328 325 322 320 318 313 313 315 314 312 310 309 309 308 307 307
312 312 312 314 315 315 314 315 316 317 318 319 320 320 320 320 321 320 320 319 319 321 323 326 326 326 326 324 322 320 313 313 315 315 313 311 310 309 309 308 307 307 306
312 311 311 311 312 314 315 315 316 317 318 318 319 320 320 319 317 316 316 317 318 319 322 324 325 324 323 321 314 312 315 315 313 310 310 309 308 308 307 306 306 305 305
312 312 311 310 310 311 311 313 315 316 317 318 318 317 316 316 316 316 316 317 318 321 323 323 323 322 317 311 314 315 314 311 310 310 309 308 307 307 306 305 304 303 303
312 311 309 309 309 310 310 311 311 311 312 314 315 315 316 316 315 315 316 317 319 321 322 321 317 312 311 315 314 312 310 310 309 309 308 307 306 306 305 303 302 301 301
309 309 309 309 309 309 309 310 310 311 311 311 311 311 313 314 315 315 314 315 316 317 316 312 310 312 315 314 312 310 309 309 308 307 306 306 305 304 302 301 301 301 301
308 308 308 308 309 309 310 310 309 309 309 310 311 311 311 312 313 314 314 313 313 312 311 310 312 314 313 311 309 309 308 307 306 305 305 304 303 301 300 300 300 300 300
307 307 307 307 307 308 308 309 309 309 309 309 309 310 310 311 311 313 313 312 311 310 310 311 312 311 310 308 308 308 307 306 306 305 305 303 300 300 300 299 300 300 299
309 309 309 308 307 307 307 307 307 307 307 308 308 309 309 310 311 312 312 312 311 310 310 310 310 309 307 308 307 306 306 307 306 305 302 301 299 299 298 298 298 297 296
308 308 309 309 307 307 307 307 308 307 307 307 307 307 308 309 310 311 312 311 311 311 310 310 309 306 306 307 307 306 306 306 304 302 300 300 298 296 296 296 295 291 289
305 305 307 307 308 307 308 309 309 308 307 308 308 308 307 308 310 311 311 311 311 310 310 309 307 306 306 307 306 306 306 304 303 301 299 299 297 292 289 288 288 288 288
306 305 305 305 306 307 308 308 308 307 307 307 307 306 306 308 309 310 311 310 310 310 309 306 306 306 306 306 306 305 304 302 301 300 299 298 298 296 292 289 288 288 288
305 305 305 306 306 305 307 307 308 308 307 307 306 306 306 308 309 310 310 310 309 307 306 306 306 306 306 305 304 304 303 302 301 299 298 298 298 298 295 290 288 288 288
304 305 305 306 306 306 305 306 307 307 307 307 307 308 308 309 309 309 308 307 306 305 305 305 304 304 303 303 304 303 302 301 300 299 299 298 298 298 296 292 289 288 288

GFSMW_850_thetae_114.txt.gz
Theta_e
330 328 327 329 326 326 326 327 329 333 333 333 332 330 332 330 330 329 329 321 320 320 324 332 334 334 331 331 332 331 331 329 331 332 331 330 331 330 332 331 330 325 324
330 328 328 329 329 329 328 328 330 331 329 330 333 333 333 333 332 329 329 329 328 327 325 331 333 334 333 333 334 334 332 331 330 331 330 330 327 330 332 330 327 326 325
330 330 330 330 330 330 330 330 333 331 329 327 327 330 335 335 335 336 336 334 333 333 333 331 333 333 334 333 334 333 333 332 331 330 329 328 326 328 329 328 326 326 325
330 329 326 329 329 329 328 328 329 333 332 331 328 328 327 328 329 326 326 326 327 327 329 332 333 332 332 331 332 332 332 332 331 329 329 329 328 327 327 327 328 327 325
330 329 325 323 323 324 327 327 325 327 330 331 329 329 329 330 333 333 333 332 331 332 331 330 330 330 330 331 330 331 332 331 331 328 326 328 328 326 326 325 326 325 322
329 326 324 323 324 324 323 324 324 324 329 330 328 328 328 329 330 328 328 329 330 330 330 328 328 328 327 327 326 326 326 328 324 325 328 327 328 326 325 325 325 322 322
327 328 326 327 327 327 325 323 324 323 326 325 327 327 327 327 327 326 327 327 326 326 325 325 325 325 325 326 326 326 326 326 326 329 330 328 329 325 325 325 323 318 316
322 324 327 330 327 328 326 324 325 326 323 324 325 324 326 327 327 326 325 325 325 325 323 324 324 324 324 326 327 326 327 329 329 330 331 330 328 325 325 323 314 312 312
321 322 322 323 325 326 327 327 328 326 324 324 324 325 326 326 326 326 326 325 325 324 325 325 324 323 325 328 329 327 329 329 331 330 330 330 327 325 324 315 312 311 313
316 319 320 320 319 319 325 327 328 324 324 325 326 327 327 326 326 325 326 325 324 324 324 324 324 324 327 328 329 328 328 329 328 331 329 327 326 324 313 312 311 312 313
316 316 316 317 319 319 319 320 325 327 327 327 328 329 328 328 329 328 325 323 327 327 325 325 326 327 327 328 328 327 327 330 330 327 326 324 320 313 313 312 313 313 312
315 316 315 315 315 317 319 319 321 322 325 328 327 327 328 328 329 328 328 328 328 328 328 329 329 328 329 328 328 326 329 327 326 326 324 316 315 313 312 314 312 310 309
312 314 315 315 314 314 314 317 319 320 322 325 323 321 324 325 327 327 328 328 328 328 328 326 326 327 328 328 326 328 327 326 324 320 316 314 313 314 313 311 311 309 308
311 311 312 314 315 315 316 316 316 319 319 320 321 321 324 324 324 324 325 325 325 325 325 326 325 325 326 327 327 327 324 320 319 315 313 315 314 313 312 310 309 308 307
312 310 310 311 312 314 315 316 317 317 319 320 321 320 320 322 322 322 322 322 322 322 321 321 323 326 325 324 324 322 320 318 312 314 315 313 311 310 309 308 307 307 306
311 309 309 309 310 311 311 314 315 316 317 318 319 319 319 321 321 320 318 317 317 318 319 321 322 323 322 322 321 319 312 313 315 313 311 310 309 308 307 306 305 305 304
309 309 309 309 308 308 309 310 311 314 315 316 317 317 316 316 316 316 316 316 317 317 318 321 321 321 321 320 315 311 314 312 311 310 309 308 307 307 306 305 304 303 302
308 308 308 308 308 309 309 309 309 310 311 311 312 314 314 315 315 315 315 316 316 317 318 320 320 320 318 312 312 314 311 310 309 309 309 308 307 306 305 304 303 302 301
307 307 307 307 307 308 309 309 309 309 309 309 310 311 311 311 312 313 314 314 315 316 318 319 318 315 311 312 313 311 309 309 309 308 307 307 307 305 304 302 301 301 301
308 309 309 309 309 308 308 308 308 308 308 308 309 309 309 310 311 311 313 313 313 313 313 312 310 310 312 313 311 309 308 308 308 307 306 306 305 304 301 300 299 299 300
308 309 309 309 309 309 309 308 308 308 307 307 307 308 308 309 309 311 311 312 312 311 310 309 309 311 311 311 309 308 308 308 307 307 306 304 302 300 299 299 298 299 299
307 308 308 308 308 308 308 308 308 308 308 307 307 307 307 307 308 309 311 311 311 310 309 309 309 310 310 310 308 307 307 306 306 306 304 302 300 300 298 297 297 297 296
306 306 306 307 307 307 308 308 309 309 309 308 307 307 307 306 307 308 309 310 310 310 310 310 310 310 310 309 307 306 306 306 306 304 303 302 300 300 297 293 291 290 289
305 305 306 306 306 306 306 308 308 309 308 308 307 307 306 306 306 307 308 309 309 309 309 309 309 309 307 306 306 306 305 305 304 303 302 301 300 300 299 296 292 290 288
305 305 305 305 306 305 305 305 306 307 308 307 307 306 305 306 305 306 308 308 309 308 309 309 308 308 307 306 306 305 304 304 305 304 303 302 301 300 299 298 294 290 288
304 304 304 305 305 305 304 305 304 306 307 307 307 306 305 305 305 306 308 309 309 309 308 308 306 305 304 304 304 303 304 305 305 304 303 301 300 299 298 298 296 291 289

GFSMW_850_thetae_117.txt.gz
Theta_e
329 328 326 326 325 324 328 330 330 330 330 330 330 331 331 332 331 329 330 329 328 326 324 320 320 321 323 323 325 327 328 329 330 330 330 330 331 332 332 330 330 331 328
328 328 328 326 326 325 326 327 329 327 331 330 329 329 329 329 330 330 329 327 324 322 321 326 328 329 329 328 330 330 330 330 330 330 331 330 329 331 331 331 330 328 325
328 328 327 328 328 327 328 329 329 331 328 333 330 329 328 327 326 326 326 323 321 321 325 331 333 333 332 331 334 333 332 331 330 330 330 329 327 327 330 331 330 326 326
326 325 328 329 329 330 330 330 329 329 330 331 331 330 330 330 329 328 328 326 328 329 327 332 333 334 333 333 332 333 332 331 331 331 330 330 328 328 329 329 328 327 326
326 328 328 328 327 329 329 329 332 330 327 323 328 328 327 329 330 327 330 332 333 333 332 331 329 332 332 332 331 330 330 330 331 330 329 325 327 328 326 326 326 326 325
329 326 324 324 324 326 324 328 328 330 327 325 324 325 324 326 327 333 334 335 335 333 331 328 330 331 330 329 328 328 328 327 327 328 328 324 323 325 327 325 324 325 324
327 325 324 324 324 324 324 324 327 329 328 326 322 324 324 324 325 326 328 328 328 330 330 330 328 329 328 325 326 326 325 324 326 326 326 325 323 325 328 327 325 324 322
325 326 325 325 325 324 324 324 324 326 325 328 325 324 326 326 326 327 327 327 328 327 327 327 326 326 325 325 324 324 324 324 325 326 327 328 328 328 328 328 325 324 315
320 322 324 325 325 324 325 325 325 324 323 324 326 327 326 327 327 327 326 327 326 326 326 324 324 324 324 324 324 325 324 325 326 328 328 328 328 330 329 326 324 319 312
316 317 320 320 322 324 326 327 326 325 324 323 324 324 323 323 324 324 324 325 326 325 325 325 324 324 325 325 324 326 326 327 328 328 328 329 329 329 326 325 320 312 312
316 315 316 316 318 319 319 321 326 327 326 324 324 324 324 325 325 324 323 326 325 326 324 325 324 324 324 324 324 326 327 323 328 328 327 329 327 326 324 316 312 312 313
315 315 314 315 316 317 320 320 323 326 326 325 325 324 325 326 327 327 326 325 325 325 323 323 324 324 326 325 326 326 328 327 326 325 327 326 325 323 314 313 312 313 313
312 313 314 315 314 314 317 319 320 322 324 326 327 327 325 325 325 325 325 326 327 325 323 325 326 325 325 327 327 327 326 326 326 327 325 324 321 315 313 313 314 312 311
309 311 312 314 315 316 315 315 317 320 323 323 322 324 322 323 322 323 323 323 325 324 325 326 326 326 326 325 326 326 324 324 326 324 323 318 316 313 314 313 312 310 309
309 308 309 310 311 313 315 316 316 318 320 324 321 320 320 320 320 323 322 323 324 325 325 325 325 325 325 326 325 324 325 325 324 320 319 313 314 314 312 310 309 309 308
308 308 308 308 309 310 311 313 315 316 317 319 320 320 320 320 319 318 320 322 322 321 321 320 320 322 324 323 323 323 323 321 319 315 313 314 312 310 310 309 308 308 307
307 308 308 308 308 308 308 309 311 313 315 317 318 319 319 317 317 319 320 318 317 317 317 318 319 322 322 323 322 321 320 316 312 313 313 311 310 309 309 308 307 306 306
307 307 307 307 308 308 308 309 309 309 310 311 312 314 315 316 316 315 315 316 316 316 317 318 318 319 320 320 320 318 313 312 313 312 310 309 309 308 307 307 306 305 304
308 308 308 307 308 308 308 308 308 309 309 309 309 310 310 311 312 313 314 314 315 315 316 316 317 318 318 319 317 311 312 312 311 309 309 309 308 307 307 306 305 304 302
307 308 309 309 308 308 308 308 308 308 308 308 308 309 309 309 310 311 312 312 313 314 315 316 316 316 317 314 311 312 311 310 309 309 308 308 307 306 306 305 304 301 301
306 306 307 308 308 308 308 308 308 308 307 307 307 307 307 308 308 309 310 311 312 312 312 313 314 314 311 310 311 311 310 308 308 308 307 306 306 305 303 302 301 299 299
306 306 306 307 307 307 307 308 308 308 308 308 308 307 307 307 307 307 309 310 310 310 310 310 309 309 309 310 311 310 308 307 307 306 305 304 304 303 301 300 299 298 297
305 306 306 306 307 307 307 307 308 308 309 309 308 307 307 307 307 306 307 308 309 309 309 309 308 308 309 309 309 308 307 306 305 305 305 304 303 301 300 298 294 292 292
301 304 305 306 306 306 306 306 306 307 308 308 307 307 306 306 306 306 306 306 308 308 309 308 308 308 308 309 308 307 305 305 304 304 303 302 302 301 300 299 297 293 290
301 303 305 305 305 305 305 305 305 305 307 308 308 307 305 305 304 304 305 305 305 306 307 308 308 309 309 309 309 307 305 305 304 303 303 303 302 301 300 298 297 295 291
301 302 304 304 304 305 304 303 303 305 305 306 306 305 305 305 305 305 304 304 305 306 306 307 307 307 307 307 306 305 304 303 302 303 304 304 303 301 299 298 298 297 294